<?xml version="1.0" encoding="UTF-8" standalone="no" ?>
<gpx xmlns="http://www.topografix.com/GPX/1/1" xmlns:xsi="http://www.w3.org/2001/XMLSchema-instance" xsi:schemaLocation="http://www.topografix.com/GPX/1/1 http://www.topografix.com/GPX/1/1/gpx.xsd" version="1.1" creator="VisuGPX - https://www.visugpx.com">
  <metadata>
    <name>vtt circuit n°8 la varenne champtoceaux gr 1</name>
    <desc><![CDATA[circuit n°8 du club vvt vsm,grand circuit avec de bonnes montées,passages difficiles sur du rocher.]]></desc>
  </metadata>
  <trk>
    <name><![CDATA[2018-06-19-15-15-13 on GPSies.com]]></name>
    <trkseg>
      <trkpt lat="47.33909" lon="-1.27474">
        <ele>9.1</ele>
        <time>2018-06-19T15:15:13Z</time>
      </trkpt>
      <trkpt lat="47.33912" lon="-1.27472">
        <ele>8.7</ele>
        <time>2018-06-19T15:15:57Z</time>
      </trkpt>
      <trkpt lat="47.33917" lon="-1.27475">
        <ele>8</ele>
        <time>2018-06-19T15:16:00Z</time>
      </trkpt>
      <trkpt lat="47.33919" lon="-1.27481">
        <ele>7.8</ele>
        <time>2018-06-19T15:16:02Z</time>
      </trkpt>
      <trkpt lat="47.33919" lon="-1.27487">
        <ele>-1</ele>
        <time>2018-06-19T15:16:04Z</time>
      </trkpt>
      <trkpt lat="47.33917" lon="-1.27501">
        <ele>-1</ele>
        <time>2018-06-19T15:16:09Z</time>
      </trkpt>
      <trkpt lat="47.33917" lon="-1.27504">
        <ele>-1</ele>
        <time>2018-06-19T15:16:10Z</time>
      </trkpt>
      <trkpt lat="47.33914" lon="-1.2752">
        <ele>-1</ele>
        <time>2018-06-19T15:16:16Z</time>
      </trkpt>
      <trkpt lat="47.33914" lon="-1.27521">
        <ele>-1</ele>
        <time>2018-06-19T15:16:17Z</time>
      </trkpt>
      <trkpt lat="47.33918" lon="-1.27532">
        <ele>7.9</ele>
        <time>2018-06-19T15:16:21Z</time>
      </trkpt>
      <trkpt lat="47.33927" lon="-1.27557">
        <ele>6.5</ele>
        <time>2018-06-19T15:16:27Z</time>
      </trkpt>
      <trkpt lat="47.33932" lon="-1.27582">
        <ele>-1</ele>
        <time>2018-06-19T15:16:32Z</time>
      </trkpt>
      <trkpt lat="47.33931" lon="-1.27588">
        <ele>-1</ele>
        <time>2018-06-19T15:16:33Z</time>
      </trkpt>
      <trkpt lat="47.33923" lon="-1.27627">
        <ele>-2</ele>
        <time>2018-06-19T15:16:41Z</time>
      </trkpt>
      <trkpt lat="47.33916" lon="-1.27657">
        <ele>-1</ele>
        <time>2018-06-19T15:16:48Z</time>
      </trkpt>
      <trkpt lat="47.3391" lon="-1.27693">
        <ele>-1</ele>
        <time>2018-06-19T15:16:54Z</time>
      </trkpt>
      <trkpt lat="47.33904" lon="-1.27727">
        <ele>-2</ele>
        <time>2018-06-19T15:17:00Z</time>
      </trkpt>
      <trkpt lat="47.33894" lon="-1.27772">
        <ele>-1</ele>
        <time>2018-06-19T15:17:09Z</time>
      </trkpt>
      <trkpt lat="47.33887" lon="-1.27796">
        <ele>-1</ele>
        <time>2018-06-19T15:17:15Z</time>
      </trkpt>
      <trkpt lat="47.33879" lon="-1.27812">
        <ele>7.9</ele>
        <time>2018-06-19T15:17:19Z</time>
      </trkpt>
      <trkpt lat="47.33879" lon="-1.27835">
        <ele>7.7</ele>
        <time>2018-06-19T15:17:23Z</time>
      </trkpt>
      <trkpt lat="47.33877" lon="-1.27863">
        <ele>7.2</ele>
        <time>2018-06-19T15:17:28Z</time>
      </trkpt>
      <trkpt lat="47.33876" lon="-1.27904">
        <ele>7.4</ele>
        <time>2018-06-19T15:17:35Z</time>
      </trkpt>
      <trkpt lat="47.33873" lon="-1.27943">
        <ele>7.7</ele>
        <time>2018-06-19T15:17:41Z</time>
      </trkpt>
      <trkpt lat="47.33873" lon="-1.27955">
        <ele>7.6</ele>
        <time>2018-06-19T15:17:43Z</time>
      </trkpt>
      <trkpt lat="47.33872" lon="-1.27973">
        <ele>7.5</ele>
        <time>2018-06-19T15:17:46Z</time>
      </trkpt>
      <trkpt lat="47.33869" lon="-1.2801">
        <ele>7.6</ele>
        <time>2018-06-19T15:17:52Z</time>
      </trkpt>
      <trkpt lat="47.33863" lon="-1.28048">
        <ele>-1</ele>
        <time>2018-06-19T15:17:58Z</time>
      </trkpt>
      <trkpt lat="47.33862" lon="-1.28054">
        <ele>-1</ele>
        <time>2018-06-19T15:17:59Z</time>
      </trkpt>
      <trkpt lat="47.33861" lon="-1.2806">
        <ele>-1</ele>
        <time>2018-06-19T15:18:00Z</time>
      </trkpt>
      <trkpt lat="47.33856" lon="-1.28091">
        <ele>-1</ele>
        <time>2018-06-19T15:18:05Z</time>
      </trkpt>
      <trkpt lat="47.33848" lon="-1.28142">
        <ele>7.3</ele>
        <time>2018-06-19T15:18:13Z</time>
      </trkpt>
      <trkpt lat="47.33842" lon="-1.28202">
        <ele>-1</ele>
        <time>2018-06-19T15:18:21Z</time>
      </trkpt>
      <trkpt lat="47.33834" lon="-1.28259">
        <ele>-1</ele>
        <time>2018-06-19T15:18:29Z</time>
      </trkpt>
      <trkpt lat="47.33822" lon="-1.28319">
        <ele>8.4</ele>
        <time>2018-06-19T15:18:38Z</time>
      </trkpt>
      <trkpt lat="47.33819" lon="-1.28344">
        <ele>8.3</ele>
        <time>2018-06-19T15:18:42Z</time>
      </trkpt>
      <trkpt lat="47.33818" lon="-1.2835">
        <ele>8.3</ele>
        <time>2018-06-19T15:18:43Z</time>
      </trkpt>
      <trkpt lat="47.33816" lon="-1.28357">
        <ele>8.3</ele>
        <time>2018-06-19T15:18:44Z</time>
      </trkpt>
      <trkpt lat="47.33809" lon="-1.28406">
        <ele>8.1</ele>
        <time>2018-06-19T15:18:51Z</time>
      </trkpt>
      <trkpt lat="47.33804" lon="-1.2845">
        <ele>8</ele>
        <time>2018-06-19T15:18:57Z</time>
      </trkpt>
      <trkpt lat="47.33804" lon="-1.28458">
        <ele>8</ele>
        <time>2018-06-19T15:18:58Z</time>
      </trkpt>
      <trkpt lat="47.33802" lon="-1.28478">
        <ele>8.2</ele>
        <time>2018-06-19T15:19:01Z</time>
      </trkpt>
      <trkpt lat="47.338" lon="-1.28499">
        <ele>8.8</ele>
        <time>2018-06-19T15:19:04Z</time>
      </trkpt>
      <trkpt lat="47.33798" lon="-1.28539">
        <ele>7.6</ele>
        <time>2018-06-19T15:19:10Z</time>
      </trkpt>
      <trkpt lat="47.33809" lon="-1.28561">
        <ele>-1</ele>
        <time>2018-06-19T15:19:14Z</time>
      </trkpt>
      <trkpt lat="47.33809" lon="-1.28574">
        <ele>-1</ele>
        <time>2018-06-19T15:19:17Z</time>
      </trkpt>
      <trkpt lat="47.33802" lon="-1.28593">
        <ele>8.7</ele>
        <time>2018-06-19T15:19:22Z</time>
      </trkpt>
      <trkpt lat="47.33793" lon="-1.28629">
        <ele>1</ele>
        <time>2018-06-19T15:19:28Z</time>
      </trkpt>
      <trkpt lat="47.33789" lon="-1.28657">
        <ele>1</ele>
        <time>2018-06-19T15:19:32Z</time>
      </trkpt>
      <trkpt lat="47.33785" lon="-1.28671">
        <ele>1</ele>
        <time>2018-06-19T15:19:34Z</time>
      </trkpt>
      <trkpt lat="47.3378" lon="-1.28685">
        <ele>1</ele>
        <time>2018-06-19T15:19:36Z</time>
      </trkpt>
      <trkpt lat="47.33776" lon="-1.28701">
        <ele>1</ele>
        <time>2018-06-19T15:19:38Z</time>
      </trkpt>
      <trkpt lat="47.33775" lon="-1.28709">
        <ele>1</ele>
        <time>2018-06-19T15:19:39Z</time>
      </trkpt>
      <trkpt lat="47.33773" lon="-1.28753">
        <ele>9</ele>
        <time>2018-06-19T15:19:45Z</time>
      </trkpt>
      <trkpt lat="47.33772" lon="-1.28766">
        <ele>9</ele>
        <time>2018-06-19T15:19:47Z</time>
      </trkpt>
      <trkpt lat="47.33767" lon="-1.28792">
        <ele>9</ele>
        <time>2018-06-19T15:19:51Z</time>
      </trkpt>
      <trkpt lat="47.33767" lon="-1.28799">
        <ele>9</ele>
        <time>2018-06-19T15:19:52Z</time>
      </trkpt>
      <trkpt lat="47.33767" lon="-1.28821">
        <ele>9</ele>
        <time>2018-06-19T15:19:55Z</time>
      </trkpt>
      <trkpt lat="47.3377" lon="-1.2887">
        <ele>8.3</ele>
        <time>2018-06-19T15:20:02Z</time>
      </trkpt>
      <trkpt lat="47.33769" lon="-1.28877">
        <ele>8.3</ele>
        <time>2018-06-19T15:20:03Z</time>
      </trkpt>
      <trkpt lat="47.33762" lon="-1.28901">
        <ele>8.4</ele>
        <time>2018-06-19T15:20:07Z</time>
      </trkpt>
      <trkpt lat="47.33758" lon="-1.28913">
        <ele>1</ele>
        <time>2018-06-19T15:20:09Z</time>
      </trkpt>
      <trkpt lat="47.33756" lon="-1.28927">
        <ele>1</ele>
        <time>2018-06-19T15:20:11Z</time>
      </trkpt>
      <trkpt lat="47.33753" lon="-1.28949">
        <ele>1</ele>
        <time>2018-06-19T15:20:14Z</time>
      </trkpt>
      <trkpt lat="47.33754" lon="-1.2897">
        <ele>1</ele>
        <time>2018-06-19T15:20:17Z</time>
      </trkpt>
      <trkpt lat="47.33752" lon="-1.28996">
        <ele>8.8</ele>
        <time>2018-06-19T15:20:21Z</time>
      </trkpt>
      <trkpt lat="47.33753" lon="-1.29003">
        <ele>8.7</ele>
        <time>2018-06-19T15:20:22Z</time>
      </trkpt>
      <trkpt lat="47.33754" lon="-1.29045">
        <ele>8.6</ele>
        <time>2018-06-19T15:20:28Z</time>
      </trkpt>
      <trkpt lat="47.33752" lon="-1.2909">
        <ele>9.4</ele>
        <time>2018-06-19T15:20:34Z</time>
      </trkpt>
      <trkpt lat="47.3375" lon="-1.29144">
        <ele>8</ele>
        <time>2018-06-19T15:20:41Z</time>
      </trkpt>
      <trkpt lat="47.33743" lon="-1.29173">
        <ele>7.9</ele>
        <time>2018-06-19T15:20:45Z</time>
      </trkpt>
      <trkpt lat="47.33741" lon="-1.29181">
        <ele>7.8</ele>
        <time>2018-06-19T15:20:46Z</time>
      </trkpt>
      <trkpt lat="47.3373" lon="-1.29226">
        <ele>7.3</ele>
        <time>2018-06-19T15:20:52Z</time>
      </trkpt>
      <trkpt lat="47.3373" lon="-1.29233">
        <ele>7.5</ele>
        <time>2018-06-19T15:20:53Z</time>
      </trkpt>
      <trkpt lat="47.33725" lon="-1.29256">
        <ele>7.9</ele>
        <time>2018-06-19T15:20:56Z</time>
      </trkpt>
      <trkpt lat="47.33722" lon="-1.2927">
        <ele>8</ele>
        <time>2018-06-19T15:20:58Z</time>
      </trkpt>
      <trkpt lat="47.33704" lon="-1.29339">
        <ele>1</ele>
        <time>2018-06-19T15:21:08Z</time>
      </trkpt>
      <trkpt lat="47.33683" lon="-1.29408">
        <ele>8</ele>
        <time>2018-06-19T15:21:18Z</time>
      </trkpt>
      <trkpt lat="47.33667" lon="-1.29449">
        <ele>1</ele>
        <time>2018-06-19T15:21:25Z</time>
      </trkpt>
      <trkpt lat="47.33665" lon="-1.29455">
        <ele>1</ele>
        <time>2018-06-19T15:21:26Z</time>
      </trkpt>
      <trkpt lat="47.33661" lon="-1.29483">
        <ele>1</ele>
        <time>2018-06-19T15:21:30Z</time>
      </trkpt>
      <trkpt lat="47.33658" lon="-1.29499">
        <ele>1</ele>
        <time>2018-06-19T15:21:32Z</time>
      </trkpt>
      <trkpt lat="47.33653" lon="-1.2952">
        <ele>7.9</ele>
        <time>2018-06-19T15:21:35Z</time>
      </trkpt>
      <trkpt lat="47.33649" lon="-1.29539">
        <ele>8</ele>
        <time>2018-06-19T15:21:38Z</time>
      </trkpt>
      <trkpt lat="47.33642" lon="-1.29546">
        <ele>8</ele>
        <time>2018-06-19T15:21:40Z</time>
      </trkpt>
      <trkpt lat="47.33623" lon="-1.29546">
        <ele>8</ele>
        <time>2018-06-19T15:21:44Z</time>
      </trkpt>
      <trkpt lat="47.33614" lon="-1.2954">
        <ele>8</ele>
        <time>2018-06-19T15:21:46Z</time>
      </trkpt>
      <trkpt lat="47.336" lon="-1.29528">
        <ele>8</ele>
        <time>2018-06-19T15:21:49Z</time>
      </trkpt>
      <trkpt lat="47.33555" lon="-1.29491">
        <ele>8</ele>
        <time>2018-06-19T15:21:59Z</time>
      </trkpt>
      <trkpt lat="47.33508" lon="-1.29454">
        <ele>7.7</ele>
        <time>2018-06-19T15:22:09Z</time>
      </trkpt>
      <trkpt lat="47.33481" lon="-1.29431">
        <ele>8</ele>
        <time>2018-06-19T15:22:16Z</time>
      </trkpt>
      <trkpt lat="47.33438" lon="-1.29397">
        <ele>8</ele>
        <time>2018-06-19T15:22:26Z</time>
      </trkpt>
      <trkpt lat="47.33411" lon="-1.29378">
        <ele>7.2</ele>
        <time>2018-06-19T15:22:33Z</time>
      </trkpt>
      <trkpt lat="47.33407" lon="-1.2937">
        <ele>6.6</ele>
        <time>2018-06-19T15:22:35Z</time>
      </trkpt>
      <trkpt lat="47.33406" lon="-1.29365">
        <ele>6.4</ele>
        <time>2018-06-19T15:22:36Z</time>
      </trkpt>
      <trkpt lat="47.33403" lon="-1.29341">
        <ele>6.7</ele>
        <time>2018-06-19T15:22:40Z</time>
      </trkpt>
      <trkpt lat="47.33392" lon="-1.29317">
        <ele>7.7</ele>
        <time>2018-06-19T15:22:44Z</time>
      </trkpt>
      <trkpt lat="47.33386" lon="-1.29306">
        <ele>7.9</ele>
        <time>2018-06-19T15:22:46Z</time>
      </trkpt>
      <trkpt lat="47.33356" lon="-1.29254">
        <ele>7</ele>
        <time>2018-06-19T15:22:55Z</time>
      </trkpt>
      <trkpt lat="47.33349" lon="-1.29245">
        <ele>7</ele>
        <time>2018-06-19T15:22:57Z</time>
      </trkpt>
      <trkpt lat="47.33336" lon="-1.29234">
        <ele>7</ele>
        <time>2018-06-19T15:23:00Z</time>
      </trkpt>
      <trkpt lat="47.33295" lon="-1.29203">
        <ele>-1</ele>
        <time>2018-06-19T15:23:09Z</time>
      </trkpt>
      <trkpt lat="47.33277" lon="-1.2919">
        <ele>-1</ele>
        <time>2018-06-19T15:23:13Z</time>
      </trkpt>
      <trkpt lat="47.33264" lon="-1.29181">
        <ele>-1</ele>
        <time>2018-06-19T15:23:16Z</time>
      </trkpt>
      <trkpt lat="47.33237" lon="-1.29165">
        <ele>-1</ele>
        <time>2018-06-19T15:23:23Z</time>
      </trkpt>
      <trkpt lat="47.33217" lon="-1.29155">
        <ele>9.3</ele>
        <time>2018-06-19T15:23:29Z</time>
      </trkpt>
      <trkpt lat="47.33209" lon="-1.29151">
        <ele>1</ele>
        <time>2018-06-19T15:23:31Z</time>
      </trkpt>
      <trkpt lat="47.33194" lon="-1.29152">
        <ele>1</ele>
        <time>2018-06-19T15:23:35Z</time>
      </trkpt>
      <trkpt lat="47.33191" lon="-1.29155">
        <ele>1</ele>
        <time>2018-06-19T15:23:36Z</time>
      </trkpt>
      <trkpt lat="47.33171" lon="-1.29177">
        <ele>2</ele>
        <time>2018-06-19T15:23:42Z</time>
      </trkpt>
      <trkpt lat="47.3317" lon="-1.29183">
        <ele>2</ele>
        <time>2018-06-19T15:23:43Z</time>
      </trkpt>
      <trkpt lat="47.33168" lon="-1.29203">
        <ele>3</ele>
        <time>2018-06-19T15:23:46Z</time>
      </trkpt>
      <trkpt lat="47.33162" lon="-1.29229">
        <ele>3</ele>
        <time>2018-06-19T15:23:51Z</time>
      </trkpt>
      <trkpt lat="47.33159" lon="-1.29232">
        <ele>3</ele>
        <time>2018-06-19T15:23:52Z</time>
      </trkpt>
      <trkpt lat="47.33151" lon="-1.29244">
        <ele>3</ele>
        <time>2018-06-19T15:23:55Z</time>
      </trkpt>
      <trkpt lat="47.33149" lon="-1.29249">
        <ele>3</ele>
        <time>2018-06-19T15:23:56Z</time>
      </trkpt>
      <trkpt lat="47.33134" lon="-1.29276">
        <ele>4</ele>
        <time>2018-06-19T15:24:02Z</time>
      </trkpt>
      <trkpt lat="47.33132" lon="-1.29281">
        <ele>5</ele>
        <time>2018-06-19T15:24:03Z</time>
      </trkpt>
      <trkpt lat="47.3313" lon="-1.29286">
        <ele>5</ele>
        <time>2018-06-19T15:24:04Z</time>
      </trkpt>
      <trkpt lat="47.33127" lon="-1.29308">
        <ele>5</ele>
        <time>2018-06-19T15:24:07Z</time>
      </trkpt>
      <trkpt lat="47.33134" lon="-1.29343">
        <ele>3</ele>
        <time>2018-06-19T15:24:12Z</time>
      </trkpt>
      <trkpt lat="47.33142" lon="-1.29352">
        <ele>2</ele>
        <time>2018-06-19T15:24:14Z</time>
      </trkpt>
      <trkpt lat="47.33146" lon="-1.29357">
        <ele>2</ele>
        <time>2018-06-19T15:24:15Z</time>
      </trkpt>
      <trkpt lat="47.33148" lon="-1.29362">
        <ele>1</ele>
        <time>2018-06-19T15:24:16Z</time>
      </trkpt>
      <trkpt lat="47.33145" lon="-1.29382">
        <ele>6.5</ele>
        <time>2018-06-19T15:24:19Z</time>
      </trkpt>
      <trkpt lat="47.33138" lon="-1.29394">
        <ele>6.5</ele>
        <time>2018-06-19T15:24:21Z</time>
      </trkpt>
      <trkpt lat="47.33126" lon="-1.29411">
        <ele>-1</ele>
        <time>2018-06-19T15:24:24Z</time>
      </trkpt>
      <trkpt lat="47.33111" lon="-1.29432">
        <ele>-1</ele>
        <time>2018-06-19T15:24:28Z</time>
      </trkpt>
      <trkpt lat="47.33088" lon="-1.29462">
        <ele>-1</ele>
        <time>2018-06-19T15:24:34Z</time>
      </trkpt>
      <trkpt lat="47.33059" lon="-1.29505">
        <ele>-1</ele>
        <time>2018-06-19T15:24:42Z</time>
      </trkpt>
      <trkpt lat="47.33032" lon="-1.29549">
        <ele>-1</ele>
        <time>2018-06-19T15:24:50Z</time>
      </trkpt>
      <trkpt lat="47.32999" lon="-1.2961">
        <ele>8</ele>
        <time>2018-06-19T15:25:01Z</time>
      </trkpt>
      <trkpt lat="47.32971" lon="-1.29659">
        <ele>8.2</ele>
        <time>2018-06-19T15:25:10Z</time>
      </trkpt>
      <trkpt lat="47.32967" lon="-1.29665">
        <ele>8.1</ele>
        <time>2018-06-19T15:25:11Z</time>
      </trkpt>
      <trkpt lat="47.32945" lon="-1.29703">
        <ele>9</ele>
        <time>2018-06-19T15:25:18Z</time>
      </trkpt>
      <trkpt lat="47.32912" lon="-1.2976">
        <ele>8</ele>
        <time>2018-06-19T15:25:28Z</time>
      </trkpt>
      <trkpt lat="47.32885" lon="-1.29808">
        <ele>1</ele>
        <time>2018-06-19T15:25:36Z</time>
      </trkpt>
      <trkpt lat="47.32858" lon="-1.29856">
        <ele>1</ele>
        <time>2018-06-19T15:25:44Z</time>
      </trkpt>
      <trkpt lat="47.32832" lon="-1.29904">
        <ele>1</ele>
        <time>2018-06-19T15:25:52Z</time>
      </trkpt>
      <trkpt lat="47.32801" lon="-1.29964">
        <ele>1</ele>
        <time>2018-06-19T15:26:01Z</time>
      </trkpt>
      <trkpt lat="47.32783" lon="-1.3">
        <ele>1</ele>
        <time>2018-06-19T15:26:07Z</time>
      </trkpt>
      <trkpt lat="47.32756" lon="-1.30057">
        <ele>1</ele>
        <time>2018-06-19T15:26:16Z</time>
      </trkpt>
      <trkpt lat="47.3273" lon="-1.30108">
        <ele>8</ele>
        <time>2018-06-19T15:26:24Z</time>
      </trkpt>
      <trkpt lat="47.32704" lon="-1.30149">
        <ele>8</ele>
        <time>2018-06-19T15:26:31Z</time>
      </trkpt>
      <trkpt lat="47.32689" lon="-1.30172">
        <ele>1</ele>
        <time>2018-06-19T15:26:35Z</time>
      </trkpt>
      <trkpt lat="47.32681" lon="-1.30183">
        <ele>1</ele>
        <time>2018-06-19T15:26:37Z</time>
      </trkpt>
      <trkpt lat="47.32658" lon="-1.3022">
        <ele>1</ele>
        <time>2018-06-19T15:26:44Z</time>
      </trkpt>
      <trkpt lat="47.32637" lon="-1.30248">
        <ele>8</ele>
        <time>2018-06-19T15:26:51Z</time>
      </trkpt>
      <trkpt lat="47.32634" lon="-1.30248">
        <ele>8</ele>
        <time>2018-06-19T15:26:52Z</time>
      </trkpt>
      <trkpt lat="47.32629" lon="-1.30241">
        <ele>8</ele>
        <time>2018-06-19T15:26:54Z</time>
      </trkpt>
      <trkpt lat="47.32625" lon="-1.30232">
        <ele>8</ele>
        <time>2018-06-19T15:26:56Z</time>
      </trkpt>
      <trkpt lat="47.32617" lon="-1.30215">
        <ele>8</ele>
        <time>2018-06-19T15:26:59Z</time>
      </trkpt>
      <trkpt lat="47.3259" lon="-1.30155">
        <ele>1</ele>
        <time>2018-06-19T15:27:09Z</time>
      </trkpt>
      <trkpt lat="47.32583" lon="-1.30146">
        <ele>1</ele>
        <time>2018-06-19T15:27:11Z</time>
      </trkpt>
      <trkpt lat="47.32571" lon="-1.30136">
        <ele>1</ele>
        <time>2018-06-19T15:27:14Z</time>
      </trkpt>
      <trkpt lat="47.32554" lon="-1.30138">
        <ele>1</ele>
        <time>2018-06-19T15:27:18Z</time>
      </trkpt>
      <trkpt lat="47.32549" lon="-1.30148">
        <ele>1</ele>
        <time>2018-06-19T15:27:20Z</time>
      </trkpt>
      <trkpt lat="47.32545" lon="-1.30154">
        <ele>1</ele>
        <time>2018-06-19T15:27:21Z</time>
      </trkpt>
      <trkpt lat="47.32542" lon="-1.3016">
        <ele>2</ele>
        <time>2018-06-19T15:27:22Z</time>
      </trkpt>
      <trkpt lat="47.32513" lon="-1.30195">
        <ele>1</ele>
        <time>2018-06-19T15:27:29Z</time>
      </trkpt>
      <trkpt lat="47.32495" lon="-1.3022">
        <ele>1</ele>
        <time>2018-06-19T15:27:34Z</time>
      </trkpt>
      <trkpt lat="47.32491" lon="-1.30233">
        <ele>1</ele>
        <time>2018-06-19T15:27:36Z</time>
      </trkpt>
      <trkpt lat="47.32488" lon="-1.30255">
        <ele>1</ele>
        <time>2018-06-19T15:27:39Z</time>
      </trkpt>
      <trkpt lat="47.32486" lon="-1.30271">
        <ele>2</ele>
        <time>2018-06-19T15:27:41Z</time>
      </trkpt>
      <trkpt lat="47.32484" lon="-1.30279">
        <ele>2</ele>
        <time>2018-06-19T15:27:42Z</time>
      </trkpt>
      <trkpt lat="47.32473" lon="-1.30308">
        <ele>1</ele>
        <time>2018-06-19T15:27:46Z</time>
      </trkpt>
      <trkpt lat="47.32448" lon="-1.30348">
        <ele>1</ele>
        <time>2018-06-19T15:27:53Z</time>
      </trkpt>
      <trkpt lat="47.32421" lon="-1.30369">
        <ele>7.9</ele>
        <time>2018-06-19T15:27:59Z</time>
      </trkpt>
      <trkpt lat="47.324" lon="-1.3038">
        <ele>8</ele>
        <time>2018-06-19T15:28:03Z</time>
      </trkpt>
      <trkpt lat="47.32381" lon="-1.30394">
        <ele>8</ele>
        <time>2018-06-19T15:28:07Z</time>
      </trkpt>
      <trkpt lat="47.32345" lon="-1.30426">
        <ele>7.9</ele>
        <time>2018-06-19T15:28:15Z</time>
      </trkpt>
      <trkpt lat="47.32316" lon="-1.30467">
        <ele>1</ele>
        <time>2018-06-19T15:28:23Z</time>
      </trkpt>
      <trkpt lat="47.32287" lon="-1.30515">
        <ele>1</ele>
        <time>2018-06-19T15:28:32Z</time>
      </trkpt>
      <trkpt lat="47.32282" lon="-1.30524">
        <ele>1</ele>
        <time>2018-06-19T15:28:34Z</time>
      </trkpt>
      <trkpt lat="47.32274" lon="-1.30541">
        <ele>1</ele>
        <time>2018-06-19T15:28:37Z</time>
      </trkpt>
      <trkpt lat="47.32254" lon="-1.30582">
        <ele>7.8</ele>
        <time>2018-06-19T15:28:44Z</time>
      </trkpt>
      <trkpt lat="47.3224" lon="-1.30606">
        <ele>7.8</ele>
        <time>2018-06-19T15:28:48Z</time>
      </trkpt>
      <trkpt lat="47.32226" lon="-1.30619">
        <ele>7.8</ele>
        <time>2018-06-19T15:28:51Z</time>
      </trkpt>
      <trkpt lat="47.32194" lon="-1.30644">
        <ele>7.7</ele>
        <time>2018-06-19T15:28:58Z</time>
      </trkpt>
      <trkpt lat="47.32159" lon="-1.30671">
        <ele>1</ele>
        <time>2018-06-19T15:29:06Z</time>
      </trkpt>
      <trkpt lat="47.32149" lon="-1.30685">
        <ele>1</ele>
        <time>2018-06-19T15:29:09Z</time>
      </trkpt>
      <trkpt lat="47.32144" lon="-1.30698">
        <ele>1</ele>
        <time>2018-06-19T15:29:11Z</time>
      </trkpt>
      <trkpt lat="47.32131" lon="-1.30755">
        <ele>1</ele>
        <time>2018-06-19T15:29:19Z</time>
      </trkpt>
      <trkpt lat="47.32121" lon="-1.30804">
        <ele>8.3</ele>
        <time>2018-06-19T15:29:26Z</time>
      </trkpt>
      <trkpt lat="47.3212" lon="-1.30812">
        <ele>8.1</ele>
        <time>2018-06-19T15:29:27Z</time>
      </trkpt>
      <trkpt lat="47.32109" lon="-1.30866">
        <ele>1</ele>
        <time>2018-06-19T15:29:34Z</time>
      </trkpt>
      <trkpt lat="47.32096" lon="-1.30908">
        <ele>1</ele>
        <time>2018-06-19T15:29:40Z</time>
      </trkpt>
      <trkpt lat="47.32091" lon="-1.30921">
        <ele>1</ele>
        <time>2018-06-19T15:29:42Z</time>
      </trkpt>
      <trkpt lat="47.32074" lon="-1.30976">
        <ele>1</ele>
        <time>2018-06-19T15:29:50Z</time>
      </trkpt>
      <trkpt lat="47.32056" lon="-1.3103">
        <ele>1</ele>
        <time>2018-06-19T15:29:58Z</time>
      </trkpt>
      <trkpt lat="47.32037" lon="-1.31079">
        <ele>1</ele>
        <time>2018-06-19T15:30:05Z</time>
      </trkpt>
      <trkpt lat="47.32019" lon="-1.31137">
        <ele>1</ele>
        <time>2018-06-19T15:30:13Z</time>
      </trkpt>
      <trkpt lat="47.32005" lon="-1.31196">
        <ele>1</ele>
        <time>2018-06-19T15:30:21Z</time>
      </trkpt>
      <trkpt lat="47.31988" lon="-1.3124">
        <ele>1</ele>
        <time>2018-06-19T15:30:28Z</time>
      </trkpt>
      <trkpt lat="47.31971" lon="-1.3128">
        <ele>2</ele>
        <time>2018-06-19T15:30:34Z</time>
      </trkpt>
      <trkpt lat="47.31947" lon="-1.31343">
        <ele>1</ele>
        <time>2018-06-19T15:30:42Z</time>
      </trkpt>
      <trkpt lat="47.31942" lon="-1.31358">
        <ele>7.1</ele>
        <time>2018-06-19T15:30:44Z</time>
      </trkpt>
      <trkpt lat="47.31927" lon="-1.31401">
        <ele>7</ele>
        <time>2018-06-19T15:30:50Z</time>
      </trkpt>
      <trkpt lat="47.31904" lon="-1.31464">
        <ele>8.4</ele>
        <time>2018-06-19T15:30:59Z</time>
      </trkpt>
      <trkpt lat="47.31888" lon="-1.31531">
        <ele>8</ele>
        <time>2018-06-19T15:31:08Z</time>
      </trkpt>
      <trkpt lat="47.31872" lon="-1.31603">
        <ele>1</ele>
        <time>2018-06-19T15:31:18Z</time>
      </trkpt>
      <trkpt lat="47.3186" lon="-1.31663">
        <ele>1</ele>
        <time>2018-06-19T15:31:27Z</time>
      </trkpt>
      <trkpt lat="47.31859" lon="-1.31671">
        <ele>1</ele>
        <time>2018-06-19T15:31:28Z</time>
      </trkpt>
      <trkpt lat="47.3186" lon="-1.31708">
        <ele>7.6</ele>
        <time>2018-06-19T15:31:33Z</time>
      </trkpt>
      <trkpt lat="47.31859" lon="-1.3176">
        <ele>7.3</ele>
        <time>2018-06-19T15:31:39Z</time>
      </trkpt>
      <trkpt lat="47.31851" lon="-1.31817">
        <ele>6.9</ele>
        <time>2018-06-19T15:31:46Z</time>
      </trkpt>
      <trkpt lat="47.31843" lon="-1.31857">
        <ele>6.7</ele>
        <time>2018-06-19T15:31:52Z</time>
      </trkpt>
      <trkpt lat="47.31828" lon="-1.31913">
        <ele>6.7</ele>
        <time>2018-06-19T15:32:00Z</time>
      </trkpt>
      <trkpt lat="47.3182" lon="-1.31949">
        <ele>1</ele>
        <time>2018-06-19T15:32:06Z</time>
      </trkpt>
      <trkpt lat="47.31813" lon="-1.31956">
        <ele>2</ele>
        <time>2018-06-19T15:32:10Z</time>
      </trkpt>
      <trkpt lat="47.31801" lon="-1.31958">
        <ele>3</ele>
        <time>2018-06-19T15:32:15Z</time>
      </trkpt>
      <trkpt lat="47.31791" lon="-1.31982">
        <ele>3</ele>
        <time>2018-06-19T15:32:20Z</time>
      </trkpt>
      <trkpt lat="47.3177" lon="-1.32038">
        <ele>2</ele>
        <time>2018-06-19T15:32:29Z</time>
      </trkpt>
      <trkpt lat="47.31751" lon="-1.32086">
        <ele>2</ele>
        <time>2018-06-19T15:32:37Z</time>
      </trkpt>
      <trkpt lat="47.31738" lon="-1.32117">
        <ele>3</ele>
        <time>2018-06-19T15:32:42Z</time>
      </trkpt>
      <trkpt lat="47.31735" lon="-1.32133">
        <ele>2</ele>
        <time>2018-06-19T15:32:44Z</time>
      </trkpt>
      <trkpt lat="47.31726" lon="-1.32175">
        <ele>2</ele>
        <time>2018-06-19T15:32:49Z</time>
      </trkpt>
      <trkpt lat="47.31725" lon="-1.32183">
        <ele>1</ele>
        <time>2018-06-19T15:32:50Z</time>
      </trkpt>
      <trkpt lat="47.31719" lon="-1.32239">
        <ele>1</ele>
        <time>2018-06-19T15:32:57Z</time>
      </trkpt>
      <trkpt lat="47.31714" lon="-1.32262">
        <ele>1</ele>
        <time>2018-06-19T15:33:00Z</time>
      </trkpt>
      <trkpt lat="47.31708" lon="-1.32291">
        <ele>1</ele>
        <time>2018-06-19T15:33:04Z</time>
      </trkpt>
      <trkpt lat="47.31699" lon="-1.32328">
        <ele>8.5</ele>
        <time>2018-06-19T15:33:09Z</time>
      </trkpt>
      <trkpt lat="47.31696" lon="-1.32343">
        <ele>8.1</ele>
        <time>2018-06-19T15:33:11Z</time>
      </trkpt>
      <trkpt lat="47.31688" lon="-1.32406">
        <ele>8.9</ele>
        <time>2018-06-19T15:33:19Z</time>
      </trkpt>
      <trkpt lat="47.31685" lon="-1.32446">
        <ele>8.1</ele>
        <time>2018-06-19T15:33:24Z</time>
      </trkpt>
      <trkpt lat="47.31684" lon="-1.32462">
        <ele>7.8</ele>
        <time>2018-06-19T15:33:26Z</time>
      </trkpt>
      <trkpt lat="47.3168" lon="-1.32486">
        <ele>1</ele>
        <time>2018-06-19T15:33:29Z</time>
      </trkpt>
      <trkpt lat="47.31675" lon="-1.325">
        <ele>1</ele>
        <time>2018-06-19T15:33:31Z</time>
      </trkpt>
      <trkpt lat="47.31669" lon="-1.32514">
        <ele>1</ele>
        <time>2018-06-19T15:33:33Z</time>
      </trkpt>
      <trkpt lat="47.31652" lon="-1.32548">
        <ele>1</ele>
        <time>2018-06-19T15:33:38Z</time>
      </trkpt>
      <trkpt lat="47.31629" lon="-1.32592">
        <ele>1</ele>
        <time>2018-06-19T15:33:45Z</time>
      </trkpt>
      <trkpt lat="47.31604" lon="-1.32633">
        <ele>1</ele>
        <time>2018-06-19T15:33:52Z</time>
      </trkpt>
      <trkpt lat="47.31596" lon="-1.32644">
        <ele>1</ele>
        <time>2018-06-19T15:33:54Z</time>
      </trkpt>
      <trkpt lat="47.31565" lon="-1.32684">
        <ele>1</ele>
        <time>2018-06-19T15:34:02Z</time>
      </trkpt>
      <trkpt lat="47.3155" lon="-1.32702">
        <ele>2</ele>
        <time>2018-06-19T15:34:06Z</time>
      </trkpt>
      <trkpt lat="47.31538" lon="-1.32718">
        <ele>2</ele>
        <time>2018-06-19T15:34:09Z</time>
      </trkpt>
      <trkpt lat="47.3151" lon="-1.32751">
        <ele>2</ele>
        <time>2018-06-19T15:34:16Z</time>
      </trkpt>
      <trkpt lat="47.31477" lon="-1.32789">
        <ele>2</ele>
        <time>2018-06-19T15:34:24Z</time>
      </trkpt>
      <trkpt lat="47.31441" lon="-1.32818">
        <ele>1</ele>
        <time>2018-06-19T15:34:31Z</time>
      </trkpt>
      <trkpt lat="47.31405" lon="-1.32848">
        <ele>1</ele>
        <time>2018-06-19T15:34:39Z</time>
      </trkpt>
      <trkpt lat="47.31359" lon="-1.32888">
        <ele>1</ele>
        <time>2018-06-19T15:34:49Z</time>
      </trkpt>
      <trkpt lat="47.31318" lon="-1.32922">
        <ele>2</ele>
        <time>2018-06-19T15:34:58Z</time>
      </trkpt>
      <trkpt lat="47.31284" lon="-1.32952">
        <ele>1</ele>
        <time>2018-06-19T15:35:05Z</time>
      </trkpt>
      <trkpt lat="47.31249" lon="-1.32979">
        <ele>1</ele>
        <time>2018-06-19T15:35:13Z</time>
      </trkpt>
      <trkpt lat="47.31218" lon="-1.32997">
        <ele>1</ele>
        <time>2018-06-19T15:35:20Z</time>
      </trkpt>
      <trkpt lat="47.31177" lon="-1.33017">
        <ele>1</ele>
        <time>2018-06-19T15:35:29Z</time>
      </trkpt>
      <trkpt lat="47.31173" lon="-1.33021">
        <ele>1</ele>
        <time>2018-06-19T15:35:30Z</time>
      </trkpt>
      <trkpt lat="47.31162" lon="-1.3304">
        <ele>1</ele>
        <time>2018-06-19T15:35:35Z</time>
      </trkpt>
      <trkpt lat="47.31151" lon="-1.3306">
        <ele>1</ele>
        <time>2018-06-19T15:35:40Z</time>
      </trkpt>
      <trkpt lat="47.3113" lon="-1.33081">
        <ele>1</ele>
        <time>2018-06-19T15:35:47Z</time>
      </trkpt>
      <trkpt lat="47.31109" lon="-1.33104">
        <ele>1</ele>
        <time>2018-06-19T15:35:54Z</time>
      </trkpt>
      <trkpt lat="47.31079" lon="-1.33135">
        <ele>1</ele>
        <time>2018-06-19T15:36:03Z</time>
      </trkpt>
      <trkpt lat="47.31074" lon="-1.33143">
        <ele>1</ele>
        <time>2018-06-19T15:36:05Z</time>
      </trkpt>
      <trkpt lat="47.31063" lon="-1.33158">
        <ele>1</ele>
        <time>2018-06-19T15:36:09Z</time>
      </trkpt>
      <trkpt lat="47.31044" lon="-1.33185">
        <ele>1</ele>
        <time>2018-06-19T15:36:16Z</time>
      </trkpt>
      <trkpt lat="47.31022" lon="-1.33206">
        <ele>1</ele>
        <time>2018-06-19T15:36:24Z</time>
      </trkpt>
      <trkpt lat="47.31005" lon="-1.33218">
        <ele>2</ele>
        <time>2018-06-19T15:36:29Z</time>
      </trkpt>
      <trkpt lat="47.31002" lon="-1.33222">
        <ele>2</ele>
        <time>2018-06-19T15:36:30Z</time>
      </trkpt>
      <trkpt lat="47.30984" lon="-1.33243">
        <ele>2</ele>
        <time>2018-06-19T15:36:36Z</time>
      </trkpt>
      <trkpt lat="47.30976" lon="-1.33247">
        <ele>2</ele>
        <time>2018-06-19T15:36:40Z</time>
      </trkpt>
      <trkpt lat="47.30969" lon="-1.33256">
        <ele>2</ele>
        <time>2018-06-19T15:36:45Z</time>
      </trkpt>
      <trkpt lat="47.30956" lon="-1.33275">
        <ele>2</ele>
        <time>2018-06-19T15:36:51Z</time>
      </trkpt>
      <trkpt lat="47.30932" lon="-1.33304">
        <ele>2</ele>
        <time>2018-06-19T15:36:59Z</time>
      </trkpt>
      <trkpt lat="47.30919" lon="-1.33324">
        <ele>2</ele>
        <time>2018-06-19T15:37:04Z</time>
      </trkpt>
      <trkpt lat="47.30892" lon="-1.3336">
        <ele>2</ele>
        <time>2018-06-19T15:37:13Z</time>
      </trkpt>
      <trkpt lat="47.30866" lon="-1.33395">
        <ele>2</ele>
        <time>2018-06-19T15:37:21Z</time>
      </trkpt>
      <trkpt lat="47.30837" lon="-1.33434">
        <ele>2</ele>
        <time>2018-06-19T15:37:30Z</time>
      </trkpt>
      <trkpt lat="47.30816" lon="-1.3347">
        <ele>2</ele>
        <time>2018-06-19T15:37:38Z</time>
      </trkpt>
      <trkpt lat="47.30801" lon="-1.33498">
        <ele>2</ele>
        <time>2018-06-19T15:37:44Z</time>
      </trkpt>
      <trkpt lat="47.30796" lon="-1.33508">
        <ele>2</ele>
        <time>2018-06-19T15:37:46Z</time>
      </trkpt>
      <trkpt lat="47.30775" lon="-1.33546">
        <ele>2</ele>
        <time>2018-06-19T15:37:54Z</time>
      </trkpt>
      <trkpt lat="47.30755" lon="-1.33591">
        <ele>2</ele>
        <time>2018-06-19T15:38:02Z</time>
      </trkpt>
      <trkpt lat="47.3075" lon="-1.33601">
        <ele>2</ele>
        <time>2018-06-19T15:38:04Z</time>
      </trkpt>
      <trkpt lat="47.3074" lon="-1.33618">
        <ele>2</ele>
        <time>2018-06-19T15:38:08Z</time>
      </trkpt>
      <trkpt lat="47.30725" lon="-1.33641">
        <ele>2</ele>
        <time>2018-06-19T15:38:14Z</time>
      </trkpt>
      <trkpt lat="47.30724" lon="-1.33647">
        <ele>2</ele>
        <time>2018-06-19T15:38:15Z</time>
      </trkpt>
      <trkpt lat="47.30719" lon="-1.33667">
        <ele>2</ele>
        <time>2018-06-19T15:38:18Z</time>
      </trkpt>
      <trkpt lat="47.30716" lon="-1.33673">
        <ele>2</ele>
        <time>2018-06-19T15:38:19Z</time>
      </trkpt>
      <trkpt lat="47.30694" lon="-1.33719">
        <ele>2</ele>
        <time>2018-06-19T15:38:27Z</time>
      </trkpt>
      <trkpt lat="47.30671" lon="-1.3374">
        <ele>2</ele>
        <time>2018-06-19T15:38:33Z</time>
      </trkpt>
      <trkpt lat="47.3064" lon="-1.33759">
        <ele>2</ele>
        <time>2018-06-19T15:38:40Z</time>
      </trkpt>
      <trkpt lat="47.30605" lon="-1.33771">
        <ele>2</ele>
        <time>2018-06-19T15:38:47Z</time>
      </trkpt>
      <trkpt lat="47.30561" lon="-1.33788">
        <ele>2</ele>
        <time>2018-06-19T15:38:55Z</time>
      </trkpt>
      <trkpt lat="47.30523" lon="-1.33812">
        <ele>2</ele>
        <time>2018-06-19T15:39:03Z</time>
      </trkpt>
      <trkpt lat="47.30474" lon="-1.33847">
        <ele>2</ele>
        <time>2018-06-19T15:39:13Z</time>
      </trkpt>
      <trkpt lat="47.30444" lon="-1.33877">
        <ele>2</ele>
        <time>2018-06-19T15:39:20Z</time>
      </trkpt>
      <trkpt lat="47.30413" lon="-1.33913">
        <ele>2</ele>
        <time>2018-06-19T15:39:28Z</time>
      </trkpt>
      <trkpt lat="47.30385" lon="-1.33955">
        <ele>2</ele>
        <time>2018-06-19T15:39:36Z</time>
      </trkpt>
      <trkpt lat="47.30378" lon="-1.33964">
        <ele>2</ele>
        <time>2018-06-19T15:39:38Z</time>
      </trkpt>
      <trkpt lat="47.3037" lon="-1.33965">
        <ele>2</ele>
        <time>2018-06-19T15:39:40Z</time>
      </trkpt>
      <trkpt lat="47.30358" lon="-1.33959">
        <ele>1</ele>
        <time>2018-06-19T15:39:44Z</time>
      </trkpt>
      <trkpt lat="47.30348" lon="-1.33941">
        <ele>1</ele>
        <time>2018-06-19T15:39:48Z</time>
      </trkpt>
      <trkpt lat="47.30347" lon="-1.33936">
        <ele>1</ele>
        <time>2018-06-19T15:39:49Z</time>
      </trkpt>
      <trkpt lat="47.30345" lon="-1.33911">
        <ele>1</ele>
        <time>2018-06-19T15:39:54Z</time>
      </trkpt>
      <trkpt lat="47.30352" lon="-1.33879">
        <ele>1</ele>
        <time>2018-06-19T15:40:00Z</time>
      </trkpt>
      <trkpt lat="47.30362" lon="-1.33833">
        <ele>1</ele>
        <time>2018-06-19T15:40:07Z</time>
      </trkpt>
      <trkpt lat="47.30367" lon="-1.33793">
        <ele>1</ele>
        <time>2018-06-19T15:40:13Z</time>
      </trkpt>
      <trkpt lat="47.30368" lon="-1.33779">
        <ele>1</ele>
        <time>2018-06-19T15:40:15Z</time>
      </trkpt>
      <trkpt lat="47.30376" lon="-1.33718">
        <ele>2</ele>
        <time>2018-06-19T15:40:24Z</time>
      </trkpt>
      <trkpt lat="47.30384" lon="-1.3367">
        <ele>2</ele>
        <time>2018-06-19T15:40:31Z</time>
      </trkpt>
      <trkpt lat="47.30384" lon="-1.33664">
        <ele>2</ele>
        <time>2018-06-19T15:40:32Z</time>
      </trkpt>
      <trkpt lat="47.3038" lon="-1.33644">
        <ele>2</ele>
        <time>2018-06-19T15:40:35Z</time>
      </trkpt>
      <trkpt lat="47.30379" lon="-1.33637">
        <ele>2</ele>
        <time>2018-06-19T15:40:36Z</time>
      </trkpt>
      <trkpt lat="47.30383" lon="-1.3361">
        <ele>2</ele>
        <time>2018-06-19T15:40:40Z</time>
      </trkpt>
      <trkpt lat="47.30385" lon="-1.33604">
        <ele>2</ele>
        <time>2018-06-19T15:40:41Z</time>
      </trkpt>
      <trkpt lat="47.30386" lon="-1.33597">
        <ele>2</ele>
        <time>2018-06-19T15:40:42Z</time>
      </trkpt>
      <trkpt lat="47.30388" lon="-1.33583">
        <ele>2</ele>
        <time>2018-06-19T15:40:44Z</time>
      </trkpt>
      <trkpt lat="47.30387" lon="-1.33568">
        <ele>2</ele>
        <time>2018-06-19T15:40:46Z</time>
      </trkpt>
      <trkpt lat="47.30384" lon="-1.33519">
        <ele>2</ele>
        <time>2018-06-19T15:40:53Z</time>
      </trkpt>
      <trkpt lat="47.30383" lon="-1.33512">
        <ele>2</ele>
        <time>2018-06-19T15:40:54Z</time>
      </trkpt>
      <trkpt lat="47.30382" lon="-1.33464">
        <ele>2</ele>
        <time>2018-06-19T15:41:01Z</time>
      </trkpt>
      <trkpt lat="47.3038" lon="-1.33456">
        <ele>2</ele>
        <time>2018-06-19T15:41:02Z</time>
      </trkpt>
      <trkpt lat="47.30376" lon="-1.33435">
        <ele>2</ele>
        <time>2018-06-19T15:41:05Z</time>
      </trkpt>
      <trkpt lat="47.30374" lon="-1.33427">
        <ele>2</ele>
        <time>2018-06-19T15:41:06Z</time>
      </trkpt>
      <trkpt lat="47.30362" lon="-1.33376">
        <ele>1</ele>
        <time>2018-06-19T15:41:13Z</time>
      </trkpt>
      <trkpt lat="47.30364" lon="-1.33341">
        <ele>1</ele>
        <time>2018-06-19T15:41:18Z</time>
      </trkpt>
      <trkpt lat="47.30372" lon="-1.33323">
        <ele>1</ele>
        <time>2018-06-19T15:41:21Z</time>
      </trkpt>
      <trkpt lat="47.30377" lon="-1.3331">
        <ele>1</ele>
        <time>2018-06-19T15:41:23Z</time>
      </trkpt>
      <trkpt lat="47.30379" lon="-1.33304">
        <ele>1</ele>
        <time>2018-06-19T15:41:24Z</time>
      </trkpt>
      <trkpt lat="47.30392" lon="-1.33264">
        <ele>1</ele>
        <time>2018-06-19T15:41:30Z</time>
      </trkpt>
      <trkpt lat="47.30412" lon="-1.33214">
        <ele>1</ele>
        <time>2018-06-19T15:41:38Z</time>
      </trkpt>
      <trkpt lat="47.30428" lon="-1.33184">
        <ele>1</ele>
        <time>2018-06-19T15:41:43Z</time>
      </trkpt>
      <trkpt lat="47.30437" lon="-1.33168">
        <ele>1</ele>
        <time>2018-06-19T15:41:46Z</time>
      </trkpt>
      <trkpt lat="47.30448" lon="-1.33158">
        <ele>1</ele>
        <time>2018-06-19T15:41:49Z</time>
      </trkpt>
      <trkpt lat="47.30453" lon="-1.33154">
        <ele>1</ele>
        <time>2018-06-19T15:41:50Z</time>
      </trkpt>
      <trkpt lat="47.30477" lon="-1.33133">
        <ele>1</ele>
        <time>2018-06-19T15:41:56Z</time>
      </trkpt>
      <trkpt lat="47.30482" lon="-1.33127">
        <ele>1</ele>
        <time>2018-06-19T15:41:57Z</time>
      </trkpt>
      <trkpt lat="47.30504" lon="-1.33102">
        <ele>2</ele>
        <time>2018-06-19T15:42:03Z</time>
      </trkpt>
      <trkpt lat="47.30514" lon="-1.33093">
        <ele>2</ele>
        <time>2018-06-19T15:42:06Z</time>
      </trkpt>
      <trkpt lat="47.30521" lon="-1.33082">
        <ele>3</ele>
        <time>2018-06-19T15:42:09Z</time>
      </trkpt>
      <trkpt lat="47.30521" lon="-1.33077">
        <ele>3</ele>
        <time>2018-06-19T15:42:10Z</time>
      </trkpt>
      <trkpt lat="47.3052" lon="-1.33073">
        <ele>3</ele>
        <time>2018-06-19T15:42:11Z</time>
      </trkpt>
      <trkpt lat="47.30513" lon="-1.33063">
        <ele>4</ele>
        <time>2018-06-19T15:42:14Z</time>
      </trkpt>
      <trkpt lat="47.30511" lon="-1.3306">
        <ele>4</ele>
        <time>2018-06-19T15:42:15Z</time>
      </trkpt>
      <trkpt lat="47.30508" lon="-1.33057">
        <ele>4</ele>
        <time>2018-06-19T15:42:16Z</time>
      </trkpt>
      <trkpt lat="47.305" lon="-1.33033">
        <ele>5</ele>
        <time>2018-06-19T15:42:22Z</time>
      </trkpt>
      <trkpt lat="47.305" lon="-1.3303">
        <ele>5</ele>
        <time>2018-06-19T15:42:23Z</time>
      </trkpt>
      <trkpt lat="47.305" lon="-1.33018">
        <ele>6</ele>
        <time>2018-06-19T15:42:27Z</time>
      </trkpt>
      <trkpt lat="47.30495" lon="-1.3301">
        <ele>7</ele>
        <time>2018-06-19T15:42:30Z</time>
      </trkpt>
      <trkpt lat="47.30493" lon="-1.33007">
        <ele>7</ele>
        <time>2018-06-19T15:42:31Z</time>
      </trkpt>
      <trkpt lat="47.30478" lon="-1.32988">
        <ele>8</ele>
        <time>2018-06-19T15:42:37Z</time>
      </trkpt>
      <trkpt lat="47.30473" lon="-1.32979">
        <ele>8</ele>
        <time>2018-06-19T15:42:40Z</time>
      </trkpt>
      <trkpt lat="47.30458" lon="-1.32969">
        <ele>8</ele>
        <time>2018-06-19T15:42:45Z</time>
      </trkpt>
      <trkpt lat="47.30441" lon="-1.3295">
        <ele>7</ele>
        <time>2018-06-19T15:42:51Z</time>
      </trkpt>
      <trkpt lat="47.30438" lon="-1.3294">
        <ele>7</ele>
        <time>2018-06-19T15:42:54Z</time>
      </trkpt>
      <trkpt lat="47.30436" lon="-1.32936">
        <ele>7</ele>
        <time>2018-06-19T15:42:56Z</time>
      </trkpt>
      <trkpt lat="47.30427" lon="-1.32923">
        <ele>8</ele>
        <time>2018-06-19T15:43:01Z</time>
      </trkpt>
      <trkpt lat="47.30414" lon="-1.32913">
        <ele>8</ele>
        <time>2018-06-19T15:43:06Z</time>
      </trkpt>
      <trkpt lat="47.30399" lon="-1.32906">
        <ele>6</ele>
        <time>2018-06-19T15:43:11Z</time>
      </trkpt>
      <trkpt lat="47.30396" lon="-1.32903">
        <ele>5</ele>
        <time>2018-06-19T15:43:12Z</time>
      </trkpt>
      <trkpt lat="47.30394" lon="-1.32898">
        <ele>5</ele>
        <time>2018-06-19T15:43:13Z</time>
      </trkpt>
      <trkpt lat="47.30392" lon="-1.32893">
        <ele>4</ele>
        <time>2018-06-19T15:43:14Z</time>
      </trkpt>
      <trkpt lat="47.30388" lon="-1.32883">
        <ele>4</ele>
        <time>2018-06-19T15:43:16Z</time>
      </trkpt>
      <trkpt lat="47.30379" lon="-1.3286">
        <ele>3</ele>
        <time>2018-06-19T15:43:20Z</time>
      </trkpt>
      <trkpt lat="47.30373" lon="-1.32844">
        <ele>3</ele>
        <time>2018-06-19T15:43:23Z</time>
      </trkpt>
      <trkpt lat="47.30361" lon="-1.32813">
        <ele>3</ele>
        <time>2018-06-19T15:43:29Z</time>
      </trkpt>
      <trkpt lat="47.30349" lon="-1.32795">
        <ele>2</ele>
        <time>2018-06-19T15:43:33Z</time>
      </trkpt>
      <trkpt lat="47.30346" lon="-1.3279">
        <ele>2</ele>
        <time>2018-06-19T15:43:34Z</time>
      </trkpt>
      <trkpt lat="47.30343" lon="-1.3278">
        <ele>1</ele>
        <time>2018-06-19T15:43:36Z</time>
      </trkpt>
      <trkpt lat="47.30341" lon="-1.32759">
        <ele>1</ele>
        <time>2018-06-19T15:43:39Z</time>
      </trkpt>
      <trkpt lat="47.30344" lon="-1.3272">
        <ele>8.4</ele>
        <time>2018-06-19T15:43:45Z</time>
      </trkpt>
      <trkpt lat="47.30341" lon="-1.32675">
        <ele>7.5</ele>
        <time>2018-06-19T15:43:52Z</time>
      </trkpt>
      <trkpt lat="47.30341" lon="-1.32654">
        <ele>7.3</ele>
        <time>2018-06-19T15:43:56Z</time>
      </trkpt>
      <trkpt lat="47.30343" lon="-1.32634">
        <ele>8</ele>
        <time>2018-06-19T15:43:59Z</time>
      </trkpt>
      <trkpt lat="47.30342" lon="-1.3261">
        <ele>8</ele>
        <time>2018-06-19T15:44:04Z</time>
      </trkpt>
      <trkpt lat="47.30341" lon="-1.32556">
        <ele>8.4</ele>
        <time>2018-06-19T15:44:34Z</time>
      </trkpt>
      <trkpt lat="47.30338" lon="-1.32548">
        <ele>7.3</ele>
        <time>2018-06-19T15:44:37Z</time>
      </trkpt>
      <trkpt lat="47.30337" lon="-1.32524">
        <ele>6.2</ele>
        <time>2018-06-19T15:44:43Z</time>
      </trkpt>
      <trkpt lat="47.30336" lon="-1.32489">
        <ele>1</ele>
        <time>2018-06-19T15:44:50Z</time>
      </trkpt>
      <trkpt lat="47.30333" lon="-1.32466">
        <ele>1</ele>
        <time>2018-06-19T15:44:55Z</time>
      </trkpt>
      <trkpt lat="47.30328" lon="-1.32429">
        <ele>1</ele>
        <time>2018-06-19T15:45:02Z</time>
      </trkpt>
      <trkpt lat="47.30322" lon="-1.32396">
        <ele>1</ele>
        <time>2018-06-19T15:45:08Z</time>
      </trkpt>
      <trkpt lat="47.30316" lon="-1.32379">
        <ele>2</ele>
        <time>2018-06-19T15:45:13Z</time>
      </trkpt>
      <trkpt lat="47.30312" lon="-1.32366">
        <ele>2</ele>
        <time>2018-06-19T15:45:16Z</time>
      </trkpt>
      <trkpt lat="47.30313" lon="-1.32356">
        <ele>2</ele>
        <time>2018-06-19T15:45:18Z</time>
      </trkpt>
      <trkpt lat="47.30318" lon="-1.32344">
        <ele>1</ele>
        <time>2018-06-19T15:45:22Z</time>
      </trkpt>
      <trkpt lat="47.30321" lon="-1.32343">
        <ele>1</ele>
        <time>2018-06-19T15:45:24Z</time>
      </trkpt>
      <trkpt lat="47.30322" lon="-1.32342">
        <ele>2</ele>
        <time>2018-06-19T15:45:25Z</time>
      </trkpt>
      <trkpt lat="47.30327" lon="-1.32337">
        <ele>2</ele>
        <time>2018-06-19T15:45:27Z</time>
      </trkpt>
      <trkpt lat="47.3033" lon="-1.32334">
        <ele>2</ele>
        <time>2018-06-19T15:45:28Z</time>
      </trkpt>
      <trkpt lat="47.30351" lon="-1.32316">
        <ele>2</ele>
        <time>2018-06-19T15:45:41Z</time>
      </trkpt>
      <trkpt lat="47.30367" lon="-1.32308">
        <ele>2</ele>
        <time>2018-06-19T15:45:46Z</time>
      </trkpt>
      <trkpt lat="47.30391" lon="-1.32293">
        <ele>2</ele>
        <time>2018-06-19T15:45:52Z</time>
      </trkpt>
      <trkpt lat="47.30411" lon="-1.32287">
        <ele>2</ele>
        <time>2018-06-19T15:45:58Z</time>
      </trkpt>
      <trkpt lat="47.30429" lon="-1.32286">
        <ele>3</ele>
        <time>2018-06-19T15:46:04Z</time>
      </trkpt>
      <trkpt lat="47.30439" lon="-1.32283">
        <ele>4</ele>
        <time>2018-06-19T15:46:07Z</time>
      </trkpt>
      <trkpt lat="47.30468" lon="-1.32277">
        <ele>3</ele>
        <time>2018-06-19T15:46:15Z</time>
      </trkpt>
      <trkpt lat="47.3048" lon="-1.32273">
        <ele>2</ele>
        <time>2018-06-19T15:46:19Z</time>
      </trkpt>
      <trkpt lat="47.30488" lon="-1.32267">
        <ele>2</ele>
        <time>2018-06-19T15:46:22Z</time>
      </trkpt>
      <trkpt lat="47.30508" lon="-1.32253">
        <ele>2</ele>
        <time>2018-06-19T15:46:28Z</time>
      </trkpt>
      <trkpt lat="47.30528" lon="-1.32235">
        <ele>2</ele>
        <time>2018-06-19T15:46:34Z</time>
      </trkpt>
      <trkpt lat="47.30548" lon="-1.32228">
        <ele>2</ele>
        <time>2018-06-19T15:46:41Z</time>
      </trkpt>
      <trkpt lat="47.30555" lon="-1.32223">
        <ele>2</ele>
        <time>2018-06-19T15:46:49Z</time>
      </trkpt>
      <trkpt lat="47.30559" lon="-1.32221">
        <ele>2</ele>
        <time>2018-06-19T15:46:50Z</time>
      </trkpt>
      <trkpt lat="47.30578" lon="-1.32207">
        <ele>1</ele>
        <time>2018-06-19T15:46:55Z</time>
      </trkpt>
      <trkpt lat="47.30602" lon="-1.32187">
        <ele>2</ele>
        <time>2018-06-19T15:47:03Z</time>
      </trkpt>
      <trkpt lat="47.30626" lon="-1.32168">
        <ele>2</ele>
        <time>2018-06-19T15:47:10Z</time>
      </trkpt>
      <trkpt lat="47.30642" lon="-1.32156">
        <ele>3</ele>
        <time>2018-06-19T15:47:16Z</time>
      </trkpt>
      <trkpt lat="47.30644" lon="-1.32154">
        <ele>3</ele>
        <time>2018-06-19T15:47:17Z</time>
      </trkpt>
      <trkpt lat="47.30649" lon="-1.32156">
        <ele>3</ele>
        <time>2018-06-19T15:47:19Z</time>
      </trkpt>
      <trkpt lat="47.30653" lon="-1.3216">
        <ele>4</ele>
        <time>2018-06-19T15:47:21Z</time>
      </trkpt>
      <trkpt lat="47.3066" lon="-1.32168">
        <ele>4</ele>
        <time>2018-06-19T15:47:25Z</time>
      </trkpt>
      <trkpt lat="47.30668" lon="-1.32176">
        <ele>5</ele>
        <time>2018-06-19T15:47:43Z</time>
      </trkpt>
      <trkpt lat="47.30672" lon="-1.32182">
        <ele>5</ele>
        <time>2018-06-19T15:47:47Z</time>
      </trkpt>
      <trkpt lat="47.30679" lon="-1.32191">
        <ele>5</ele>
        <time>2018-06-19T15:47:52Z</time>
      </trkpt>
      <trkpt lat="47.30683" lon="-1.32194">
        <ele>5</ele>
        <time>2018-06-19T15:47:54Z</time>
      </trkpt>
      <trkpt lat="47.30697" lon="-1.32202">
        <ele>6</ele>
        <time>2018-06-19T15:48:02Z</time>
      </trkpt>
      <trkpt lat="47.30702" lon="-1.32207">
        <ele>7</ele>
        <time>2018-06-19T15:48:05Z</time>
      </trkpt>
      <trkpt lat="47.30711" lon="-1.32214">
        <ele>7</ele>
        <time>2018-06-19T15:48:10Z</time>
      </trkpt>
      <trkpt lat="47.3072" lon="-1.32217">
        <ele>8</ele>
        <time>2018-06-19T15:48:15Z</time>
      </trkpt>
      <trkpt lat="47.30725" lon="-1.32218">
        <ele>9</ele>
        <time>2018-06-19T15:48:18Z</time>
      </trkpt>
      <trkpt lat="47.30733" lon="-1.32221">
        <ele>10</ele>
        <time>2018-06-19T15:48:23Z</time>
      </trkpt>
      <trkpt lat="47.30736" lon="-1.32222">
        <ele>10</ele>
        <time>2018-06-19T15:48:25Z</time>
      </trkpt>
      <trkpt lat="47.30741" lon="-1.32224">
        <ele>11</ele>
        <time>2018-06-19T15:48:28Z</time>
      </trkpt>
      <trkpt lat="47.3075" lon="-1.32227">
        <ele>12</ele>
        <time>2018-06-19T15:48:34Z</time>
      </trkpt>
      <trkpt lat="47.30751" lon="-1.32228">
        <ele>12</ele>
        <time>2018-06-19T15:48:35Z</time>
      </trkpt>
      <trkpt lat="47.30759" lon="-1.3223">
        <ele>13</ele>
        <time>2018-06-19T15:48:40Z</time>
      </trkpt>
      <trkpt lat="47.30766" lon="-1.32231">
        <ele>14</ele>
        <time>2018-06-19T15:48:44Z</time>
      </trkpt>
      <trkpt lat="47.30767" lon="-1.32231">
        <ele>14</ele>
        <time>2018-06-19T15:48:45Z</time>
      </trkpt>
      <trkpt lat="47.30773" lon="-1.32233">
        <ele>15</ele>
        <time>2018-06-19T15:48:49Z</time>
      </trkpt>
      <trkpt lat="47.30779" lon="-1.32235">
        <ele>16</ele>
        <time>2018-06-19T15:48:53Z</time>
      </trkpt>
      <trkpt lat="47.30781" lon="-1.32236">
        <ele>17</ele>
        <time>2018-06-19T15:48:55Z</time>
      </trkpt>
      <trkpt lat="47.30784" lon="-1.32237">
        <ele>17</ele>
        <time>2018-06-19T15:48:57Z</time>
      </trkpt>
      <trkpt lat="47.3079" lon="-1.32241">
        <ele>19</ele>
        <time>2018-06-19T15:49:02Z</time>
      </trkpt>
      <trkpt lat="47.30792" lon="-1.32243">
        <ele>19</ele>
        <time>2018-06-19T15:49:04Z</time>
      </trkpt>
      <trkpt lat="47.30795" lon="-1.32245">
        <ele>20</ele>
        <time>2018-06-19T15:49:06Z</time>
      </trkpt>
      <trkpt lat="47.30801" lon="-1.3225">
        <ele>21</ele>
        <time>2018-06-19T15:49:11Z</time>
      </trkpt>
      <trkpt lat="47.30805" lon="-1.32253">
        <ele>22</ele>
        <time>2018-06-19T15:49:14Z</time>
      </trkpt>
      <trkpt lat="47.30807" lon="-1.32254">
        <ele>22</ele>
        <time>2018-06-19T15:49:16Z</time>
      </trkpt>
      <trkpt lat="47.30812" lon="-1.32258">
        <ele>23</ele>
        <time>2018-06-19T15:49:20Z</time>
      </trkpt>
      <trkpt lat="47.30814" lon="-1.32259">
        <ele>23</ele>
        <time>2018-06-19T15:49:21Z</time>
      </trkpt>
      <trkpt lat="47.30819" lon="-1.32266">
        <ele>25</ele>
        <time>2018-06-19T15:49:26Z</time>
      </trkpt>
      <trkpt lat="47.30823" lon="-1.3227">
        <ele>25</ele>
        <time>2018-06-19T15:49:29Z</time>
      </trkpt>
      <trkpt lat="47.30824" lon="-1.32271">
        <ele>26</ele>
        <time>2018-06-19T15:49:30Z</time>
      </trkpt>
      <trkpt lat="47.30831" lon="-1.32278">
        <ele>27</ele>
        <time>2018-06-19T15:49:36Z</time>
      </trkpt>
      <trkpt lat="47.30833" lon="-1.32282">
        <ele>27</ele>
        <time>2018-06-19T15:49:39Z</time>
      </trkpt>
      <trkpt lat="47.30836" lon="-1.32284">
        <ele>28</ele>
        <time>2018-06-19T15:49:41Z</time>
      </trkpt>
      <trkpt lat="47.30843" lon="-1.32293">
        <ele>29</ele>
        <time>2018-06-19T15:49:47Z</time>
      </trkpt>
      <trkpt lat="47.30844" lon="-1.32294">
        <ele>29</ele>
        <time>2018-06-19T15:49:48Z</time>
      </trkpt>
      <trkpt lat="47.30853" lon="-1.32305">
        <ele>30</ele>
        <time>2018-06-19T15:49:54Z</time>
      </trkpt>
      <trkpt lat="47.30855" lon="-1.32306">
        <ele>30</ele>
        <time>2018-06-19T15:49:55Z</time>
      </trkpt>
      <trkpt lat="47.30865" lon="-1.32314">
        <ele>31</ele>
        <time>2018-06-19T15:50:01Z</time>
      </trkpt>
      <trkpt lat="47.30874" lon="-1.32321">
        <ele>32</ele>
        <time>2018-06-19T15:50:06Z</time>
      </trkpt>
      <trkpt lat="47.30886" lon="-1.32322">
        <ele>32</ele>
        <time>2018-06-19T15:50:13Z</time>
      </trkpt>
      <trkpt lat="47.30887" lon="-1.3232">
        <ele>32</ele>
        <time>2018-06-19T15:50:14Z</time>
      </trkpt>
      <trkpt lat="47.3089" lon="-1.32307">
        <ele>33</ele>
        <time>2018-06-19T15:50:19Z</time>
      </trkpt>
      <trkpt lat="47.3089" lon="-1.32302">
        <ele>33</ele>
        <time>2018-06-19T15:50:21Z</time>
      </trkpt>
      <trkpt lat="47.30895" lon="-1.32281">
        <ele>34</ele>
        <time>2018-06-19T15:50:28Z</time>
      </trkpt>
      <trkpt lat="47.30896" lon="-1.32276">
        <ele>34</ele>
        <time>2018-06-19T15:50:30Z</time>
      </trkpt>
      <trkpt lat="47.30897" lon="-1.32273">
        <ele>35</ele>
        <time>2018-06-19T15:50:31Z</time>
      </trkpt>
      <trkpt lat="47.309" lon="-1.32265">
        <ele>35</ele>
        <time>2018-06-19T15:50:34Z</time>
      </trkpt>
      <trkpt lat="47.30902" lon="-1.32256">
        <ele>35</ele>
        <time>2018-06-19T15:50:48Z</time>
      </trkpt>
      <trkpt lat="47.30904" lon="-1.3225">
        <ele>35</ele>
        <time>2018-06-19T15:50:51Z</time>
      </trkpt>
      <trkpt lat="47.30907" lon="-1.32238">
        <ele>36</ele>
        <time>2018-06-19T15:50:56Z</time>
      </trkpt>
      <trkpt lat="47.30903" lon="-1.32222">
        <ele>36</ele>
        <time>2018-06-19T15:51:01Z</time>
      </trkpt>
      <trkpt lat="47.30902" lon="-1.32219">
        <ele>36</ele>
        <time>2018-06-19T15:51:02Z</time>
      </trkpt>
      <trkpt lat="47.30896" lon="-1.32207">
        <ele>37</ele>
        <time>2018-06-19T15:51:07Z</time>
      </trkpt>
      <trkpt lat="47.30895" lon="-1.32205">
        <ele>38</ele>
        <time>2018-06-19T15:51:08Z</time>
      </trkpt>
      <trkpt lat="47.30891" lon="-1.32195">
        <ele>39</ele>
        <time>2018-06-19T15:51:12Z</time>
      </trkpt>
      <trkpt lat="47.30887" lon="-1.32184">
        <ele>39</ele>
        <time>2018-06-19T15:51:16Z</time>
      </trkpt>
      <trkpt lat="47.30886" lon="-1.32178">
        <ele>40</ele>
        <time>2018-06-19T15:51:18Z</time>
      </trkpt>
      <trkpt lat="47.30885" lon="-1.32164">
        <ele>41</ele>
        <time>2018-06-19T15:51:23Z</time>
      </trkpt>
      <trkpt lat="47.30887" lon="-1.32151">
        <ele>42</ele>
        <time>2018-06-19T15:51:28Z</time>
      </trkpt>
      <trkpt lat="47.30891" lon="-1.32141">
        <ele>43</ele>
        <time>2018-06-19T15:51:32Z</time>
      </trkpt>
      <trkpt lat="47.30897" lon="-1.32128">
        <ele>44</ele>
        <time>2018-06-19T15:51:37Z</time>
      </trkpt>
      <trkpt lat="47.30901" lon="-1.3212">
        <ele>45</ele>
        <time>2018-06-19T15:51:40Z</time>
      </trkpt>
      <trkpt lat="47.30906" lon="-1.32112">
        <ele>45</ele>
        <time>2018-06-19T15:51:43Z</time>
      </trkpt>
      <trkpt lat="47.30916" lon="-1.32095">
        <ele>46</ele>
        <time>2018-06-19T15:51:49Z</time>
      </trkpt>
      <trkpt lat="47.30924" lon="-1.32078">
        <ele>48</ele>
        <time>2018-06-19T15:51:55Z</time>
      </trkpt>
      <trkpt lat="47.30927" lon="-1.32072">
        <ele>48</ele>
        <time>2018-06-19T15:51:57Z</time>
      </trkpt>
      <trkpt lat="47.30933" lon="-1.32062">
        <ele>49</ele>
        <time>2018-06-19T15:52:01Z</time>
      </trkpt>
      <trkpt lat="47.30941" lon="-1.3205">
        <ele>50</ele>
        <time>2018-06-19T15:52:06Z</time>
      </trkpt>
      <trkpt lat="47.3095" lon="-1.32043">
        <ele>51</ele>
        <time>2018-06-19T15:52:11Z</time>
      </trkpt>
      <trkpt lat="47.30955" lon="-1.32041">
        <ele>51</ele>
        <time>2018-06-19T15:52:13Z</time>
      </trkpt>
      <trkpt lat="47.30968" lon="-1.32045">
        <ele>52</ele>
        <time>2018-06-19T15:52:18Z</time>
      </trkpt>
      <trkpt lat="47.30971" lon="-1.32047">
        <ele>52</ele>
        <time>2018-06-19T15:52:19Z</time>
      </trkpt>
      <trkpt lat="47.30998" lon="-1.3207">
        <ele>52</ele>
        <time>2018-06-19T15:52:28Z</time>
      </trkpt>
      <trkpt lat="47.31027" lon="-1.321">
        <ele>53</ele>
        <time>2018-06-19T15:52:37Z</time>
      </trkpt>
      <trkpt lat="47.31052" lon="-1.32126">
        <ele>53</ele>
        <time>2018-06-19T15:52:45Z</time>
      </trkpt>
      <trkpt lat="47.31066" lon="-1.32138">
        <ele>53</ele>
        <time>2018-06-19T15:52:49Z</time>
      </trkpt>
      <trkpt lat="47.31079" lon="-1.32148">
        <ele>53</ele>
        <time>2018-06-19T15:52:53Z</time>
      </trkpt>
      <trkpt lat="47.31093" lon="-1.32149">
        <ele>53</ele>
        <time>2018-06-19T15:52:58Z</time>
      </trkpt>
      <trkpt lat="47.31106" lon="-1.32135">
        <ele>54</ele>
        <time>2018-06-19T15:53:03Z</time>
      </trkpt>
      <trkpt lat="47.31111" lon="-1.32127">
        <ele>54</ele>
        <time>2018-06-19T15:53:05Z</time>
      </trkpt>
      <trkpt lat="47.31124" lon="-1.32104">
        <ele>55</ele>
        <time>2018-06-19T15:53:11Z</time>
      </trkpt>
      <trkpt lat="47.31132" lon="-1.32089">
        <ele>55</ele>
        <time>2018-06-19T15:53:15Z</time>
      </trkpt>
      <trkpt lat="47.31141" lon="-1.32076">
        <ele>56</ele>
        <time>2018-06-19T15:53:19Z</time>
      </trkpt>
      <trkpt lat="47.31148" lon="-1.32069">
        <ele>56</ele>
        <time>2018-06-19T15:53:22Z</time>
      </trkpt>
      <trkpt lat="47.31164" lon="-1.32047">
        <ele>56</ele>
        <time>2018-06-19T15:53:29Z</time>
      </trkpt>
      <trkpt lat="47.31177" lon="-1.32041">
        <ele>57</ele>
        <time>2018-06-19T15:53:34Z</time>
      </trkpt>
      <trkpt lat="47.31179" lon="-1.3204">
        <ele>57</ele>
        <time>2018-06-19T15:53:35Z</time>
      </trkpt>
      <trkpt lat="47.31193" lon="-1.32038">
        <ele>58</ele>
        <time>2018-06-19T15:53:42Z</time>
      </trkpt>
      <trkpt lat="47.312" lon="-1.32049">
        <ele>58</ele>
        <time>2018-06-19T15:53:47Z</time>
      </trkpt>
      <trkpt lat="47.3121" lon="-1.32061">
        <ele>58</ele>
        <time>2018-06-19T15:53:52Z</time>
      </trkpt>
      <trkpt lat="47.31215" lon="-1.32069">
        <ele>58</ele>
        <time>2018-06-19T15:53:55Z</time>
      </trkpt>
      <trkpt lat="47.31234" lon="-1.32093">
        <ele>58</ele>
        <time>2018-06-19T15:54:04Z</time>
      </trkpt>
      <trkpt lat="47.31239" lon="-1.321">
        <ele>58</ele>
        <time>2018-06-19T15:54:07Z</time>
      </trkpt>
      <trkpt lat="47.31243" lon="-1.32099">
        <ele>58</ele>
        <time>2018-06-19T15:54:09Z</time>
      </trkpt>
      <trkpt lat="47.31249" lon="-1.32087">
        <ele>58</ele>
        <time>2018-06-19T15:54:14Z</time>
      </trkpt>
      <trkpt lat="47.31251" lon="-1.32085">
        <ele>58</ele>
        <time>2018-06-19T15:54:15Z</time>
      </trkpt>
      <trkpt lat="47.31252" lon="-1.32085">
        <ele>59</ele>
        <time>2018-06-19T15:54:16Z</time>
      </trkpt>
      <trkpt lat="47.31252" lon="-1.32087">
        <ele>59</ele>
        <time>2018-06-19T15:54:17Z</time>
      </trkpt>
      <trkpt lat="47.31252" lon="-1.32089">
        <ele>59</ele>
        <time>2018-06-19T15:54:18Z</time>
      </trkpt>
      <trkpt lat="47.31248" lon="-1.32093">
        <ele>59</ele>
        <time>2018-06-19T15:54:20Z</time>
      </trkpt>
      <trkpt lat="47.31246" lon="-1.32096">
        <ele>59</ele>
        <time>2018-06-19T15:54:21Z</time>
      </trkpt>
      <trkpt lat="47.31237" lon="-1.32116">
        <ele>59</ele>
        <time>2018-06-19T15:54:26Z</time>
      </trkpt>
      <trkpt lat="47.31236" lon="-1.32119">
        <ele>59</ele>
        <time>2018-06-19T15:54:27Z</time>
      </trkpt>
      <trkpt lat="47.31238" lon="-1.32125">
        <ele>58</ele>
        <time>2018-06-19T15:54:29Z</time>
      </trkpt>
      <trkpt lat="47.3124" lon="-1.32128">
        <ele>58</ele>
        <time>2018-06-19T15:54:30Z</time>
      </trkpt>
      <trkpt lat="47.3124" lon="-1.32137">
        <ele>58</ele>
        <time>2018-06-19T15:54:33Z</time>
      </trkpt>
      <trkpt lat="47.31246" lon="-1.32148">
        <ele>58</ele>
        <time>2018-06-19T15:54:37Z</time>
      </trkpt>
      <trkpt lat="47.31255" lon="-1.32155">
        <ele>58</ele>
        <time>2018-06-19T15:54:40Z</time>
      </trkpt>
      <trkpt lat="47.31263" lon="-1.32162">
        <ele>57</ele>
        <time>2018-06-19T15:54:43Z</time>
      </trkpt>
      <trkpt lat="47.31267" lon="-1.32163">
        <ele>57</ele>
        <time>2018-06-19T15:54:45Z</time>
      </trkpt>
      <trkpt lat="47.31271" lon="-1.32159">
        <ele>57</ele>
        <time>2018-06-19T15:54:47Z</time>
      </trkpt>
      <trkpt lat="47.31275" lon="-1.32151">
        <ele>57</ele>
        <time>2018-06-19T15:54:49Z</time>
      </trkpt>
      <trkpt lat="47.31286" lon="-1.32127">
        <ele>58</ele>
        <time>2018-06-19T15:54:55Z</time>
      </trkpt>
      <trkpt lat="47.31293" lon="-1.32115">
        <ele>58</ele>
        <time>2018-06-19T15:55:00Z</time>
      </trkpt>
      <trkpt lat="47.31295" lon="-1.32112">
        <ele>58</ele>
        <time>2018-06-19T15:55:05Z</time>
      </trkpt>
      <trkpt lat="47.31297" lon="-1.32112">
        <ele>58</ele>
        <time>2018-06-19T15:55:06Z</time>
      </trkpt>
      <trkpt lat="47.31299" lon="-1.32111">
        <ele>58</ele>
        <time>2018-06-19T15:55:07Z</time>
      </trkpt>
      <trkpt lat="47.31308" lon="-1.32117">
        <ele>58</ele>
        <time>2018-06-19T15:55:11Z</time>
      </trkpt>
      <trkpt lat="47.31311" lon="-1.32121">
        <ele>58</ele>
        <time>2018-06-19T15:55:12Z</time>
      </trkpt>
      <trkpt lat="47.31326" lon="-1.3214">
        <ele>59</ele>
        <time>2018-06-19T15:55:17Z</time>
      </trkpt>
      <trkpt lat="47.31347" lon="-1.32153">
        <ele>59</ele>
        <time>2018-06-19T15:55:23Z</time>
      </trkpt>
      <trkpt lat="47.31354" lon="-1.32156">
        <ele>59</ele>
        <time>2018-06-19T15:55:26Z</time>
      </trkpt>
      <trkpt lat="47.31355" lon="-1.32157">
        <ele>59</ele>
        <time>2018-06-19T15:55:27Z</time>
      </trkpt>
      <trkpt lat="47.31368" lon="-1.32172">
        <ele>58</ele>
        <time>2018-06-19T15:55:32Z</time>
      </trkpt>
      <trkpt lat="47.31393" lon="-1.32197">
        <ele>58</ele>
        <time>2018-06-19T15:55:39Z</time>
      </trkpt>
      <trkpt lat="47.31412" lon="-1.32214">
        <ele>59</ele>
        <time>2018-06-19T15:55:46Z</time>
      </trkpt>
      <trkpt lat="47.31414" lon="-1.32213">
        <ele>59</ele>
        <time>2018-06-19T15:55:47Z</time>
      </trkpt>
      <trkpt lat="47.31417" lon="-1.32208">
        <ele>59</ele>
        <time>2018-06-19T15:55:49Z</time>
      </trkpt>
      <trkpt lat="47.31426" lon="-1.3218">
        <ele>58</ele>
        <time>2018-06-19T15:55:55Z</time>
      </trkpt>
      <trkpt lat="47.31435" lon="-1.3214">
        <ele>58</ele>
        <time>2018-06-19T15:56:02Z</time>
      </trkpt>
      <trkpt lat="47.31438" lon="-1.32128">
        <ele>57</ele>
        <time>2018-06-19T15:56:04Z</time>
      </trkpt>
      <trkpt lat="47.3144" lon="-1.32122">
        <ele>57</ele>
        <time>2018-06-19T15:56:05Z</time>
      </trkpt>
      <trkpt lat="47.31445" lon="-1.32106">
        <ele>56</ele>
        <time>2018-06-19T15:56:08Z</time>
      </trkpt>
      <trkpt lat="47.31452" lon="-1.3209">
        <ele>55</ele>
        <time>2018-06-19T15:56:11Z</time>
      </trkpt>
      <trkpt lat="47.3146" lon="-1.32071">
        <ele>53</ele>
        <time>2018-06-19T15:56:14Z</time>
      </trkpt>
      <trkpt lat="47.31469" lon="-1.32049">
        <ele>52</ele>
        <time>2018-06-19T15:56:17Z</time>
      </trkpt>
      <trkpt lat="47.31472" lon="-1.32042">
        <ele>51</ele>
        <time>2018-06-19T15:56:18Z</time>
      </trkpt>
      <trkpt lat="47.31477" lon="-1.3203">
        <ele>50</ele>
        <time>2018-06-19T15:56:20Z</time>
      </trkpt>
      <trkpt lat="47.31479" lon="-1.32024">
        <ele>49</ele>
        <time>2018-06-19T15:56:21Z</time>
      </trkpt>
      <trkpt lat="47.31481" lon="-1.32019">
        <ele>49</ele>
        <time>2018-06-19T15:56:22Z</time>
      </trkpt>
      <trkpt lat="47.31486" lon="-1.32008">
        <ele>47</ele>
        <time>2018-06-19T15:56:25Z</time>
      </trkpt>
      <trkpt lat="47.31487" lon="-1.32007">
        <ele>47</ele>
        <time>2018-06-19T15:56:26Z</time>
      </trkpt>
      <trkpt lat="47.31491" lon="-1.32009">
        <ele>46</ele>
        <time>2018-06-19T15:56:28Z</time>
      </trkpt>
      <trkpt lat="47.31496" lon="-1.32014">
        <ele>45</ele>
        <time>2018-06-19T15:56:30Z</time>
      </trkpt>
      <trkpt lat="47.31506" lon="-1.32023">
        <ele>45</ele>
        <time>2018-06-19T15:56:33Z</time>
      </trkpt>
      <trkpt lat="47.31514" lon="-1.32031">
        <ele>45</ele>
        <time>2018-06-19T15:56:35Z</time>
      </trkpt>
      <trkpt lat="47.31528" lon="-1.32047">
        <ele>44</ele>
        <time>2018-06-19T15:56:39Z</time>
      </trkpt>
      <trkpt lat="47.31535" lon="-1.32057">
        <ele>44</ele>
        <time>2018-06-19T15:56:41Z</time>
      </trkpt>
      <trkpt lat="47.31539" lon="-1.32062">
        <ele>43</ele>
        <time>2018-06-19T15:56:42Z</time>
      </trkpt>
      <trkpt lat="47.3155" lon="-1.32071">
        <ele>42</ele>
        <time>2018-06-19T15:56:45Z</time>
      </trkpt>
      <trkpt lat="47.31553" lon="-1.32071">
        <ele>41</ele>
        <time>2018-06-19T15:56:46Z</time>
      </trkpt>
      <trkpt lat="47.3156" lon="-1.32068">
        <ele>40</ele>
        <time>2018-06-19T15:56:48Z</time>
      </trkpt>
      <trkpt lat="47.31563" lon="-1.32064">
        <ele>40</ele>
        <time>2018-06-19T15:56:49Z</time>
      </trkpt>
      <trkpt lat="47.31567" lon="-1.32059">
        <ele>40</ele>
        <time>2018-06-19T15:56:50Z</time>
      </trkpt>
      <trkpt lat="47.31571" lon="-1.32053">
        <ele>39</ele>
        <time>2018-06-19T15:56:51Z</time>
      </trkpt>
      <trkpt lat="47.31585" lon="-1.32028">
        <ele>38</ele>
        <time>2018-06-19T15:56:55Z</time>
      </trkpt>
      <trkpt lat="47.31592" lon="-1.32016">
        <ele>37</ele>
        <time>2018-06-19T15:56:57Z</time>
      </trkpt>
      <trkpt lat="47.31595" lon="-1.3201">
        <ele>37</ele>
        <time>2018-06-19T15:56:58Z</time>
      </trkpt>
      <trkpt lat="47.31605" lon="-1.31993">
        <ele>36</ele>
        <time>2018-06-19T15:57:01Z</time>
      </trkpt>
      <trkpt lat="47.31616" lon="-1.31976">
        <ele>35</ele>
        <time>2018-06-19T15:57:04Z</time>
      </trkpt>
      <trkpt lat="47.31619" lon="-1.3197">
        <ele>35</ele>
        <time>2018-06-19T15:57:05Z</time>
      </trkpt>
      <trkpt lat="47.31623" lon="-1.31964">
        <ele>34</ele>
        <time>2018-06-19T15:57:06Z</time>
      </trkpt>
      <trkpt lat="47.3163" lon="-1.31951">
        <ele>33</ele>
        <time>2018-06-19T15:57:08Z</time>
      </trkpt>
      <trkpt lat="47.31637" lon="-1.31939">
        <ele>32</ele>
        <time>2018-06-19T15:57:10Z</time>
      </trkpt>
      <trkpt lat="47.31639" lon="-1.31934">
        <ele>31</ele>
        <time>2018-06-19T15:57:11Z</time>
      </trkpt>
      <trkpt lat="47.31641" lon="-1.31929">
        <ele>30</ele>
        <time>2018-06-19T15:57:12Z</time>
      </trkpt>
      <trkpt lat="47.31643" lon="-1.31919">
        <ele>29</ele>
        <time>2018-06-19T15:57:14Z</time>
      </trkpt>
      <trkpt lat="47.31644" lon="-1.31911">
        <ele>29</ele>
        <time>2018-06-19T15:57:17Z</time>
      </trkpt>
      <trkpt lat="47.31648" lon="-1.31905">
        <ele>28</ele>
        <time>2018-06-19T15:57:20Z</time>
      </trkpt>
      <trkpt lat="47.31651" lon="-1.31905">
        <ele>28</ele>
        <time>2018-06-19T15:57:21Z</time>
      </trkpt>
      <trkpt lat="47.31658" lon="-1.31904">
        <ele>28</ele>
        <time>2018-06-19T15:57:23Z</time>
      </trkpt>
      <trkpt lat="47.31664" lon="-1.31903">
        <ele>27</ele>
        <time>2018-06-19T15:57:25Z</time>
      </trkpt>
      <trkpt lat="47.31667" lon="-1.31902">
        <ele>27</ele>
        <time>2018-06-19T15:57:26Z</time>
      </trkpt>
      <trkpt lat="47.31674" lon="-1.31897">
        <ele>26</ele>
        <time>2018-06-19T15:57:28Z</time>
      </trkpt>
      <trkpt lat="47.3168" lon="-1.3189">
        <ele>24</ele>
        <time>2018-06-19T15:57:30Z</time>
      </trkpt>
      <trkpt lat="47.31683" lon="-1.31886">
        <ele>23</ele>
        <time>2018-06-19T15:57:31Z</time>
      </trkpt>
      <trkpt lat="47.31687" lon="-1.31883">
        <ele>23</ele>
        <time>2018-06-19T15:57:32Z</time>
      </trkpt>
      <trkpt lat="47.31695" lon="-1.3188">
        <ele>22</ele>
        <time>2018-06-19T15:57:34Z</time>
      </trkpt>
      <trkpt lat="47.31699" lon="-1.3188">
        <ele>21</ele>
        <time>2018-06-19T15:57:35Z</time>
      </trkpt>
      <trkpt lat="47.31704" lon="-1.3188">
        <ele>20</ele>
        <time>2018-06-19T15:57:36Z</time>
      </trkpt>
      <trkpt lat="47.31713" lon="-1.31883">
        <ele>19</ele>
        <time>2018-06-19T15:57:38Z</time>
      </trkpt>
      <trkpt lat="47.31721" lon="-1.31888">
        <ele>17</ele>
        <time>2018-06-19T15:57:40Z</time>
      </trkpt>
      <trkpt lat="47.31724" lon="-1.3189">
        <ele>16</ele>
        <time>2018-06-19T15:57:41Z</time>
      </trkpt>
      <trkpt lat="47.31727" lon="-1.31891">
        <ele>15</ele>
        <time>2018-06-19T15:57:42Z</time>
      </trkpt>
      <trkpt lat="47.31731" lon="-1.31894">
        <ele>14</ele>
        <time>2018-06-19T15:57:44Z</time>
      </trkpt>
      <trkpt lat="47.31734" lon="-1.31894">
        <ele>13</ele>
        <time>2018-06-19T15:57:45Z</time>
      </trkpt>
      <trkpt lat="47.31736" lon="-1.31896">
        <ele>13</ele>
        <time>2018-06-19T15:57:46Z</time>
      </trkpt>
      <trkpt lat="47.31743" lon="-1.31901">
        <ele>12</ele>
        <time>2018-06-19T15:57:48Z</time>
      </trkpt>
      <trkpt lat="47.31746" lon="-1.31905">
        <ele>12</ele>
        <time>2018-06-19T15:57:49Z</time>
      </trkpt>
      <trkpt lat="47.31759" lon="-1.31919">
        <ele>11</ele>
        <time>2018-06-19T15:57:52Z</time>
      </trkpt>
      <trkpt lat="47.31764" lon="-1.31923">
        <ele>10</ele>
        <time>2018-06-19T15:57:53Z</time>
      </trkpt>
      <trkpt lat="47.3177" lon="-1.31928">
        <ele>10</ele>
        <time>2018-06-19T15:57:54Z</time>
      </trkpt>
      <trkpt lat="47.31782" lon="-1.31936">
        <ele>9</ele>
        <time>2018-06-19T15:57:56Z</time>
      </trkpt>
      <trkpt lat="47.31795" lon="-1.31943">
        <ele>8</ele>
        <time>2018-06-19T15:57:58Z</time>
      </trkpt>
      <trkpt lat="47.318" lon="-1.31947">
        <ele>7</ele>
        <time>2018-06-19T15:57:59Z</time>
      </trkpt>
      <trkpt lat="47.31809" lon="-1.31951">
        <ele>7</ele>
        <time>2018-06-19T15:58:01Z</time>
      </trkpt>
      <trkpt lat="47.31816" lon="-1.31948">
        <ele>6</ele>
        <time>2018-06-19T15:58:03Z</time>
      </trkpt>
      <trkpt lat="47.3182" lon="-1.31944">
        <ele>6</ele>
        <time>2018-06-19T15:58:04Z</time>
      </trkpt>
      <trkpt lat="47.31825" lon="-1.3193">
        <ele>5</ele>
        <time>2018-06-19T15:58:06Z</time>
      </trkpt>
      <trkpt lat="47.31827" lon="-1.31922">
        <ele>5</ele>
        <time>2018-06-19T15:58:07Z</time>
      </trkpt>
      <trkpt lat="47.31832" lon="-1.31896">
        <ele>4</ele>
        <time>2018-06-19T15:58:10Z</time>
      </trkpt>
      <trkpt lat="47.31836" lon="-1.31878">
        <ele>3</ele>
        <time>2018-06-19T15:58:12Z</time>
      </trkpt>
      <trkpt lat="47.31838" lon="-1.3187">
        <ele>2</ele>
        <time>2018-06-19T15:58:13Z</time>
      </trkpt>
      <trkpt lat="47.31849" lon="-1.31825">
        <ele>2</ele>
        <time>2018-06-19T15:58:19Z</time>
      </trkpt>
      <trkpt lat="47.31857" lon="-1.31773">
        <ele>2</ele>
        <time>2018-06-19T15:58:27Z</time>
      </trkpt>
      <trkpt lat="47.31861" lon="-1.31716">
        <ele>2</ele>
        <time>2018-06-19T15:58:35Z</time>
      </trkpt>
      <trkpt lat="47.31859" lon="-1.31666">
        <ele>2</ele>
        <time>2018-06-19T15:58:42Z</time>
      </trkpt>
      <trkpt lat="47.3186" lon="-1.31658">
        <ele>3</ele>
        <time>2018-06-19T15:58:43Z</time>
      </trkpt>
      <trkpt lat="47.31869" lon="-1.31613">
        <ele>3</ele>
        <time>2018-06-19T15:58:49Z</time>
      </trkpt>
      <trkpt lat="47.3188" lon="-1.31561">
        <ele>3</ele>
        <time>2018-06-19T15:58:56Z</time>
      </trkpt>
      <trkpt lat="47.31892" lon="-1.31499">
        <ele>3</ele>
        <time>2018-06-19T15:59:04Z</time>
      </trkpt>
      <trkpt lat="47.31907" lon="-1.31445">
        <ele>2</ele>
        <time>2018-06-19T15:59:11Z</time>
      </trkpt>
      <trkpt lat="47.31918" lon="-1.31413">
        <ele>2</ele>
        <time>2018-06-19T15:59:16Z</time>
      </trkpt>
      <trkpt lat="47.31922" lon="-1.31402">
        <ele>2</ele>
        <time>2018-06-19T15:59:18Z</time>
      </trkpt>
      <trkpt lat="47.31927" lon="-1.31389">
        <ele>1</ele>
        <time>2018-06-19T15:59:20Z</time>
      </trkpt>
      <trkpt lat="47.31934" lon="-1.31369">
        <ele>1</ele>
        <time>2018-06-19T15:59:23Z</time>
      </trkpt>
      <trkpt lat="47.31954" lon="-1.31317">
        <ele>2</ele>
        <time>2018-06-19T15:59:31Z</time>
      </trkpt>
      <trkpt lat="47.31973" lon="-1.31269">
        <ele>2</ele>
        <time>2018-06-19T15:59:39Z</time>
      </trkpt>
      <trkpt lat="47.31977" lon="-1.31258">
        <ele>2</ele>
        <time>2018-06-19T15:59:41Z</time>
      </trkpt>
      <trkpt lat="47.31991" lon="-1.31229">
        <ele>3</ele>
        <time>2018-06-19T15:59:46Z</time>
      </trkpt>
      <trkpt lat="47.31999" lon="-1.31209">
        <ele>3</ele>
        <time>2018-06-19T15:59:49Z</time>
      </trkpt>
      <trkpt lat="47.32006" lon="-1.31187">
        <ele>3</ele>
        <time>2018-06-19T15:59:52Z</time>
      </trkpt>
      <trkpt lat="47.3202" lon="-1.31128">
        <ele>3</ele>
        <time>2018-06-19T16:00:00Z</time>
      </trkpt>
      <trkpt lat="47.32037" lon="-1.31074">
        <ele>3</ele>
        <time>2018-06-19T16:00:08Z</time>
      </trkpt>
      <trkpt lat="47.32058" lon="-1.31019">
        <ele>3</ele>
        <time>2018-06-19T16:00:16Z</time>
      </trkpt>
      <trkpt lat="47.32073" lon="-1.30977">
        <ele>4</ele>
        <time>2018-06-19T16:00:22Z</time>
      </trkpt>
      <trkpt lat="47.32091" lon="-1.3092">
        <ele>3</ele>
        <time>2018-06-19T16:00:30Z</time>
      </trkpt>
      <trkpt lat="47.32107" lon="-1.30866">
        <ele>3</ele>
        <time>2018-06-19T16:00:38Z</time>
      </trkpt>
      <trkpt lat="47.32118" lon="-1.30815">
        <ele>3</ele>
        <time>2018-06-19T16:00:45Z</time>
      </trkpt>
      <trkpt lat="47.32119" lon="-1.30808">
        <ele>3</ele>
        <time>2018-06-19T16:00:46Z</time>
      </trkpt>
      <trkpt lat="47.3212" lon="-1.30788">
        <ele>3</ele>
        <time>2018-06-19T16:00:49Z</time>
      </trkpt>
      <trkpt lat="47.32127" lon="-1.30752">
        <ele>3</ele>
        <time>2018-06-19T16:00:55Z</time>
      </trkpt>
      <trkpt lat="47.32135" lon="-1.30713">
        <ele>3</ele>
        <time>2018-06-19T16:01:01Z</time>
      </trkpt>
      <trkpt lat="47.32141" lon="-1.30696">
        <ele>3</ele>
        <time>2018-06-19T16:01:04Z</time>
      </trkpt>
      <trkpt lat="47.32148" lon="-1.30685">
        <ele>3</ele>
        <time>2018-06-19T16:01:06Z</time>
      </trkpt>
      <trkpt lat="47.32152" lon="-1.30679">
        <ele>3</ele>
        <time>2018-06-19T16:01:07Z</time>
      </trkpt>
      <trkpt lat="47.32171" lon="-1.30662">
        <ele>3</ele>
        <time>2018-06-19T16:01:11Z</time>
      </trkpt>
      <trkpt lat="47.32176" lon="-1.30658">
        <ele>4</ele>
        <time>2018-06-19T16:01:12Z</time>
      </trkpt>
      <trkpt lat="47.32217" lon="-1.30629">
        <ele>3</ele>
        <time>2018-06-19T16:01:20Z</time>
      </trkpt>
      <trkpt lat="47.32245" lon="-1.30596">
        <ele>3</ele>
        <time>2018-06-19T16:01:27Z</time>
      </trkpt>
      <trkpt lat="47.32266" lon="-1.30557">
        <ele>3</ele>
        <time>2018-06-19T16:01:34Z</time>
      </trkpt>
      <trkpt lat="47.32276" lon="-1.30532">
        <ele>3</ele>
        <time>2018-06-19T16:01:40Z</time>
      </trkpt>
      <trkpt lat="47.3228" lon="-1.30514">
        <ele>3</ele>
        <time>2018-06-19T16:01:46Z</time>
      </trkpt>
      <trkpt lat="47.32277" lon="-1.30511">
        <ele>4</ele>
        <time>2018-06-19T16:01:49Z</time>
      </trkpt>
      <trkpt lat="47.32274" lon="-1.30511">
        <ele>4</ele>
        <time>2018-06-19T16:01:51Z</time>
      </trkpt>
      <trkpt lat="47.32268" lon="-1.30512">
        <ele>4</ele>
        <time>2018-06-19T16:01:54Z</time>
      </trkpt>
      <trkpt lat="47.32262" lon="-1.30513">
        <ele>5</ele>
        <time>2018-06-19T16:01:58Z</time>
      </trkpt>
      <trkpt lat="47.32261" lon="-1.30513">
        <ele>5</ele>
        <time>2018-06-19T16:01:59Z</time>
      </trkpt>
      <trkpt lat="47.32252" lon="-1.30516">
        <ele>7</ele>
        <time>2018-06-19T16:02:05Z</time>
      </trkpt>
      <trkpt lat="47.3225" lon="-1.30516">
        <ele>7</ele>
        <time>2018-06-19T16:02:06Z</time>
      </trkpt>
      <trkpt lat="47.32244" lon="-1.30518">
        <ele>8</ele>
        <time>2018-06-19T16:02:10Z</time>
      </trkpt>
      <trkpt lat="47.32236" lon="-1.30521">
        <ele>9</ele>
        <time>2018-06-19T16:02:15Z</time>
      </trkpt>
      <trkpt lat="47.3223" lon="-1.30524">
        <ele>10</ele>
        <time>2018-06-19T16:02:19Z</time>
      </trkpt>
      <trkpt lat="47.32223" lon="-1.30525">
        <ele>11</ele>
        <time>2018-06-19T16:02:23Z</time>
      </trkpt>
      <trkpt lat="47.32222" lon="-1.30526">
        <ele>11</ele>
        <time>2018-06-19T16:02:24Z</time>
      </trkpt>
      <trkpt lat="47.32216" lon="-1.30529">
        <ele>12</ele>
        <time>2018-06-19T16:02:28Z</time>
      </trkpt>
      <trkpt lat="47.32212" lon="-1.30532">
        <ele>13</ele>
        <time>2018-06-19T16:02:32Z</time>
      </trkpt>
      <trkpt lat="47.3221" lon="-1.30533">
        <ele>14</ele>
        <time>2018-06-19T16:02:33Z</time>
      </trkpt>
      <trkpt lat="47.32204" lon="-1.30536">
        <ele>14</ele>
        <time>2018-06-19T16:02:37Z</time>
      </trkpt>
      <trkpt lat="47.322" lon="-1.30539">
        <ele>15</ele>
        <time>2018-06-19T16:02:40Z</time>
      </trkpt>
      <trkpt lat="47.32196" lon="-1.30543">
        <ele>16</ele>
        <time>2018-06-19T16:02:43Z</time>
      </trkpt>
      <trkpt lat="47.32189" lon="-1.30548">
        <ele>17</ele>
        <time>2018-06-19T16:02:48Z</time>
      </trkpt>
      <trkpt lat="47.32185" lon="-1.30551">
        <ele>17</ele>
        <time>2018-06-19T16:02:50Z</time>
      </trkpt>
      <trkpt lat="47.32178" lon="-1.30554">
        <ele>18</ele>
        <time>2018-06-19T16:02:54Z</time>
      </trkpt>
      <trkpt lat="47.32171" lon="-1.30557">
        <ele>18</ele>
        <time>2018-06-19T16:02:58Z</time>
      </trkpt>
      <trkpt lat="47.32163" lon="-1.30558">
        <ele>19</ele>
        <time>2018-06-19T16:03:03Z</time>
      </trkpt>
      <trkpt lat="47.32159" lon="-1.30558">
        <ele>19</ele>
        <time>2018-06-19T16:03:05Z</time>
      </trkpt>
      <trkpt lat="47.3215" lon="-1.3056">
        <ele>20</ele>
        <time>2018-06-19T16:03:10Z</time>
      </trkpt>
      <trkpt lat="47.32143" lon="-1.30561">
        <ele>21</ele>
        <time>2018-06-19T16:03:14Z</time>
      </trkpt>
      <trkpt lat="47.32138" lon="-1.30561">
        <ele>21</ele>
        <time>2018-06-19T16:03:17Z</time>
      </trkpt>
      <trkpt lat="47.32131" lon="-1.30561">
        <ele>22</ele>
        <time>2018-06-19T16:03:21Z</time>
      </trkpt>
      <trkpt lat="47.32125" lon="-1.30559">
        <ele>22</ele>
        <time>2018-06-19T16:03:24Z</time>
      </trkpt>
      <trkpt lat="47.32116" lon="-1.30553">
        <ele>23</ele>
        <time>2018-06-19T16:03:29Z</time>
      </trkpt>
      <trkpt lat="47.32109" lon="-1.30549">
        <ele>24</ele>
        <time>2018-06-19T16:03:33Z</time>
      </trkpt>
      <trkpt lat="47.32101" lon="-1.30542">
        <ele>24</ele>
        <time>2018-06-19T16:03:38Z</time>
      </trkpt>
      <trkpt lat="47.32095" lon="-1.30535">
        <ele>25</ele>
        <time>2018-06-19T16:03:42Z</time>
      </trkpt>
      <trkpt lat="47.32089" lon="-1.30528">
        <ele>25</ele>
        <time>2018-06-19T16:03:46Z</time>
      </trkpt>
      <trkpt lat="47.32086" lon="-1.30523">
        <ele>26</ele>
        <time>2018-06-19T16:03:48Z</time>
      </trkpt>
      <trkpt lat="47.32078" lon="-1.30508">
        <ele>27</ele>
        <time>2018-06-19T16:03:55Z</time>
      </trkpt>
      <trkpt lat="47.32071" lon="-1.30494">
        <ele>28</ele>
        <time>2018-06-19T16:04:01Z</time>
      </trkpt>
      <trkpt lat="47.32069" lon="-1.30489">
        <ele>28</ele>
        <time>2018-06-19T16:04:03Z</time>
      </trkpt>
      <trkpt lat="47.32064" lon="-1.3048">
        <ele>29</ele>
        <time>2018-06-19T16:04:07Z</time>
      </trkpt>
      <trkpt lat="47.32057" lon="-1.30468">
        <ele>30</ele>
        <time>2018-06-19T16:04:13Z</time>
      </trkpt>
      <trkpt lat="47.32044" lon="-1.30454">
        <ele>31</ele>
        <time>2018-06-19T16:04:21Z</time>
      </trkpt>
      <trkpt lat="47.32042" lon="-1.30453">
        <ele>31</ele>
        <time>2018-06-19T16:04:22Z</time>
      </trkpt>
      <trkpt lat="47.32031" lon="-1.30444">
        <ele>32</ele>
        <time>2018-06-19T16:04:27Z</time>
      </trkpt>
      <trkpt lat="47.32022" lon="-1.30439">
        <ele>32</ele>
        <time>2018-06-19T16:04:32Z</time>
      </trkpt>
      <trkpt lat="47.32016" lon="-1.30436">
        <ele>33</ele>
        <time>2018-06-19T16:04:35Z</time>
      </trkpt>
      <trkpt lat="47.32" lon="-1.30427">
        <ele>34</ele>
        <time>2018-06-19T16:04:43Z</time>
      </trkpt>
      <trkpt lat="47.31998" lon="-1.30426">
        <ele>34</ele>
        <time>2018-06-19T16:04:44Z</time>
      </trkpt>
      <trkpt lat="47.31984" lon="-1.30418">
        <ele>35</ele>
        <time>2018-06-19T16:04:52Z</time>
      </trkpt>
      <trkpt lat="47.3198" lon="-1.30415">
        <ele>35</ele>
        <time>2018-06-19T16:05:09Z</time>
      </trkpt>
      <trkpt lat="47.31976" lon="-1.30413">
        <ele>35</ele>
        <time>2018-06-19T16:05:11Z</time>
      </trkpt>
      <trkpt lat="47.31968" lon="-1.30407">
        <ele>36</ele>
        <time>2018-06-19T16:05:15Z</time>
      </trkpt>
      <trkpt lat="47.31961" lon="-1.30402">
        <ele>36</ele>
        <time>2018-06-19T16:05:18Z</time>
      </trkpt>
      <trkpt lat="47.31954" lon="-1.30397">
        <ele>37</ele>
        <time>2018-06-19T16:05:21Z</time>
      </trkpt>
      <trkpt lat="47.31939" lon="-1.30388">
        <ele>38</ele>
        <time>2018-06-19T16:05:27Z</time>
      </trkpt>
      <trkpt lat="47.31932" lon="-1.30383">
        <ele>38</ele>
        <time>2018-06-19T16:05:30Z</time>
      </trkpt>
      <trkpt lat="47.31924" lon="-1.30378">
        <ele>39</ele>
        <time>2018-06-19T16:05:33Z</time>
      </trkpt>
      <trkpt lat="47.31905" lon="-1.30368">
        <ele>40</ele>
        <time>2018-06-19T16:05:41Z</time>
      </trkpt>
      <trkpt lat="47.31874" lon="-1.30356">
        <ele>41</ele>
        <time>2018-06-19T16:05:52Z</time>
      </trkpt>
      <trkpt lat="47.31848" lon="-1.30351">
        <ele>42</ele>
        <time>2018-06-19T16:06:00Z</time>
      </trkpt>
      <trkpt lat="47.31822" lon="-1.30347">
        <ele>42</ele>
        <time>2018-06-19T16:06:08Z</time>
      </trkpt>
      <trkpt lat="47.31819" lon="-1.30346">
        <ele>42</ele>
        <time>2018-06-19T16:06:09Z</time>
      </trkpt>
      <trkpt lat="47.3179" lon="-1.30339">
        <ele>42</ele>
        <time>2018-06-19T16:06:18Z</time>
      </trkpt>
      <trkpt lat="47.3177" lon="-1.30334">
        <ele>43</ele>
        <time>2018-06-19T16:06:24Z</time>
      </trkpt>
      <trkpt lat="47.31758" lon="-1.3033">
        <ele>43</ele>
        <time>2018-06-19T16:06:28Z</time>
      </trkpt>
      <trkpt lat="47.31732" lon="-1.30322">
        <ele>44</ele>
        <time>2018-06-19T16:06:36Z</time>
      </trkpt>
      <trkpt lat="47.31727" lon="-1.3032">
        <ele>44</ele>
        <time>2018-06-19T16:06:38Z</time>
      </trkpt>
      <trkpt lat="47.31713" lon="-1.30314">
        <ele>45</ele>
        <time>2018-06-19T16:06:43Z</time>
      </trkpt>
      <trkpt lat="47.31704" lon="-1.30311">
        <ele>46</ele>
        <time>2018-06-19T16:06:46Z</time>
      </trkpt>
      <trkpt lat="47.31696" lon="-1.30307">
        <ele>46</ele>
        <time>2018-06-19T16:06:49Z</time>
      </trkpt>
      <trkpt lat="47.31687" lon="-1.30303">
        <ele>47</ele>
        <time>2018-06-19T16:06:53Z</time>
      </trkpt>
      <trkpt lat="47.31682" lon="-1.30301">
        <ele>47</ele>
        <time>2018-06-19T16:06:55Z</time>
      </trkpt>
      <trkpt lat="47.31667" lon="-1.30294">
        <ele>48</ele>
        <time>2018-06-19T16:07:01Z</time>
      </trkpt>
      <trkpt lat="47.31665" lon="-1.30293">
        <ele>49</ele>
        <time>2018-06-19T16:07:02Z</time>
      </trkpt>
      <trkpt lat="47.31653" lon="-1.30286">
        <ele>50</ele>
        <time>2018-06-19T16:07:07Z</time>
      </trkpt>
      <trkpt lat="47.31646" lon="-1.30282">
        <ele>50</ele>
        <time>2018-06-19T16:07:10Z</time>
      </trkpt>
      <trkpt lat="47.31641" lon="-1.30279">
        <ele>51</ele>
        <time>2018-06-19T16:07:12Z</time>
      </trkpt>
      <trkpt lat="47.31627" lon="-1.30272">
        <ele>52</ele>
        <time>2018-06-19T16:07:18Z</time>
      </trkpt>
      <trkpt lat="47.3162" lon="-1.30267">
        <ele>53</ele>
        <time>2018-06-19T16:07:21Z</time>
      </trkpt>
      <trkpt lat="47.31615" lon="-1.30264">
        <ele>53</ele>
        <time>2018-06-19T16:07:23Z</time>
      </trkpt>
      <trkpt lat="47.31613" lon="-1.30263">
        <ele>53</ele>
        <time>2018-06-19T16:07:24Z</time>
      </trkpt>
      <trkpt lat="47.31608" lon="-1.30261">
        <ele>54</ele>
        <time>2018-06-19T16:07:44Z</time>
      </trkpt>
      <trkpt lat="47.31597" lon="-1.30252">
        <ele>54</ele>
        <time>2018-06-19T16:07:49Z</time>
      </trkpt>
      <trkpt lat="47.3158" lon="-1.30246">
        <ele>55</ele>
        <time>2018-06-19T16:07:55Z</time>
      </trkpt>
      <trkpt lat="47.31554" lon="-1.30242">
        <ele>55</ele>
        <time>2018-06-19T16:08:04Z</time>
      </trkpt>
      <trkpt lat="47.31549" lon="-1.30242">
        <ele>55</ele>
        <time>2018-06-19T16:08:06Z</time>
      </trkpt>
      <trkpt lat="47.31535" lon="-1.30239">
        <ele>56</ele>
        <time>2018-06-19T16:08:12Z</time>
      </trkpt>
      <trkpt lat="47.31531" lon="-1.3022">
        <ele>56</ele>
        <time>2018-06-19T16:08:16Z</time>
      </trkpt>
      <trkpt lat="47.31527" lon="-1.30178">
        <ele>56</ele>
        <time>2018-06-19T16:08:24Z</time>
      </trkpt>
      <trkpt lat="47.31523" lon="-1.30147">
        <ele>56</ele>
        <time>2018-06-19T16:08:30Z</time>
      </trkpt>
      <trkpt lat="47.31526" lon="-1.30121">
        <ele>55</ele>
        <time>2018-06-19T16:08:36Z</time>
      </trkpt>
      <trkpt lat="47.31539" lon="-1.30087">
        <ele>55</ele>
        <time>2018-06-19T16:08:43Z</time>
      </trkpt>
      <trkpt lat="47.31544" lon="-1.30068">
        <ele>55</ele>
        <time>2018-06-19T16:08:46Z</time>
      </trkpt>
      <trkpt lat="47.31545" lon="-1.30062">
        <ele>54</ele>
        <time>2018-06-19T16:08:47Z</time>
      </trkpt>
      <trkpt lat="47.31549" lon="-1.30049">
        <ele>54</ele>
        <time>2018-06-19T16:08:49Z</time>
      </trkpt>
      <trkpt lat="47.31562" lon="-1.30036">
        <ele>54</ele>
        <time>2018-06-19T16:08:52Z</time>
      </trkpt>
      <trkpt lat="47.31567" lon="-1.30031">
        <ele>53</ele>
        <time>2018-06-19T16:08:53Z</time>
      </trkpt>
      <trkpt lat="47.31573" lon="-1.30027">
        <ele>53</ele>
        <time>2018-06-19T16:08:54Z</time>
      </trkpt>
      <trkpt lat="47.31597" lon="-1.30009">
        <ele>52</ele>
        <time>2018-06-19T16:08:58Z</time>
      </trkpt>
      <trkpt lat="47.31603" lon="-1.30005">
        <ele>52</ele>
        <time>2018-06-19T16:08:59Z</time>
      </trkpt>
      <trkpt lat="47.31623" lon="-1.29991">
        <ele>50</ele>
        <time>2018-06-19T16:09:02Z</time>
      </trkpt>
      <trkpt lat="47.31636" lon="-1.29981">
        <ele>50</ele>
        <time>2018-06-19T16:09:04Z</time>
      </trkpt>
      <trkpt lat="47.31642" lon="-1.29976">
        <ele>49</ele>
        <time>2018-06-19T16:09:05Z</time>
      </trkpt>
      <trkpt lat="47.31653" lon="-1.29968">
        <ele>48</ele>
        <time>2018-06-19T16:09:07Z</time>
      </trkpt>
      <trkpt lat="47.31667" lon="-1.29957">
        <ele>47</ele>
        <time>2018-06-19T16:09:10Z</time>
      </trkpt>
      <trkpt lat="47.31675" lon="-1.29951">
        <ele>47</ele>
        <time>2018-06-19T16:09:12Z</time>
      </trkpt>
      <trkpt lat="47.31684" lon="-1.2994">
        <ele>47</ele>
        <time>2018-06-19T16:09:15Z</time>
      </trkpt>
      <trkpt lat="47.31698" lon="-1.29924">
        <ele>47</ele>
        <time>2018-06-19T16:09:21Z</time>
      </trkpt>
      <trkpt lat="47.31713" lon="-1.29913">
        <ele>47</ele>
        <time>2018-06-19T16:09:27Z</time>
      </trkpt>
      <trkpt lat="47.31727" lon="-1.29889">
        <ele>48</ele>
        <time>2018-06-19T16:09:34Z</time>
      </trkpt>
      <trkpt lat="47.31735" lon="-1.29868">
        <ele>48</ele>
        <time>2018-06-19T16:09:40Z</time>
      </trkpt>
      <trkpt lat="47.31744" lon="-1.29836">
        <ele>48</ele>
        <time>2018-06-19T16:09:48Z</time>
      </trkpt>
      <trkpt lat="47.31747" lon="-1.29819">
        <ele>48</ele>
        <time>2018-06-19T16:09:52Z</time>
      </trkpt>
      <trkpt lat="47.31749" lon="-1.29801">
        <ele>48</ele>
        <time>2018-06-19T16:09:57Z</time>
      </trkpt>
      <trkpt lat="47.31752" lon="-1.29776">
        <ele>49</ele>
        <time>2018-06-19T16:10:05Z</time>
      </trkpt>
      <trkpt lat="47.31755" lon="-1.29764">
        <ele>49</ele>
        <time>2018-06-19T16:10:09Z</time>
      </trkpt>
      <trkpt lat="47.31758" lon="-1.2975">
        <ele>49</ele>
        <time>2018-06-19T16:10:13Z</time>
      </trkpt>
      <trkpt lat="47.31765" lon="-1.29715">
        <ele>50</ele>
        <time>2018-06-19T16:10:22Z</time>
      </trkpt>
      <trkpt lat="47.31767" lon="-1.29707">
        <ele>50</ele>
        <time>2018-06-19T16:10:24Z</time>
      </trkpt>
      <trkpt lat="47.31772" lon="-1.29684">
        <ele>50</ele>
        <time>2018-06-19T16:10:30Z</time>
      </trkpt>
      <trkpt lat="47.31781" lon="-1.29659">
        <ele>51</ele>
        <time>2018-06-19T16:10:37Z</time>
      </trkpt>
      <trkpt lat="47.31782" lon="-1.29646">
        <ele>51</ele>
        <time>2018-06-19T16:10:40Z</time>
      </trkpt>
      <trkpt lat="47.31784" lon="-1.29633">
        <ele>51</ele>
        <time>2018-06-19T16:10:43Z</time>
      </trkpt>
      <trkpt lat="47.31792" lon="-1.29604">
        <ele>52</ele>
        <time>2018-06-19T16:10:50Z</time>
      </trkpt>
      <trkpt lat="47.31794" lon="-1.29596">
        <ele>52</ele>
        <time>2018-06-19T16:10:52Z</time>
      </trkpt>
      <trkpt lat="47.31803" lon="-1.29574">
        <ele>53</ele>
        <time>2018-06-19T16:10:57Z</time>
      </trkpt>
      <trkpt lat="47.31818" lon="-1.2954">
        <ele>53</ele>
        <time>2018-06-19T16:11:04Z</time>
      </trkpt>
      <trkpt lat="47.31828" lon="-1.2952">
        <ele>53</ele>
        <time>2018-06-19T16:11:08Z</time>
      </trkpt>
      <trkpt lat="47.31838" lon="-1.295">
        <ele>54</ele>
        <time>2018-06-19T16:11:12Z</time>
      </trkpt>
      <trkpt lat="47.31859" lon="-1.29458">
        <ele>54</ele>
        <time>2018-06-19T16:11:20Z</time>
      </trkpt>
      <trkpt lat="47.31877" lon="-1.29414">
        <ele>53</ele>
        <time>2018-06-19T16:11:28Z</time>
      </trkpt>
      <trkpt lat="47.31891" lon="-1.29377">
        <ele>53</ele>
        <time>2018-06-19T16:11:36Z</time>
      </trkpt>
      <trkpt lat="47.31898" lon="-1.29341">
        <ele>53</ele>
        <time>2018-06-19T16:11:43Z</time>
      </trkpt>
      <trkpt lat="47.31903" lon="-1.29306">
        <ele>53</ele>
        <time>2018-06-19T16:11:50Z</time>
      </trkpt>
      <trkpt lat="47.31913" lon="-1.29262">
        <ele>54</ele>
        <time>2018-06-19T16:11:58Z</time>
      </trkpt>
      <trkpt lat="47.31925" lon="-1.29216">
        <ele>54</ele>
        <time>2018-06-19T16:12:07Z</time>
      </trkpt>
      <trkpt lat="47.31928" lon="-1.292">
        <ele>54</ele>
        <time>2018-06-19T16:12:10Z</time>
      </trkpt>
      <trkpt lat="47.3193" lon="-1.29175">
        <ele>55</ele>
        <time>2018-06-19T16:12:15Z</time>
      </trkpt>
      <trkpt lat="47.31932" lon="-1.29126">
        <ele>55</ele>
        <time>2018-06-19T16:12:24Z</time>
      </trkpt>
      <trkpt lat="47.31934" lon="-1.2911">
        <ele>55</ele>
        <time>2018-06-19T16:12:27Z</time>
      </trkpt>
      <trkpt lat="47.31939" lon="-1.29085">
        <ele>56</ele>
        <time>2018-06-19T16:12:32Z</time>
      </trkpt>
      <trkpt lat="47.31945" lon="-1.29066">
        <ele>56</ele>
        <time>2018-06-19T16:12:36Z</time>
      </trkpt>
      <trkpt lat="47.31951" lon="-1.2905">
        <ele>57</ele>
        <time>2018-06-19T16:12:40Z</time>
      </trkpt>
      <trkpt lat="47.31957" lon="-1.29033">
        <ele>58</ele>
        <time>2018-06-19T16:12:44Z</time>
      </trkpt>
      <trkpt lat="47.31967" lon="-1.29009">
        <ele>59</ele>
        <time>2018-06-19T16:12:50Z</time>
      </trkpt>
      <trkpt lat="47.31968" lon="-1.29006">
        <ele>59</ele>
        <time>2018-06-19T16:12:51Z</time>
      </trkpt>
      <trkpt lat="47.31976" lon="-1.28985">
        <ele>60</ele>
        <time>2018-06-19T16:12:57Z</time>
      </trkpt>
      <trkpt lat="47.31978" lon="-1.28982">
        <ele>60</ele>
        <time>2018-06-19T16:12:58Z</time>
      </trkpt>
      <trkpt lat="47.31992" lon="-1.28966">
        <ele>60</ele>
        <time>2018-06-19T16:13:04Z</time>
      </trkpt>
      <trkpt lat="47.3201" lon="-1.28946">
        <ele>61</ele>
        <time>2018-06-19T16:13:11Z</time>
      </trkpt>
      <trkpt lat="47.32016" lon="-1.2894">
        <ele>61</ele>
        <time>2018-06-19T16:13:13Z</time>
      </trkpt>
      <trkpt lat="47.32038" lon="-1.28919">
        <ele>62</ele>
        <time>2018-06-19T16:13:21Z</time>
      </trkpt>
      <trkpt lat="47.32046" lon="-1.28905">
        <ele>62</ele>
        <time>2018-06-19T16:13:25Z</time>
      </trkpt>
      <trkpt lat="47.3205" lon="-1.28899">
        <ele>62</ele>
        <time>2018-06-19T16:13:27Z</time>
      </trkpt>
      <trkpt lat="47.32069" lon="-1.28876">
        <ele>63</ele>
        <time>2018-06-19T16:13:34Z</time>
      </trkpt>
      <trkpt lat="47.32076" lon="-1.28868">
        <ele>63</ele>
        <time>2018-06-19T16:13:37Z</time>
      </trkpt>
      <trkpt lat="47.32093" lon="-1.28847">
        <ele>64</ele>
        <time>2018-06-19T16:13:44Z</time>
      </trkpt>
      <trkpt lat="47.32095" lon="-1.28844">
        <ele>64</ele>
        <time>2018-06-19T16:13:45Z</time>
      </trkpt>
      <trkpt lat="47.32123" lon="-1.28809">
        <ele>65</ele>
        <time>2018-06-19T16:13:56Z</time>
      </trkpt>
      <trkpt lat="47.32141" lon="-1.28785">
        <ele>67</ele>
        <time>2018-06-19T16:14:03Z</time>
      </trkpt>
      <trkpt lat="47.32146" lon="-1.28779">
        <ele>67</ele>
        <time>2018-06-19T16:14:05Z</time>
      </trkpt>
      <trkpt lat="47.32165" lon="-1.28746">
        <ele>68</ele>
        <time>2018-06-19T16:14:14Z</time>
      </trkpt>
      <trkpt lat="47.32166" lon="-1.28742">
        <ele>68</ele>
        <time>2018-06-19T16:14:15Z</time>
      </trkpt>
      <trkpt lat="47.32182" lon="-1.28708">
        <ele>69</ele>
        <time>2018-06-19T16:14:23Z</time>
      </trkpt>
      <trkpt lat="47.32205" lon="-1.28669">
        <ele>69</ele>
        <time>2018-06-19T16:14:33Z</time>
      </trkpt>
      <trkpt lat="47.32216" lon="-1.28657">
        <ele>70</ele>
        <time>2018-06-19T16:14:37Z</time>
      </trkpt>
      <trkpt lat="47.32225" lon="-1.28652">
        <ele>70</ele>
        <time>2018-06-19T16:14:40Z</time>
      </trkpt>
      <trkpt lat="47.32247" lon="-1.28636">
        <ele>71</ele>
        <time>2018-06-19T16:14:47Z</time>
      </trkpt>
      <trkpt lat="47.32253" lon="-1.28623">
        <ele>71</ele>
        <time>2018-06-19T16:14:50Z</time>
      </trkpt>
      <trkpt lat="47.32255" lon="-1.28612">
        <ele>71</ele>
        <time>2018-06-19T16:14:52Z</time>
      </trkpt>
      <trkpt lat="47.32264" lon="-1.28584">
        <ele>71</ele>
        <time>2018-06-19T16:14:58Z</time>
      </trkpt>
      <trkpt lat="47.32273" lon="-1.28556">
        <ele>72</ele>
        <time>2018-06-19T16:15:04Z</time>
      </trkpt>
      <trkpt lat="47.32279" lon="-1.28537">
        <ele>72</ele>
        <time>2018-06-19T16:15:08Z</time>
      </trkpt>
      <trkpt lat="47.32293" lon="-1.285">
        <ele>72</ele>
        <time>2018-06-19T16:15:16Z</time>
      </trkpt>
      <trkpt lat="47.32302" lon="-1.28473">
        <ele>73</ele>
        <time>2018-06-19T16:15:22Z</time>
      </trkpt>
      <trkpt lat="47.32304" lon="-1.28457">
        <ele>73</ele>
        <time>2018-06-19T16:15:25Z</time>
      </trkpt>
      <trkpt lat="47.32309" lon="-1.28404">
        <ele>74</ele>
        <time>2018-06-19T16:15:35Z</time>
      </trkpt>
      <trkpt lat="47.32314" lon="-1.28384">
        <ele>74</ele>
        <time>2018-06-19T16:15:39Z</time>
      </trkpt>
      <trkpt lat="47.32314" lon="-1.28374">
        <ele>74</ele>
        <time>2018-06-19T16:15:41Z</time>
      </trkpt>
      <trkpt lat="47.32311" lon="-1.28343">
        <ele>74</ele>
        <time>2018-06-19T16:15:47Z</time>
      </trkpt>
      <trkpt lat="47.32314" lon="-1.28319">
        <ele>74</ele>
        <time>2018-06-19T16:15:53Z</time>
      </trkpt>
      <trkpt lat="47.32317" lon="-1.28316">
        <ele>74</ele>
        <time>2018-06-19T16:15:55Z</time>
      </trkpt>
      <trkpt lat="47.3232" lon="-1.28319">
        <ele>74</ele>
        <time>2018-06-19T16:15:57Z</time>
      </trkpt>
      <trkpt lat="47.32335" lon="-1.28331">
        <ele>74</ele>
        <time>2018-06-19T16:16:02Z</time>
      </trkpt>
      <trkpt lat="47.32358" lon="-1.28348">
        <ele>74</ele>
        <time>2018-06-19T16:16:08Z</time>
      </trkpt>
      <trkpt lat="47.32362" lon="-1.28351">
        <ele>74</ele>
        <time>2018-06-19T16:16:09Z</time>
      </trkpt>
      <trkpt lat="47.32391" lon="-1.28374">
        <ele>73</ele>
        <time>2018-06-19T16:16:17Z</time>
      </trkpt>
      <trkpt lat="47.32414" lon="-1.28398">
        <ele>73</ele>
        <time>2018-06-19T16:16:24Z</time>
      </trkpt>
      <trkpt lat="47.32443" lon="-1.28419">
        <ele>73</ele>
        <time>2018-06-19T16:16:31Z</time>
      </trkpt>
      <trkpt lat="47.32448" lon="-1.28422">
        <ele>73</ele>
        <time>2018-06-19T16:16:32Z</time>
      </trkpt>
      <trkpt lat="47.32486" lon="-1.28447">
        <ele>72</ele>
        <time>2018-06-19T16:16:39Z</time>
      </trkpt>
      <trkpt lat="47.32491" lon="-1.28451">
        <ele>71</ele>
        <time>2018-06-19T16:16:40Z</time>
      </trkpt>
      <trkpt lat="47.32516" lon="-1.28478">
        <ele>71</ele>
        <time>2018-06-19T16:16:45Z</time>
      </trkpt>
      <trkpt lat="47.32521" lon="-1.28483">
        <ele>70</ele>
        <time>2018-06-19T16:16:46Z</time>
      </trkpt>
      <trkpt lat="47.32557" lon="-1.28512">
        <ele>70</ele>
        <time>2018-06-19T16:16:53Z</time>
      </trkpt>
      <trkpt lat="47.32571" lon="-1.28509">
        <ele>69</ele>
        <time>2018-06-19T16:16:56Z</time>
      </trkpt>
      <trkpt lat="47.32576" lon="-1.28493">
        <ele>69</ele>
        <time>2018-06-19T16:16:59Z</time>
      </trkpt>
      <trkpt lat="47.32576" lon="-1.28474">
        <ele>69</ele>
        <time>2018-06-19T16:17:02Z</time>
      </trkpt>
      <trkpt lat="47.32576" lon="-1.2846">
        <ele>69</ele>
        <time>2018-06-19T16:17:04Z</time>
      </trkpt>
      <trkpt lat="47.3258" lon="-1.28418">
        <ele>69</ele>
        <time>2018-06-19T16:17:10Z</time>
      </trkpt>
      <trkpt lat="47.32582" lon="-1.28411">
        <ele>69</ele>
        <time>2018-06-19T16:17:11Z</time>
      </trkpt>
      <trkpt lat="47.32584" lon="-1.28404">
        <ele>70</ele>
        <time>2018-06-19T16:17:12Z</time>
      </trkpt>
      <trkpt lat="47.32596" lon="-1.2838">
        <ele>70</ele>
        <time>2018-06-19T16:17:16Z</time>
      </trkpt>
      <trkpt lat="47.32623" lon="-1.28344">
        <ele>70</ele>
        <time>2018-06-19T16:17:23Z</time>
      </trkpt>
      <trkpt lat="47.32654" lon="-1.28321">
        <ele>70</ele>
        <time>2018-06-19T16:17:29Z</time>
      </trkpt>
      <trkpt lat="47.32702" lon="-1.28296">
        <ele>69</ele>
        <time>2018-06-19T16:17:38Z</time>
      </trkpt>
      <trkpt lat="47.32747" lon="-1.28273">
        <ele>68</ele>
        <time>2018-06-19T16:17:47Z</time>
      </trkpt>
      <trkpt lat="47.3276" lon="-1.28265">
        <ele>68</ele>
        <time>2018-06-19T16:17:50Z</time>
      </trkpt>
      <trkpt lat="47.32778" lon="-1.2825">
        <ele>68</ele>
        <time>2018-06-19T16:17:55Z</time>
      </trkpt>
      <trkpt lat="47.32793" lon="-1.2823">
        <ele>68</ele>
        <time>2018-06-19T16:18:01Z</time>
      </trkpt>
      <trkpt lat="47.32803" lon="-1.2822">
        <ele>68</ele>
        <time>2018-06-19T16:18:07Z</time>
      </trkpt>
      <trkpt lat="47.32815" lon="-1.28225">
        <ele>68</ele>
        <time>2018-06-19T16:18:12Z</time>
      </trkpt>
      <trkpt lat="47.32839" lon="-1.28234">
        <ele>68</ele>
        <time>2018-06-19T16:18:18Z</time>
      </trkpt>
      <trkpt lat="47.32873" lon="-1.2825">
        <ele>68</ele>
        <time>2018-06-19T16:18:26Z</time>
      </trkpt>
      <trkpt lat="47.32912" lon="-1.28276">
        <ele>69</ele>
        <time>2018-06-19T16:18:35Z</time>
      </trkpt>
      <trkpt lat="47.32921" lon="-1.28282">
        <ele>68</ele>
        <time>2018-06-19T16:18:37Z</time>
      </trkpt>
      <trkpt lat="47.32934" lon="-1.28291">
        <ele>68</ele>
        <time>2018-06-19T16:18:40Z</time>
      </trkpt>
      <trkpt lat="47.32939" lon="-1.28293">
        <ele>68</ele>
        <time>2018-06-19T16:18:41Z</time>
      </trkpt>
      <trkpt lat="47.32976" lon="-1.28316">
        <ele>68</ele>
        <time>2018-06-19T16:18:49Z</time>
      </trkpt>
      <trkpt lat="47.32999" lon="-1.28333">
        <ele>67</ele>
        <time>2018-06-19T16:18:54Z</time>
      </trkpt>
      <trkpt lat="47.33013" lon="-1.28346">
        <ele>67</ele>
        <time>2018-06-19T16:18:57Z</time>
      </trkpt>
      <trkpt lat="47.33032" lon="-1.28367">
        <ele>66</ele>
        <time>2018-06-19T16:19:01Z</time>
      </trkpt>
      <trkpt lat="47.33045" lon="-1.28385">
        <ele>66</ele>
        <time>2018-06-19T16:19:04Z</time>
      </trkpt>
      <trkpt lat="47.33053" lon="-1.28398">
        <ele>65</ele>
        <time>2018-06-19T16:19:06Z</time>
      </trkpt>
      <trkpt lat="47.3307" lon="-1.28434">
        <ele>64</ele>
        <time>2018-06-19T16:19:11Z</time>
      </trkpt>
      <trkpt lat="47.33092" lon="-1.28472">
        <ele>63</ele>
        <time>2018-06-19T16:19:17Z</time>
      </trkpt>
      <trkpt lat="47.331" lon="-1.28481">
        <ele>63</ele>
        <time>2018-06-19T16:19:19Z</time>
      </trkpt>
      <trkpt lat="47.33112" lon="-1.28492">
        <ele>62</ele>
        <time>2018-06-19T16:19:22Z</time>
      </trkpt>
      <trkpt lat="47.33115" lon="-1.28494">
        <ele>62</ele>
        <time>2018-06-19T16:19:23Z</time>
      </trkpt>
      <trkpt lat="47.33125" lon="-1.28498">
        <ele>60</ele>
        <time>2018-06-19T16:19:27Z</time>
      </trkpt>
      <trkpt lat="47.33133" lon="-1.28489">
        <ele>59</ele>
        <time>2018-06-19T16:19:30Z</time>
      </trkpt>
      <trkpt lat="47.33135" lon="-1.28484">
        <ele>59</ele>
        <time>2018-06-19T16:19:31Z</time>
      </trkpt>
      <trkpt lat="47.33153" lon="-1.28445">
        <ele>59</ele>
        <time>2018-06-19T16:19:38Z</time>
      </trkpt>
      <trkpt lat="47.33175" lon="-1.28398">
        <ele>58</ele>
        <time>2018-06-19T16:19:45Z</time>
      </trkpt>
      <trkpt lat="47.33184" lon="-1.28377">
        <ele>58</ele>
        <time>2018-06-19T16:19:48Z</time>
      </trkpt>
      <trkpt lat="47.33204" lon="-1.28338">
        <ele>57</ele>
        <time>2018-06-19T16:19:54Z</time>
      </trkpt>
      <trkpt lat="47.33208" lon="-1.2833">
        <ele>57</ele>
        <time>2018-06-19T16:19:55Z</time>
      </trkpt>
      <trkpt lat="47.33227" lon="-1.28294">
        <ele>56</ele>
        <time>2018-06-19T16:20:00Z</time>
      </trkpt>
      <trkpt lat="47.33239" lon="-1.28271">
        <ele>55</ele>
        <time>2018-06-19T16:20:03Z</time>
      </trkpt>
      <trkpt lat="47.33247" lon="-1.28255">
        <ele>55</ele>
        <time>2018-06-19T16:20:05Z</time>
      </trkpt>
      <trkpt lat="47.33268" lon="-1.28217">
        <ele>54</ele>
        <time>2018-06-19T16:20:10Z</time>
      </trkpt>
      <trkpt lat="47.33272" lon="-1.2821">
        <ele>53</ele>
        <time>2018-06-19T16:20:11Z</time>
      </trkpt>
      <trkpt lat="47.33292" lon="-1.28176">
        <ele>53</ele>
        <time>2018-06-19T16:20:16Z</time>
      </trkpt>
      <trkpt lat="47.33298" lon="-1.28166">
        <ele>52</ele>
        <time>2018-06-19T16:20:18Z</time>
      </trkpt>
      <trkpt lat="47.33306" lon="-1.28151">
        <ele>52</ele>
        <time>2018-06-19T16:20:21Z</time>
      </trkpt>
      <trkpt lat="47.33315" lon="-1.28134">
        <ele>52</ele>
        <time>2018-06-19T16:20:24Z</time>
      </trkpt>
      <trkpt lat="47.33341" lon="-1.28078">
        <ele>50</ele>
        <time>2018-06-19T16:20:32Z</time>
      </trkpt>
      <trkpt lat="47.3335" lon="-1.28039">
        <ele>49</ele>
        <time>2018-06-19T16:20:37Z</time>
      </trkpt>
      <trkpt lat="47.3335" lon="-1.28033">
        <ele>49</ele>
        <time>2018-06-19T16:20:38Z</time>
      </trkpt>
      <trkpt lat="47.33356" lon="-1.28021">
        <ele>49</ele>
        <time>2018-06-19T16:20:41Z</time>
      </trkpt>
      <trkpt lat="47.33359" lon="-1.28017">
        <ele>48</ele>
        <time>2018-06-19T16:20:42Z</time>
      </trkpt>
      <trkpt lat="47.33362" lon="-1.28013">
        <ele>48</ele>
        <time>2018-06-19T16:20:43Z</time>
      </trkpt>
      <trkpt lat="47.33371" lon="-1.27999">
        <ele>48</ele>
        <time>2018-06-19T16:20:46Z</time>
      </trkpt>
      <trkpt lat="47.33379" lon="-1.27987">
        <ele>47</ele>
        <time>2018-06-19T16:20:49Z</time>
      </trkpt>
      <trkpt lat="47.33388" lon="-1.27978">
        <ele>46</ele>
        <time>2018-06-19T16:20:52Z</time>
      </trkpt>
      <trkpt lat="47.33395" lon="-1.2797">
        <ele>45</ele>
        <time>2018-06-19T16:20:55Z</time>
      </trkpt>
      <trkpt lat="47.334" lon="-1.27964">
        <ele>44</ele>
        <time>2018-06-19T16:20:58Z</time>
      </trkpt>
      <trkpt lat="47.33402" lon="-1.27962">
        <ele>44</ele>
        <time>2018-06-19T16:20:59Z</time>
      </trkpt>
      <trkpt lat="47.33409" lon="-1.27949">
        <ele>43</ele>
        <time>2018-06-19T16:21:03Z</time>
      </trkpt>
      <trkpt lat="47.33411" lon="-1.27946">
        <ele>42</ele>
        <time>2018-06-19T16:21:04Z</time>
      </trkpt>
      <trkpt lat="47.33415" lon="-1.2793">
        <ele>41</ele>
        <time>2018-06-19T16:21:08Z</time>
      </trkpt>
      <trkpt lat="47.33417" lon="-1.27925">
        <ele>40</ele>
        <time>2018-06-19T16:21:10Z</time>
      </trkpt>
      <trkpt lat="47.33419" lon="-1.27916">
        <ele>39</ele>
        <time>2018-06-19T16:21:14Z</time>
      </trkpt>
      <trkpt lat="47.33422" lon="-1.27911">
        <ele>38</ele>
        <time>2018-06-19T16:21:18Z</time>
      </trkpt>
      <trkpt lat="47.33492" lon="-1.27823">
        <ele>20</ele>
        <time>2018-06-19T16:22:41Z</time>
      </trkpt>
      <trkpt lat="47.33496" lon="-1.27819">
        <ele>19</ele>
        <time>2018-06-19T16:22:45Z</time>
      </trkpt>
      <trkpt lat="47.33511" lon="-1.27801">
        <ele>15</ele>
        <time>2018-06-19T16:23:03Z</time>
      </trkpt>
      <trkpt lat="47.3352" lon="-1.27793">
        <ele>15</ele>
        <time>2018-06-19T16:23:06Z</time>
      </trkpt>
      <trkpt lat="47.33533" lon="-1.27779">
        <ele>14</ele>
        <time>2018-06-19T16:23:10Z</time>
      </trkpt>
      <trkpt lat="47.33538" lon="-1.2777">
        <ele>14</ele>
        <time>2018-06-19T16:23:12Z</time>
      </trkpt>
      <trkpt lat="47.3355" lon="-1.27753">
        <ele>14</ele>
        <time>2018-06-19T16:23:17Z</time>
      </trkpt>
      <trkpt lat="47.33555" lon="-1.27748">
        <ele>15</ele>
        <time>2018-06-19T16:23:19Z</time>
      </trkpt>
      <trkpt lat="47.33557" lon="-1.27745">
        <ele>15</ele>
        <time>2018-06-19T16:23:21Z</time>
      </trkpt>
      <trkpt lat="47.33559" lon="-1.2774">
        <ele>16</ele>
        <time>2018-06-19T16:23:24Z</time>
      </trkpt>
      <trkpt lat="47.33563" lon="-1.27723">
        <ele>16</ele>
        <time>2018-06-19T16:23:28Z</time>
      </trkpt>
      <trkpt lat="47.33573" lon="-1.2771">
        <ele>16</ele>
        <time>2018-06-19T16:23:31Z</time>
      </trkpt>
      <trkpt lat="47.33581" lon="-1.27704">
        <ele>15</ele>
        <time>2018-06-19T16:23:33Z</time>
      </trkpt>
      <trkpt lat="47.33594" lon="-1.27701">
        <ele>14</ele>
        <time>2018-06-19T16:23:37Z</time>
      </trkpt>
      <trkpt lat="47.33595" lon="-1.27699">
        <ele>14</ele>
        <time>2018-06-19T16:23:38Z</time>
      </trkpt>
      <trkpt lat="47.33594" lon="-1.27694">
        <ele>14</ele>
        <time>2018-06-19T16:23:43Z</time>
      </trkpt>
      <trkpt lat="47.33588" lon="-1.27679">
        <ele>13</ele>
        <time>2018-06-19T16:23:47Z</time>
      </trkpt>
      <trkpt lat="47.33582" lon="-1.27653">
        <ele>13</ele>
        <time>2018-06-19T16:23:53Z</time>
      </trkpt>
      <trkpt lat="47.33586" lon="-1.27633">
        <ele>14</ele>
        <time>2018-06-19T16:23:57Z</time>
      </trkpt>
      <trkpt lat="47.33588" lon="-1.27629">
        <ele>14</ele>
        <time>2018-06-19T16:23:58Z</time>
      </trkpt>
      <trkpt lat="47.33595" lon="-1.276">
        <ele>15</ele>
        <time>2018-06-19T16:24:05Z</time>
      </trkpt>
      <trkpt lat="47.33604" lon="-1.27563">
        <ele>15</ele>
        <time>2018-06-19T16:24:12Z</time>
      </trkpt>
      <trkpt lat="47.3361" lon="-1.27524">
        <ele>14</ele>
        <time>2018-06-19T16:24:17Z</time>
      </trkpt>
      <trkpt lat="47.3361" lon="-1.27487">
        <ele>14</ele>
        <time>2018-06-19T16:24:23Z</time>
      </trkpt>
      <trkpt lat="47.33604" lon="-1.27466">
        <ele>14</ele>
        <time>2018-06-19T16:24:28Z</time>
      </trkpt>
      <trkpt lat="47.33592" lon="-1.27428">
        <ele>14</ele>
        <time>2018-06-19T16:24:36Z</time>
      </trkpt>
      <trkpt lat="47.33581" lon="-1.27398">
        <ele>15</ele>
        <time>2018-06-19T16:24:43Z</time>
      </trkpt>
      <trkpt lat="47.33569" lon="-1.27371">
        <ele>15</ele>
        <time>2018-06-19T16:24:50Z</time>
      </trkpt>
      <trkpt lat="47.33562" lon="-1.27354">
        <ele>15</ele>
        <time>2018-06-19T16:24:54Z</time>
      </trkpt>
      <trkpt lat="47.33552" lon="-1.27338">
        <ele>16</ele>
        <time>2018-06-19T16:24:59Z</time>
      </trkpt>
      <trkpt lat="47.33528" lon="-1.27308">
        <ele>16</ele>
        <time>2018-06-19T16:25:07Z</time>
      </trkpt>
      <trkpt lat="47.33514" lon="-1.27298">
        <ele>16</ele>
        <time>2018-06-19T16:25:12Z</time>
      </trkpt>
      <trkpt lat="47.33509" lon="-1.27296">
        <ele>16</ele>
        <time>2018-06-19T16:25:14Z</time>
      </trkpt>
      <trkpt lat="47.3349" lon="-1.2729">
        <ele>17</ele>
        <time>2018-06-19T16:25:37Z</time>
      </trkpt>
      <trkpt lat="47.33478" lon="-1.27288">
        <ele>17</ele>
        <time>2018-06-19T16:25:44Z</time>
      </trkpt>
      <trkpt lat="47.33474" lon="-1.27291">
        <ele>17</ele>
        <time>2018-06-19T16:25:46Z</time>
      </trkpt>
      <trkpt lat="47.33469" lon="-1.27295">
        <ele>17</ele>
        <time>2018-06-19T16:25:50Z</time>
      </trkpt>
      <trkpt lat="47.33464" lon="-1.27294">
        <ele>17</ele>
        <time>2018-06-19T16:25:52Z</time>
      </trkpt>
      <trkpt lat="47.33449" lon="-1.27291">
        <ele>18</ele>
        <time>2018-06-19T16:25:58Z</time>
      </trkpt>
      <trkpt lat="47.33433" lon="-1.27283">
        <ele>18</ele>
        <time>2018-06-19T16:26:05Z</time>
      </trkpt>
      <trkpt lat="47.33429" lon="-1.27281">
        <ele>18</ele>
        <time>2018-06-19T16:26:07Z</time>
      </trkpt>
      <trkpt lat="47.3342" lon="-1.27277">
        <ele>19</ele>
        <time>2018-06-19T16:26:11Z</time>
      </trkpt>
      <trkpt lat="47.33403" lon="-1.2727">
        <ele>19</ele>
        <time>2018-06-19T16:26:18Z</time>
      </trkpt>
      <trkpt lat="47.33401" lon="-1.27269">
        <ele>19</ele>
        <time>2018-06-19T16:26:19Z</time>
      </trkpt>
      <trkpt lat="47.33396" lon="-1.27267">
        <ele>19</ele>
        <time>2018-06-19T16:26:21Z</time>
      </trkpt>
      <trkpt lat="47.33391" lon="-1.27264">
        <ele>20</ele>
        <time>2018-06-19T16:26:24Z</time>
      </trkpt>
      <trkpt lat="47.33367" lon="-1.27253">
        <ele>20</ele>
        <time>2018-06-19T16:26:33Z</time>
      </trkpt>
      <trkpt lat="47.33363" lon="-1.27252">
        <ele>20</ele>
        <time>2018-06-19T16:26:34Z</time>
      </trkpt>
      <trkpt lat="47.33348" lon="-1.27247">
        <ele>21</ele>
        <time>2018-06-19T16:26:40Z</time>
      </trkpt>
      <trkpt lat="47.33339" lon="-1.27248">
        <ele>21</ele>
        <time>2018-06-19T16:26:45Z</time>
      </trkpt>
      <trkpt lat="47.33326" lon="-1.2724">
        <ele>23</ele>
        <time>2018-06-19T16:27:08Z</time>
      </trkpt>
      <trkpt lat="47.33319" lon="-1.27238">
        <ele>23</ele>
        <time>2018-06-19T16:27:11Z</time>
      </trkpt>
      <trkpt lat="47.33299" lon="-1.27231">
        <ele>24</ele>
        <time>2018-06-19T16:27:19Z</time>
      </trkpt>
      <trkpt lat="47.33281" lon="-1.2722">
        <ele>24</ele>
        <time>2018-06-19T16:27:27Z</time>
      </trkpt>
      <trkpt lat="47.33269" lon="-1.27211">
        <ele>25</ele>
        <time>2018-06-19T16:27:33Z</time>
      </trkpt>
      <trkpt lat="47.33267" lon="-1.2721">
        <ele>25</ele>
        <time>2018-06-19T16:27:34Z</time>
      </trkpt>
      <trkpt lat="47.33251" lon="-1.27202">
        <ele>26</ele>
        <time>2018-06-19T16:27:41Z</time>
      </trkpt>
      <trkpt lat="47.33248" lon="-1.27201">
        <ele>26</ele>
        <time>2018-06-19T16:27:42Z</time>
      </trkpt>
      <trkpt lat="47.33238" lon="-1.27198">
        <ele>27</ele>
        <time>2018-06-19T16:27:45Z</time>
      </trkpt>
      <trkpt lat="47.3323" lon="-1.27198">
        <ele>27</ele>
        <time>2018-06-19T16:27:48Z</time>
      </trkpt>
      <trkpt lat="47.33162" lon="-1.27321">
        <ele>40</ele>
        <time>2018-06-19T16:29:15Z</time>
      </trkpt>
      <trkpt lat="47.33112" lon="-1.27408">
        <ele>46</ele>
        <time>2018-06-19T16:30:08Z</time>
      </trkpt>
      <trkpt lat="47.33109" lon="-1.27415">
        <ele>47</ele>
        <time>2018-06-19T16:30:12Z</time>
      </trkpt>
      <trkpt lat="47.33106" lon="-1.27418">
        <ele>47</ele>
        <time>2018-06-19T16:30:14Z</time>
      </trkpt>
      <trkpt lat="47.33095" lon="-1.27433">
        <ele>50</ele>
        <time>2018-06-19T16:30:26Z</time>
      </trkpt>
      <trkpt lat="47.33093" lon="-1.27435">
        <ele>50</ele>
        <time>2018-06-19T16:30:27Z</time>
      </trkpt>
      <trkpt lat="47.33076" lon="-1.27456">
        <ele>53</ele>
        <time>2018-06-19T16:30:45Z</time>
      </trkpt>
      <trkpt lat="47.33073" lon="-1.27458">
        <ele>54</ele>
        <time>2018-06-19T16:30:47Z</time>
      </trkpt>
      <trkpt lat="47.33066" lon="-1.27471">
        <ele>54</ele>
        <time>2018-06-19T16:30:55Z</time>
      </trkpt>
      <trkpt lat="47.33051" lon="-1.27495">
        <ele>57</ele>
        <time>2018-06-19T16:31:15Z</time>
      </trkpt>
      <trkpt lat="47.33041" lon="-1.27498">
        <ele>58</ele>
        <time>2018-06-19T16:31:24Z</time>
      </trkpt>
      <trkpt lat="47.33039" lon="-1.27499">
        <ele>58</ele>
        <time>2018-06-19T16:31:25Z</time>
      </trkpt>
      <trkpt lat="47.33034" lon="-1.275">
        <ele>58</ele>
        <time>2018-06-19T16:31:27Z</time>
      </trkpt>
      <trkpt lat="47.33019" lon="-1.27503">
        <ele>58</ele>
        <time>2018-06-19T16:31:32Z</time>
      </trkpt>
      <trkpt lat="47.32997" lon="-1.27506">
        <ele>59</ele>
        <time>2018-06-19T16:31:41Z</time>
      </trkpt>
      <trkpt lat="47.32996" lon="-1.27503">
        <ele>59</ele>
        <time>2018-06-19T16:31:42Z</time>
      </trkpt>
      <trkpt lat="47.32993" lon="-1.2749">
        <ele>60</ele>
        <time>2018-06-19T16:31:45Z</time>
      </trkpt>
      <trkpt lat="47.32992" lon="-1.27486">
        <ele>60</ele>
        <time>2018-06-19T16:31:46Z</time>
      </trkpt>
      <trkpt lat="47.32982" lon="-1.27458">
        <ele>60</ele>
        <time>2018-06-19T16:31:53Z</time>
      </trkpt>
      <trkpt lat="47.3298" lon="-1.27455">
        <ele>60</ele>
        <time>2018-06-19T16:31:54Z</time>
      </trkpt>
      <trkpt lat="47.32966" lon="-1.27436">
        <ele>61</ele>
        <time>2018-06-19T16:32:01Z</time>
      </trkpt>
      <trkpt lat="47.32951" lon="-1.27413">
        <ele>63</ele>
        <time>2018-06-19T16:32:09Z</time>
      </trkpt>
      <trkpt lat="47.32935" lon="-1.27386">
        <ele>64</ele>
        <time>2018-06-19T16:32:17Z</time>
      </trkpt>
      <trkpt lat="47.32933" lon="-1.27382">
        <ele>64</ele>
        <time>2018-06-19T16:32:18Z</time>
      </trkpt>
      <trkpt lat="47.32918" lon="-1.27362">
        <ele>65</ele>
        <time>2018-06-19T16:32:25Z</time>
      </trkpt>
      <trkpt lat="47.32916" lon="-1.27359">
        <ele>65</ele>
        <time>2018-06-19T16:32:26Z</time>
      </trkpt>
      <trkpt lat="47.32903" lon="-1.2734">
        <ele>66</ele>
        <time>2018-06-19T16:32:32Z</time>
      </trkpt>
      <trkpt lat="47.32897" lon="-1.27331">
        <ele>66</ele>
        <time>2018-06-19T16:32:35Z</time>
      </trkpt>
      <trkpt lat="47.32879" lon="-1.27306">
        <ele>67</ele>
        <time>2018-06-19T16:32:43Z</time>
      </trkpt>
      <trkpt lat="47.32873" lon="-1.27298">
        <ele>67</ele>
        <time>2018-06-19T16:32:46Z</time>
      </trkpt>
      <trkpt lat="47.3287" lon="-1.27298">
        <ele>67</ele>
        <time>2018-06-19T16:32:47Z</time>
      </trkpt>
      <trkpt lat="47.32868" lon="-1.27303">
        <ele>67</ele>
        <time>2018-06-19T16:32:49Z</time>
      </trkpt>
      <trkpt lat="47.32867" lon="-1.27309">
        <ele>67</ele>
        <time>2018-06-19T16:32:51Z</time>
      </trkpt>
      <trkpt lat="47.32859" lon="-1.27327">
        <ele>68</ele>
        <time>2018-06-19T16:32:56Z</time>
      </trkpt>
      <trkpt lat="47.32849" lon="-1.27334">
        <ele>68</ele>
        <time>2018-06-19T16:33:00Z</time>
      </trkpt>
      <trkpt lat="47.32847" lon="-1.27333">
        <ele>68</ele>
        <time>2018-06-19T16:33:01Z</time>
      </trkpt>
      <trkpt lat="47.32839" lon="-1.27326">
        <ele>68</ele>
        <time>2018-06-19T16:33:04Z</time>
      </trkpt>
      <trkpt lat="47.32829" lon="-1.27318">
        <ele>69</ele>
        <time>2018-06-19T16:33:08Z</time>
      </trkpt>
      <trkpt lat="47.32821" lon="-1.27312">
        <ele>69</ele>
        <time>2018-06-19T16:33:11Z</time>
      </trkpt>
      <trkpt lat="47.32806" lon="-1.27299">
        <ele>69</ele>
        <time>2018-06-19T16:33:16Z</time>
      </trkpt>
      <trkpt lat="47.32798" lon="-1.27291">
        <ele>70</ele>
        <time>2018-06-19T16:33:19Z</time>
      </trkpt>
      <trkpt lat="47.32786" lon="-1.27279">
        <ele>70</ele>
        <time>2018-06-19T16:33:23Z</time>
      </trkpt>
      <trkpt lat="47.32766" lon="-1.27262">
        <ele>70</ele>
        <time>2018-06-19T16:33:30Z</time>
      </trkpt>
      <trkpt lat="47.32756" lon="-1.27257">
        <ele>70</ele>
        <time>2018-06-19T16:33:33Z</time>
      </trkpt>
      <trkpt lat="47.32743" lon="-1.27258">
        <ele>70</ele>
        <time>2018-06-19T16:33:37Z</time>
      </trkpt>
      <trkpt lat="47.32729" lon="-1.27274">
        <ele>71</ele>
        <time>2018-06-19T16:33:43Z</time>
      </trkpt>
      <trkpt lat="47.32717" lon="-1.27302">
        <ele>72</ele>
        <time>2018-06-19T16:33:50Z</time>
      </trkpt>
      <trkpt lat="47.32706" lon="-1.27312">
        <ele>72</ele>
        <time>2018-06-19T16:33:54Z</time>
      </trkpt>
      <trkpt lat="47.32703" lon="-1.27313">
        <ele>72</ele>
        <time>2018-06-19T16:33:55Z</time>
      </trkpt>
      <trkpt lat="47.32684" lon="-1.27319">
        <ele>73</ele>
        <time>2018-06-19T16:34:01Z</time>
      </trkpt>
      <trkpt lat="47.32678" lon="-1.27321">
        <ele>73</ele>
        <time>2018-06-19T16:34:03Z</time>
      </trkpt>
      <trkpt lat="47.32655" lon="-1.27332">
        <ele>74</ele>
        <time>2018-06-19T16:34:10Z</time>
      </trkpt>
      <trkpt lat="47.32643" lon="-1.2734">
        <ele>74</ele>
        <time>2018-06-19T16:34:14Z</time>
      </trkpt>
      <trkpt lat="47.32635" lon="-1.27345">
        <ele>74</ele>
        <time>2018-06-19T16:34:17Z</time>
      </trkpt>
      <trkpt lat="47.32628" lon="-1.27334">
        <ele>74</ele>
        <time>2018-06-19T16:34:21Z</time>
      </trkpt>
      <trkpt lat="47.32627" lon="-1.27306">
        <ele>74</ele>
        <time>2018-06-19T16:34:26Z</time>
      </trkpt>
      <trkpt lat="47.32629" lon="-1.2726">
        <ele>73</ele>
        <time>2018-06-19T16:34:33Z</time>
      </trkpt>
      <trkpt lat="47.3263" lon="-1.27253">
        <ele>73</ele>
        <time>2018-06-19T16:34:34Z</time>
      </trkpt>
      <trkpt lat="47.32637" lon="-1.27195">
        <ele>72</ele>
        <time>2018-06-19T16:34:43Z</time>
      </trkpt>
      <trkpt lat="47.32638" lon="-1.27184">
        <ele>72</ele>
        <time>2018-06-19T16:34:45Z</time>
      </trkpt>
      <trkpt lat="47.32645" lon="-1.27147">
        <ele>72</ele>
        <time>2018-06-19T16:34:52Z</time>
      </trkpt>
      <trkpt lat="47.32646" lon="-1.27129">
        <ele>72</ele>
        <time>2018-06-19T16:34:56Z</time>
      </trkpt>
      <trkpt lat="47.3264" lon="-1.27122">
        <ele>72</ele>
        <time>2018-06-19T16:34:58Z</time>
      </trkpt>
      <trkpt lat="47.32629" lon="-1.27115">
        <ele>72</ele>
        <time>2018-06-19T16:35:01Z</time>
      </trkpt>
      <trkpt lat="47.32622" lon="-1.27112">
        <ele>72</ele>
        <time>2018-06-19T16:35:03Z</time>
      </trkpt>
      <trkpt lat="47.32594" lon="-1.27103">
        <ele>73</ele>
        <time>2018-06-19T16:35:10Z</time>
      </trkpt>
      <trkpt lat="47.32591" lon="-1.27101">
        <ele>73</ele>
        <time>2018-06-19T16:35:11Z</time>
      </trkpt>
      <trkpt lat="47.32572" lon="-1.27087">
        <ele>74</ele>
        <time>2018-06-19T16:35:17Z</time>
      </trkpt>
      <trkpt lat="47.32558" lon="-1.27075">
        <ele>74</ele>
        <time>2018-06-19T16:35:21Z</time>
      </trkpt>
      <trkpt lat="47.32548" lon="-1.27064">
        <ele>74</ele>
        <time>2018-06-19T16:35:24Z</time>
      </trkpt>
      <trkpt lat="47.32542" lon="-1.27057">
        <ele>74</ele>
        <time>2018-06-19T16:35:26Z</time>
      </trkpt>
      <trkpt lat="47.32519" lon="-1.2703">
        <ele>75</ele>
        <time>2018-06-19T16:35:33Z</time>
      </trkpt>
      <trkpt lat="47.32515" lon="-1.27026">
        <ele>75</ele>
        <time>2018-06-19T16:35:34Z</time>
      </trkpt>
      <trkpt lat="47.32488" lon="-1.27004">
        <ele>76</ele>
        <time>2018-06-19T16:35:41Z</time>
      </trkpt>
      <trkpt lat="47.32456" lon="-1.2699">
        <ele>75</ele>
        <time>2018-06-19T16:35:48Z</time>
      </trkpt>
      <trkpt lat="47.32428" lon="-1.26971">
        <ele>75</ele>
        <time>2018-06-19T16:35:56Z</time>
      </trkpt>
      <trkpt lat="47.32429" lon="-1.26954">
        <ele>75</ele>
        <time>2018-06-19T16:35:59Z</time>
      </trkpt>
      <trkpt lat="47.32434" lon="-1.26937">
        <ele>75</ele>
        <time>2018-06-19T16:36:02Z</time>
      </trkpt>
      <trkpt lat="47.32439" lon="-1.26919">
        <ele>75</ele>
        <time>2018-06-19T16:36:05Z</time>
      </trkpt>
      <trkpt lat="47.32456" lon="-1.26863">
        <ele>76</ele>
        <time>2018-06-19T16:36:15Z</time>
      </trkpt>
      <trkpt lat="47.32455" lon="-1.26858">
        <ele>76</ele>
        <time>2018-06-19T16:36:16Z</time>
      </trkpt>
      <trkpt lat="47.32451" lon="-1.26854">
        <ele>76</ele>
        <time>2018-06-19T16:36:18Z</time>
      </trkpt>
      <trkpt lat="47.32442" lon="-1.26862">
        <ele>76</ele>
        <time>2018-06-19T16:36:21Z</time>
      </trkpt>
      <trkpt lat="47.32439" lon="-1.26866">
        <ele>76</ele>
        <time>2018-06-19T16:36:22Z</time>
      </trkpt>
      <trkpt lat="47.32416" lon="-1.2689">
        <ele>76</ele>
        <time>2018-06-19T16:36:27Z</time>
      </trkpt>
      <trkpt lat="47.32384" lon="-1.26923">
        <ele>76</ele>
        <time>2018-06-19T16:36:34Z</time>
      </trkpt>
      <trkpt lat="47.3237" lon="-1.26933">
        <ele>75</ele>
        <time>2018-06-19T16:36:37Z</time>
      </trkpt>
      <trkpt lat="47.32364" lon="-1.26934">
        <ele>75</ele>
        <time>2018-06-19T16:36:38Z</time>
      </trkpt>
      <trkpt lat="47.32359" lon="-1.26935">
        <ele>75</ele>
        <time>2018-06-19T16:36:39Z</time>
      </trkpt>
      <trkpt lat="47.32336" lon="-1.26931">
        <ele>75</ele>
        <time>2018-06-19T16:36:44Z</time>
      </trkpt>
      <trkpt lat="47.32322" lon="-1.26921">
        <ele>74</ele>
        <time>2018-06-19T16:36:47Z</time>
      </trkpt>
      <trkpt lat="47.32312" lon="-1.26914">
        <ele>74</ele>
        <time>2018-06-19T16:36:49Z</time>
      </trkpt>
      <trkpt lat="47.32272" lon="-1.26889">
        <ele>74</ele>
        <time>2018-06-19T16:36:57Z</time>
      </trkpt>
      <trkpt lat="47.3224" lon="-1.26872">
        <ele>73</ele>
        <time>2018-06-19T16:37:04Z</time>
      </trkpt>
      <trkpt lat="47.32226" lon="-1.26866">
        <ele>73</ele>
        <time>2018-06-19T16:37:07Z</time>
      </trkpt>
      <trkpt lat="47.32207" lon="-1.2686">
        <ele>72</ele>
        <time>2018-06-19T16:37:11Z</time>
      </trkpt>
      <trkpt lat="47.32174" lon="-1.2685">
        <ele>72</ele>
        <time>2018-06-19T16:37:18Z</time>
      </trkpt>
      <trkpt lat="47.32141" lon="-1.26837">
        <ele>73</ele>
        <time>2018-06-19T16:37:25Z</time>
      </trkpt>
      <trkpt lat="47.32099" lon="-1.26824">
        <ele>73</ele>
        <time>2018-06-19T16:37:35Z</time>
      </trkpt>
      <trkpt lat="47.32066" lon="-1.26808">
        <ele>73</ele>
        <time>2018-06-19T16:37:44Z</time>
      </trkpt>
      <trkpt lat="47.32037" lon="-1.26792">
        <ele>74</ele>
        <time>2018-06-19T16:37:52Z</time>
      </trkpt>
      <trkpt lat="47.32034" lon="-1.2679">
        <ele>74</ele>
        <time>2018-06-19T16:37:53Z</time>
      </trkpt>
      <trkpt lat="47.32005" lon="-1.26773">
        <ele>75</ele>
        <time>2018-06-19T16:38:01Z</time>
      </trkpt>
      <trkpt lat="47.31993" lon="-1.26763">
        <ele>75</ele>
        <time>2018-06-19T16:38:05Z</time>
      </trkpt>
      <trkpt lat="47.31973" lon="-1.26748">
        <ele>76</ele>
        <time>2018-06-19T16:38:11Z</time>
      </trkpt>
      <trkpt lat="47.31948" lon="-1.26725">
        <ele>76</ele>
        <time>2018-06-19T16:38:19Z</time>
      </trkpt>
      <trkpt lat="47.3192" lon="-1.26689">
        <ele>76</ele>
        <time>2018-06-19T16:38:28Z</time>
      </trkpt>
      <trkpt lat="47.31912" lon="-1.26678">
        <ele>76</ele>
        <time>2018-06-19T16:38:31Z</time>
      </trkpt>
      <trkpt lat="47.31898" lon="-1.2666">
        <ele>76</ele>
        <time>2018-06-19T16:38:36Z</time>
      </trkpt>
      <trkpt lat="47.31892" lon="-1.26653">
        <ele>76</ele>
        <time>2018-06-19T16:38:38Z</time>
      </trkpt>
      <trkpt lat="47.31866" lon="-1.26621">
        <ele>76</ele>
        <time>2018-06-19T16:38:47Z</time>
      </trkpt>
      <trkpt lat="47.31848" lon="-1.26603">
        <ele>77</ele>
        <time>2018-06-19T16:38:54Z</time>
      </trkpt>
      <trkpt lat="47.31831" lon="-1.26581">
        <ele>77</ele>
        <time>2018-06-19T16:39:00Z</time>
      </trkpt>
      <trkpt lat="47.31827" lon="-1.26566">
        <ele>77</ele>
        <time>2018-06-19T16:39:04Z</time>
      </trkpt>
      <trkpt lat="47.31836" lon="-1.2656">
        <ele>77</ele>
        <time>2018-06-19T16:39:08Z</time>
      </trkpt>
      <trkpt lat="47.31862" lon="-1.26559">
        <ele>77</ele>
        <time>2018-06-19T16:39:15Z</time>
      </trkpt>
      <trkpt lat="47.3189" lon="-1.26558">
        <ele>77</ele>
        <time>2018-06-19T16:39:21Z</time>
      </trkpt>
      <trkpt lat="47.31933" lon="-1.26553">
        <ele>77</ele>
        <time>2018-06-19T16:39:30Z</time>
      </trkpt>
      <trkpt lat="47.31983" lon="-1.26549">
        <ele>77</ele>
        <time>2018-06-19T16:39:39Z</time>
      </trkpt>
      <trkpt lat="47.32037" lon="-1.26546">
        <ele>77</ele>
        <time>2018-06-19T16:39:49Z</time>
      </trkpt>
      <trkpt lat="47.32053" lon="-1.26544">
        <ele>76</ele>
        <time>2018-06-19T16:39:52Z</time>
      </trkpt>
      <trkpt lat="47.32064" lon="-1.26543">
        <ele>76</ele>
        <time>2018-06-19T16:39:54Z</time>
      </trkpt>
      <trkpt lat="47.32086" lon="-1.26539">
        <ele>76</ele>
        <time>2018-06-19T16:39:58Z</time>
      </trkpt>
      <trkpt lat="47.32134" lon="-1.26534">
        <ele>76</ele>
        <time>2018-06-19T16:40:06Z</time>
      </trkpt>
      <trkpt lat="47.32179" lon="-1.26532">
        <ele>76</ele>
        <time>2018-06-19T16:40:14Z</time>
      </trkpt>
      <trkpt lat="47.32208" lon="-1.26531">
        <ele>75</ele>
        <time>2018-06-19T16:40:20Z</time>
      </trkpt>
      <trkpt lat="47.32251" lon="-1.26522">
        <ele>76</ele>
        <time>2018-06-19T16:40:28Z</time>
      </trkpt>
      <trkpt lat="47.32288" lon="-1.2652">
        <ele>76</ele>
        <time>2018-06-19T16:40:35Z</time>
      </trkpt>
      <trkpt lat="47.32338" lon="-1.26518">
        <ele>77</ele>
        <time>2018-06-19T16:40:45Z</time>
      </trkpt>
      <trkpt lat="47.3238" lon="-1.26518">
        <ele>77</ele>
        <time>2018-06-19T16:40:54Z</time>
      </trkpt>
      <trkpt lat="47.32389" lon="-1.26518">
        <ele>77</ele>
        <time>2018-06-19T16:40:56Z</time>
      </trkpt>
      <trkpt lat="47.32424" lon="-1.26518">
        <ele>77</ele>
        <time>2018-06-19T16:41:03Z</time>
      </trkpt>
      <trkpt lat="47.32463" lon="-1.26512">
        <ele>77</ele>
        <time>2018-06-19T16:41:11Z</time>
      </trkpt>
      <trkpt lat="47.32507" lon="-1.26502">
        <ele>76</ele>
        <time>2018-06-19T16:41:20Z</time>
      </trkpt>
      <trkpt lat="47.32516" lon="-1.265">
        <ele>76</ele>
        <time>2018-06-19T16:41:24Z</time>
      </trkpt>
      <trkpt lat="47.32531" lon="-1.265">
        <ele>76</ele>
        <time>2018-06-19T16:41:29Z</time>
      </trkpt>
      <trkpt lat="47.3256" lon="-1.26498">
        <ele>75</ele>
        <time>2018-06-19T16:41:35Z</time>
      </trkpt>
      <trkpt lat="47.32575" lon="-1.26497">
        <ele>75</ele>
        <time>2018-06-19T16:41:38Z</time>
      </trkpt>
      <trkpt lat="47.32606" lon="-1.26494">
        <ele>74</ele>
        <time>2018-06-19T16:41:44Z</time>
      </trkpt>
      <trkpt lat="47.32611" lon="-1.26493">
        <ele>74</ele>
        <time>2018-06-19T16:41:45Z</time>
      </trkpt>
      <trkpt lat="47.32658" lon="-1.26488">
        <ele>73</ele>
        <time>2018-06-19T16:41:54Z</time>
      </trkpt>
      <trkpt lat="47.32663" lon="-1.26487">
        <ele>73</ele>
        <time>2018-06-19T16:41:55Z</time>
      </trkpt>
      <trkpt lat="47.32683" lon="-1.26486">
        <ele>72</ele>
        <time>2018-06-19T16:41:59Z</time>
      </trkpt>
      <trkpt lat="47.3269" lon="-1.26485">
        <ele>72</ele>
        <time>2018-06-19T16:42:01Z</time>
      </trkpt>
      <trkpt lat="47.32696" lon="-1.26486">
        <ele>72</ele>
        <time>2018-06-19T16:42:03Z</time>
      </trkpt>
      <trkpt lat="47.32701" lon="-1.26489">
        <ele>72</ele>
        <time>2018-06-19T16:42:05Z</time>
      </trkpt>
      <trkpt lat="47.32707" lon="-1.2649">
        <ele>71</ele>
        <time>2018-06-19T16:42:07Z</time>
      </trkpt>
      <trkpt lat="47.32719" lon="-1.26487">
        <ele>71</ele>
        <time>2018-06-19T16:42:11Z</time>
      </trkpt>
      <trkpt lat="47.3274" lon="-1.26481">
        <ele>71</ele>
        <time>2018-06-19T16:42:17Z</time>
      </trkpt>
      <trkpt lat="47.32748" lon="-1.26479">
        <ele>71</ele>
        <time>2018-06-19T16:42:19Z</time>
      </trkpt>
      <trkpt lat="47.32765" lon="-1.26474">
        <ele>70</ele>
        <time>2018-06-19T16:42:24Z</time>
      </trkpt>
      <trkpt lat="47.32783" lon="-1.26475">
        <ele>69</ele>
        <time>2018-06-19T16:42:29Z</time>
      </trkpt>
      <trkpt lat="47.32787" lon="-1.26476">
        <ele>69</ele>
        <time>2018-06-19T16:42:30Z</time>
      </trkpt>
      <trkpt lat="47.32795" lon="-1.26475">
        <ele>69</ele>
        <time>2018-06-19T16:42:32Z</time>
      </trkpt>
      <trkpt lat="47.32809" lon="-1.26475">
        <ele>68</ele>
        <time>2018-06-19T16:42:36Z</time>
      </trkpt>
      <trkpt lat="47.32838" lon="-1.26474">
        <ele>68</ele>
        <time>2018-06-19T16:42:43Z</time>
      </trkpt>
      <trkpt lat="47.32846" lon="-1.26474">
        <ele>68</ele>
        <time>2018-06-19T16:42:45Z</time>
      </trkpt>
      <trkpt lat="47.3286" lon="-1.26476">
        <ele>67</ele>
        <time>2018-06-19T16:42:50Z</time>
      </trkpt>
      <trkpt lat="47.32862" lon="-1.26476">
        <ele>66</ele>
        <time>2018-06-19T16:42:57Z</time>
      </trkpt>
      <trkpt lat="47.32867" lon="-1.26476">
        <ele>66</ele>
        <time>2018-06-19T16:42:59Z</time>
      </trkpt>
      <trkpt lat="47.32875" lon="-1.26477">
        <ele>66</ele>
        <time>2018-06-19T16:43:01Z</time>
      </trkpt>
      <trkpt lat="47.32885" lon="-1.2648">
        <ele>66</ele>
        <time>2018-06-19T16:43:03Z</time>
      </trkpt>
      <trkpt lat="47.32912" lon="-1.2649">
        <ele>65</ele>
        <time>2018-06-19T16:43:08Z</time>
      </trkpt>
      <trkpt lat="47.32929" lon="-1.26495">
        <ele>65</ele>
        <time>2018-06-19T16:43:11Z</time>
      </trkpt>
      <trkpt lat="47.3294" lon="-1.26499">
        <ele>64</ele>
        <time>2018-06-19T16:43:13Z</time>
      </trkpt>
      <trkpt lat="47.3296" lon="-1.26507">
        <ele>64</ele>
        <time>2018-06-19T16:43:17Z</time>
      </trkpt>
      <trkpt lat="47.32964" lon="-1.26509">
        <ele>64</ele>
        <time>2018-06-19T16:43:18Z</time>
      </trkpt>
      <trkpt lat="47.32975" lon="-1.26516">
        <ele>63</ele>
        <time>2018-06-19T16:43:21Z</time>
      </trkpt>
      <trkpt lat="47.32984" lon="-1.26517">
        <ele>63</ele>
        <time>2018-06-19T16:43:23Z</time>
      </trkpt>
      <trkpt lat="47.32994" lon="-1.26515">
        <ele>63</ele>
        <time>2018-06-19T16:43:25Z</time>
      </trkpt>
      <trkpt lat="47.33006" lon="-1.26508">
        <ele>62</ele>
        <time>2018-06-19T16:43:28Z</time>
      </trkpt>
      <trkpt lat="47.33009" lon="-1.26505">
        <ele>62</ele>
        <time>2018-06-19T16:43:29Z</time>
      </trkpt>
      <trkpt lat="47.33019" lon="-1.26492">
        <ele>62</ele>
        <time>2018-06-19T16:43:33Z</time>
      </trkpt>
      <trkpt lat="47.33064" lon="-1.26471">
        <ele>57</ele>
        <time>2018-06-19T16:44:30Z</time>
      </trkpt>
      <trkpt lat="47.33073" lon="-1.26467">
        <ele>57</ele>
        <time>2018-06-19T16:44:33Z</time>
      </trkpt>
      <trkpt lat="47.33085" lon="-1.26459">
        <ele>57</ele>
        <time>2018-06-19T16:44:39Z</time>
      </trkpt>
      <trkpt lat="47.33106" lon="-1.26465">
        <ele>59</ele>
        <time>2018-06-19T16:45:12Z</time>
      </trkpt>
      <trkpt lat="47.3311" lon="-1.26467">
        <ele>60</ele>
        <time>2018-06-19T16:45:15Z</time>
      </trkpt>
      <trkpt lat="47.33113" lon="-1.26468">
        <ele>61</ele>
        <time>2018-06-19T16:45:17Z</time>
      </trkpt>
      <trkpt lat="47.33123" lon="-1.26469">
        <ele>62</ele>
        <time>2018-06-19T16:45:22Z</time>
      </trkpt>
      <trkpt lat="47.33131" lon="-1.26471">
        <ele>63</ele>
        <time>2018-06-19T16:45:27Z</time>
      </trkpt>
      <trkpt lat="47.33136" lon="-1.2647">
        <ele>63</ele>
        <time>2018-06-19T16:45:30Z</time>
      </trkpt>
      <trkpt lat="47.33139" lon="-1.26469">
        <ele>64</ele>
        <time>2018-06-19T16:45:32Z</time>
      </trkpt>
      <trkpt lat="47.33144" lon="-1.26469">
        <ele>65</ele>
        <time>2018-06-19T16:45:35Z</time>
      </trkpt>
      <trkpt lat="47.33148" lon="-1.26468">
        <ele>65</ele>
        <time>2018-06-19T16:45:37Z</time>
      </trkpt>
      <trkpt lat="47.33156" lon="-1.26467">
        <ele>66</ele>
        <time>2018-06-19T16:45:41Z</time>
      </trkpt>
      <trkpt lat="47.33163" lon="-1.26466">
        <ele>66</ele>
        <time>2018-06-19T16:45:44Z</time>
      </trkpt>
      <trkpt lat="47.33179" lon="-1.26467">
        <ele>67</ele>
        <time>2018-06-19T16:45:51Z</time>
      </trkpt>
      <trkpt lat="47.33197" lon="-1.26467">
        <ele>67</ele>
        <time>2018-06-19T16:45:58Z</time>
      </trkpt>
      <trkpt lat="47.33206" lon="-1.26456">
        <ele>67</ele>
        <time>2018-06-19T16:46:03Z</time>
      </trkpt>
      <trkpt lat="47.3321" lon="-1.2645">
        <ele>67</ele>
        <time>2018-06-19T16:46:05Z</time>
      </trkpt>
      <trkpt lat="47.33221" lon="-1.26427">
        <ele>68</ele>
        <time>2018-06-19T16:46:12Z</time>
      </trkpt>
      <trkpt lat="47.33228" lon="-1.26406">
        <ele>69</ele>
        <time>2018-06-19T16:46:19Z</time>
      </trkpt>
      <trkpt lat="47.33228" lon="-1.26403">
        <ele>70</ele>
        <time>2018-06-19T16:46:20Z</time>
      </trkpt>
      <trkpt lat="47.33234" lon="-1.26382">
        <ele>70</ele>
        <time>2018-06-19T16:46:26Z</time>
      </trkpt>
      <trkpt lat="47.33237" lon="-1.26375">
        <ele>71</ele>
        <time>2018-06-19T16:46:28Z</time>
      </trkpt>
      <trkpt lat="47.33249" lon="-1.2635">
        <ele>71</ele>
        <time>2018-06-19T16:46:35Z</time>
      </trkpt>
      <trkpt lat="47.3325" lon="-1.26347">
        <ele>71</ele>
        <time>2018-06-19T16:46:36Z</time>
      </trkpt>
      <trkpt lat="47.3326" lon="-1.2633">
        <ele>71</ele>
        <time>2018-06-19T16:46:42Z</time>
      </trkpt>
      <trkpt lat="47.33271" lon="-1.26312">
        <ele>72</ele>
        <time>2018-06-19T16:46:48Z</time>
      </trkpt>
      <trkpt lat="47.33284" lon="-1.26307">
        <ele>72</ele>
        <time>2018-06-19T16:47:17Z</time>
      </trkpt>
      <trkpt lat="47.33289" lon="-1.26309">
        <ele>72</ele>
        <time>2018-06-19T16:47:19Z</time>
      </trkpt>
      <trkpt lat="47.33303" lon="-1.26328">
        <ele>72</ele>
        <time>2018-06-19T16:47:24Z</time>
      </trkpt>
      <trkpt lat="47.33325" lon="-1.26359">
        <ele>72</ele>
        <time>2018-06-19T16:47:33Z</time>
      </trkpt>
      <trkpt lat="47.33352" lon="-1.26397">
        <ele>72</ele>
        <time>2018-06-19T16:47:42Z</time>
      </trkpt>
      <trkpt lat="47.33373" lon="-1.26419">
        <ele>72</ele>
        <time>2018-06-19T16:47:48Z</time>
      </trkpt>
      <trkpt lat="47.33377" lon="-1.2642">
        <ele>72</ele>
        <time>2018-06-19T16:47:49Z</time>
      </trkpt>
      <trkpt lat="47.33394" lon="-1.26414">
        <ele>71</ele>
        <time>2018-06-19T16:47:53Z</time>
      </trkpt>
      <trkpt lat="47.3342" lon="-1.26399">
        <ele>71</ele>
        <time>2018-06-19T16:48:00Z</time>
      </trkpt>
      <trkpt lat="47.33422" lon="-1.26395">
        <ele>71</ele>
        <time>2018-06-19T16:48:01Z</time>
      </trkpt>
      <trkpt lat="47.33424" lon="-1.26387">
        <ele>71</ele>
        <time>2018-06-19T16:48:03Z</time>
      </trkpt>
      <trkpt lat="47.33432" lon="-1.26378">
        <ele>71</ele>
        <time>2018-06-19T16:48:06Z</time>
      </trkpt>
      <trkpt lat="47.33452" lon="-1.26368">
        <ele>72</ele>
        <time>2018-06-19T16:48:11Z</time>
      </trkpt>
      <trkpt lat="47.33484" lon="-1.26348">
        <ele>71</ele>
        <time>2018-06-19T16:48:19Z</time>
      </trkpt>
      <trkpt lat="47.33494" lon="-1.2634">
        <ele>71</ele>
        <time>2018-06-19T16:48:22Z</time>
      </trkpt>
      <trkpt lat="47.33495" lon="-1.26335">
        <ele>71</ele>
        <time>2018-06-19T16:48:23Z</time>
      </trkpt>
      <trkpt lat="47.3349" lon="-1.26319">
        <ele>71</ele>
        <time>2018-06-19T16:48:26Z</time>
      </trkpt>
      <trkpt lat="47.33488" lon="-1.26314">
        <ele>71</ele>
        <time>2018-06-19T16:48:27Z</time>
      </trkpt>
      <trkpt lat="47.33481" lon="-1.2629">
        <ele>71</ele>
        <time>2018-06-19T16:48:31Z</time>
      </trkpt>
      <trkpt lat="47.33478" lon="-1.2627">
        <ele>71</ele>
        <time>2018-06-19T16:48:34Z</time>
      </trkpt>
      <trkpt lat="47.33465" lon="-1.26208">
        <ele>71</ele>
        <time>2018-06-19T16:48:43Z</time>
      </trkpt>
      <trkpt lat="47.33449" lon="-1.26161">
        <ele>71</ele>
        <time>2018-06-19T16:48:50Z</time>
      </trkpt>
      <trkpt lat="47.33423" lon="-1.26119">
        <ele>72</ele>
        <time>2018-06-19T16:48:58Z</time>
      </trkpt>
      <trkpt lat="47.33394" lon="-1.26079">
        <ele>72</ele>
        <time>2018-06-19T16:49:07Z</time>
      </trkpt>
      <trkpt lat="47.33379" lon="-1.26066">
        <ele>72</ele>
        <time>2018-06-19T16:49:11Z</time>
      </trkpt>
      <trkpt lat="47.33367" lon="-1.26056">
        <ele>73</ele>
        <time>2018-06-19T16:49:14Z</time>
      </trkpt>
      <trkpt lat="47.33332" lon="-1.26019">
        <ele>73</ele>
        <time>2018-06-19T16:49:23Z</time>
      </trkpt>
      <trkpt lat="47.33294" lon="-1.25962">
        <ele>73</ele>
        <time>2018-06-19T16:49:34Z</time>
      </trkpt>
      <trkpt lat="47.33281" lon="-1.2594">
        <ele>74</ele>
        <time>2018-06-19T16:49:38Z</time>
      </trkpt>
      <trkpt lat="47.33263" lon="-1.25915">
        <ele>74</ele>
        <time>2018-06-19T16:49:43Z</time>
      </trkpt>
      <trkpt lat="47.33259" lon="-1.2591">
        <ele>74</ele>
        <time>2018-06-19T16:49:44Z</time>
      </trkpt>
      <trkpt lat="47.33233" lon="-1.25878">
        <ele>74</ele>
        <time>2018-06-19T16:49:51Z</time>
      </trkpt>
      <trkpt lat="47.33215" lon="-1.25857">
        <ele>75</ele>
        <time>2018-06-19T16:49:56Z</time>
      </trkpt>
      <trkpt lat="47.33206" lon="-1.25846">
        <ele>75</ele>
        <time>2018-06-19T16:49:59Z</time>
      </trkpt>
      <trkpt lat="47.33199" lon="-1.25836">
        <ele>75</ele>
        <time>2018-06-19T16:50:03Z</time>
      </trkpt>
      <trkpt lat="47.33198" lon="-1.25834">
        <ele>75</ele>
        <time>2018-06-19T16:50:07Z</time>
      </trkpt>
      <trkpt lat="47.33198" lon="-1.25832">
        <ele>75</ele>
        <time>2018-06-19T16:50:08Z</time>
      </trkpt>
      <trkpt lat="47.33198" lon="-1.25829">
        <ele>75</ele>
        <time>2018-06-19T16:50:09Z</time>
      </trkpt>
      <trkpt lat="47.33206" lon="-1.25814">
        <ele>75</ele>
        <time>2018-06-19T16:50:13Z</time>
      </trkpt>
      <trkpt lat="47.33209" lon="-1.25811">
        <ele>75</ele>
        <time>2018-06-19T16:50:14Z</time>
      </trkpt>
      <trkpt lat="47.33232" lon="-1.2579">
        <ele>75</ele>
        <time>2018-06-19T16:50:20Z</time>
      </trkpt>
      <trkpt lat="47.33264" lon="-1.25772">
        <ele>75</ele>
        <time>2018-06-19T16:50:27Z</time>
      </trkpt>
      <trkpt lat="47.33303" lon="-1.25758">
        <ele>75</ele>
        <time>2018-06-19T16:50:35Z</time>
      </trkpt>
      <trkpt lat="47.33341" lon="-1.25746">
        <ele>74</ele>
        <time>2018-06-19T16:50:43Z</time>
      </trkpt>
      <trkpt lat="47.33368" lon="-1.25735">
        <ele>74</ele>
        <time>2018-06-19T16:50:49Z</time>
      </trkpt>
      <trkpt lat="47.33373" lon="-1.25725">
        <ele>74</ele>
        <time>2018-06-19T16:50:51Z</time>
      </trkpt>
      <trkpt lat="47.33373" lon="-1.25713">
        <ele>74</ele>
        <time>2018-06-19T16:50:53Z</time>
      </trkpt>
      <trkpt lat="47.33372" lon="-1.25694">
        <ele>74</ele>
        <time>2018-06-19T16:50:56Z</time>
      </trkpt>
      <trkpt lat="47.33367" lon="-1.25641">
        <ele>74</ele>
        <time>2018-06-19T16:51:03Z</time>
      </trkpt>
      <trkpt lat="47.3336" lon="-1.25599">
        <ele>74</ele>
        <time>2018-06-19T16:51:08Z</time>
      </trkpt>
      <trkpt lat="47.33357" lon="-1.25583">
        <ele>73</ele>
        <time>2018-06-19T16:51:10Z</time>
      </trkpt>
      <trkpt lat="47.33348" lon="-1.25533">
        <ele>73</ele>
        <time>2018-06-19T16:51:17Z</time>
      </trkpt>
      <trkpt lat="47.33334" lon="-1.2549">
        <ele>73</ele>
        <time>2018-06-19T16:51:24Z</time>
      </trkpt>
      <trkpt lat="47.33314" lon="-1.25427">
        <ele>74</ele>
        <time>2018-06-19T16:51:34Z</time>
      </trkpt>
      <trkpt lat="47.33296" lon="-1.25381">
        <ele>74</ele>
        <time>2018-06-19T16:51:42Z</time>
      </trkpt>
      <trkpt lat="47.33288" lon="-1.25377">
        <ele>74</ele>
        <time>2018-06-19T16:51:45Z</time>
      </trkpt>
      <trkpt lat="47.33274" lon="-1.25382">
        <ele>74</ele>
        <time>2018-06-19T16:51:49Z</time>
      </trkpt>
      <trkpt lat="47.33256" lon="-1.25393">
        <ele>75</ele>
        <time>2018-06-19T16:51:54Z</time>
      </trkpt>
      <trkpt lat="47.33247" lon="-1.25397">
        <ele>75</ele>
        <time>2018-06-19T16:51:57Z</time>
      </trkpt>
      <trkpt lat="47.33241" lon="-1.25387">
        <ele>75</ele>
        <time>2018-06-19T16:52:00Z</time>
      </trkpt>
      <trkpt lat="47.33238" lon="-1.25375">
        <ele>75</ele>
        <time>2018-06-19T16:52:02Z</time>
      </trkpt>
      <trkpt lat="47.33232" lon="-1.2535">
        <ele>75</ele>
        <time>2018-06-19T16:52:06Z</time>
      </trkpt>
      <trkpt lat="47.33221" lon="-1.25311">
        <ele>75</ele>
        <time>2018-06-19T16:52:12Z</time>
      </trkpt>
      <trkpt lat="47.33207" lon="-1.25268">
        <ele>76</ele>
        <time>2018-06-19T16:52:19Z</time>
      </trkpt>
      <trkpt lat="47.33196" lon="-1.25229">
        <ele>75</ele>
        <time>2018-06-19T16:52:25Z</time>
      </trkpt>
      <trkpt lat="47.33185" lon="-1.25192">
        <ele>75</ele>
        <time>2018-06-19T16:52:31Z</time>
      </trkpt>
      <trkpt lat="47.33173" lon="-1.25147">
        <ele>75</ele>
        <time>2018-06-19T16:52:38Z</time>
      </trkpt>
      <trkpt lat="47.33161" lon="-1.25093">
        <ele>75</ele>
        <time>2018-06-19T16:52:45Z</time>
      </trkpt>
      <trkpt lat="47.33147" lon="-1.25043">
        <ele>74</ele>
        <time>2018-06-19T16:52:52Z</time>
      </trkpt>
      <trkpt lat="47.33136" lon="-1.25">
        <ele>74</ele>
        <time>2018-06-19T16:53:00Z</time>
      </trkpt>
      <trkpt lat="47.33134" lon="-1.24995">
        <ele>74</ele>
        <time>2018-06-19T16:53:02Z</time>
      </trkpt>
      <trkpt lat="47.33131" lon="-1.24995">
        <ele>74</ele>
        <time>2018-06-19T16:53:04Z</time>
      </trkpt>
      <trkpt lat="47.33131" lon="-1.24994">
        <ele>73</ele>
        <time>2018-06-19T16:54:54Z</time>
      </trkpt>
      <trkpt lat="47.33127" lon="-1.24999">
        <ele>73</ele>
        <time>2018-06-19T16:54:56Z</time>
      </trkpt>
      <trkpt lat="47.33114" lon="-1.25019">
        <ele>73</ele>
        <time>2018-06-19T16:55:01Z</time>
      </trkpt>
      <trkpt lat="47.33089" lon="-1.2505">
        <ele>74</ele>
        <time>2018-06-19T16:55:08Z</time>
      </trkpt>
      <trkpt lat="47.33077" lon="-1.25063">
        <ele>74</ele>
        <time>2018-06-19T16:55:11Z</time>
      </trkpt>
      <trkpt lat="47.33046" lon="-1.25096">
        <ele>75</ele>
        <time>2018-06-19T16:55:19Z</time>
      </trkpt>
      <trkpt lat="47.33019" lon="-1.25113">
        <ele>76</ele>
        <time>2018-06-19T16:55:25Z</time>
      </trkpt>
      <trkpt lat="47.33015" lon="-1.25114">
        <ele>76</ele>
        <time>2018-06-19T16:55:26Z</time>
      </trkpt>
      <trkpt lat="47.33006" lon="-1.25117">
        <ele>76</ele>
        <time>2018-06-19T16:55:28Z</time>
      </trkpt>
      <trkpt lat="47.32989" lon="-1.25122">
        <ele>77</ele>
        <time>2018-06-19T16:55:32Z</time>
      </trkpt>
      <trkpt lat="47.3298" lon="-1.25125">
        <ele>77</ele>
        <time>2018-06-19T16:55:34Z</time>
      </trkpt>
      <trkpt lat="47.32971" lon="-1.25128">
        <ele>77</ele>
        <time>2018-06-19T16:55:36Z</time>
      </trkpt>
      <trkpt lat="47.32943" lon="-1.25139">
        <ele>78</ele>
        <time>2018-06-19T16:55:43Z</time>
      </trkpt>
      <trkpt lat="47.32923" lon="-1.25151">
        <ele>78</ele>
        <time>2018-06-19T16:55:49Z</time>
      </trkpt>
      <trkpt lat="47.32914" lon="-1.2515">
        <ele>78</ele>
        <time>2018-06-19T16:55:52Z</time>
      </trkpt>
      <trkpt lat="47.32911" lon="-1.25147">
        <ele>78</ele>
        <time>2018-06-19T16:55:53Z</time>
      </trkpt>
      <trkpt lat="47.32899" lon="-1.25122">
        <ele>78</ele>
        <time>2018-06-19T16:55:58Z</time>
      </trkpt>
      <trkpt lat="47.32896" lon="-1.2511">
        <ele>78</ele>
        <time>2018-06-19T16:56:00Z</time>
      </trkpt>
      <trkpt lat="47.32887" lon="-1.25076">
        <ele>78</ele>
        <time>2018-06-19T16:56:05Z</time>
      </trkpt>
      <trkpt lat="47.32868" lon="-1.24998">
        <ele>78</ele>
        <time>2018-06-19T16:56:16Z</time>
      </trkpt>
      <trkpt lat="47.32866" lon="-1.2499">
        <ele>78</ele>
        <time>2018-06-19T16:56:17Z</time>
      </trkpt>
      <trkpt lat="47.32846" lon="-1.24937">
        <ele>78</ele>
        <time>2018-06-19T16:56:25Z</time>
      </trkpt>
      <trkpt lat="47.3282" lon="-1.24887">
        <ele>77</ele>
        <time>2018-06-19T16:56:33Z</time>
      </trkpt>
      <trkpt lat="47.32786" lon="-1.24837">
        <ele>77</ele>
        <time>2018-06-19T16:56:43Z</time>
      </trkpt>
      <trkpt lat="47.32762" lon="-1.24804">
        <ele>76</ele>
        <time>2018-06-19T16:56:50Z</time>
      </trkpt>
      <trkpt lat="47.32752" lon="-1.2479">
        <ele>76</ele>
        <time>2018-06-19T16:56:53Z</time>
      </trkpt>
      <trkpt lat="47.32734" lon="-1.24766">
        <ele>75</ele>
        <time>2018-06-19T16:56:58Z</time>
      </trkpt>
      <trkpt lat="47.32716" lon="-1.24741">
        <ele>75</ele>
        <time>2018-06-19T16:57:04Z</time>
      </trkpt>
      <trkpt lat="47.32709" lon="-1.2473">
        <ele>74</ele>
        <time>2018-06-19T16:58:06Z</time>
      </trkpt>
      <trkpt lat="47.32709" lon="-1.24727">
        <ele>74</ele>
        <time>2018-06-19T16:58:07Z</time>
      </trkpt>
      <trkpt lat="47.32711" lon="-1.24724">
        <ele>74</ele>
        <time>2018-06-19T16:58:08Z</time>
      </trkpt>
      <trkpt lat="47.32721" lon="-1.24711">
        <ele>74</ele>
        <time>2018-06-19T16:58:12Z</time>
      </trkpt>
      <trkpt lat="47.32748" lon="-1.24675">
        <ele>74</ele>
        <time>2018-06-19T16:58:20Z</time>
      </trkpt>
      <trkpt lat="47.32776" lon="-1.2463">
        <ele>75</ele>
        <time>2018-06-19T16:58:29Z</time>
      </trkpt>
      <trkpt lat="47.32779" lon="-1.24624">
        <ele>75</ele>
        <time>2018-06-19T16:58:30Z</time>
      </trkpt>
      <trkpt lat="47.32798" lon="-1.24589">
        <ele>76</ele>
        <time>2018-06-19T16:58:37Z</time>
      </trkpt>
      <trkpt lat="47.32807" lon="-1.24565">
        <ele>76</ele>
        <time>2018-06-19T16:58:42Z</time>
      </trkpt>
      <trkpt lat="47.32811" lon="-1.24549">
        <ele>76</ele>
        <time>2018-06-19T16:58:45Z</time>
      </trkpt>
      <trkpt lat="47.32812" lon="-1.24511">
        <ele>76</ele>
        <time>2018-06-19T16:58:51Z</time>
      </trkpt>
      <trkpt lat="47.32814" lon="-1.24448">
        <ele>77</ele>
        <time>2018-06-19T16:59:00Z</time>
      </trkpt>
      <trkpt lat="47.32821" lon="-1.24393">
        <ele>77</ele>
        <time>2018-06-19T16:59:08Z</time>
      </trkpt>
      <trkpt lat="47.3283" lon="-1.24341">
        <ele>77</ele>
        <time>2018-06-19T16:59:17Z</time>
      </trkpt>
      <trkpt lat="47.32831" lon="-1.24337">
        <ele>76</ele>
        <time>2018-06-19T16:59:38Z</time>
      </trkpt>
      <trkpt lat="47.32834" lon="-1.24321">
        <ele>76</ele>
        <time>2018-06-19T16:59:42Z</time>
      </trkpt>
      <trkpt lat="47.3284" lon="-1.24288">
        <ele>76</ele>
        <time>2018-06-19T16:59:47Z</time>
      </trkpt>
      <trkpt lat="47.3285" lon="-1.2424">
        <ele>76</ele>
        <time>2018-06-19T16:59:54Z</time>
      </trkpt>
      <trkpt lat="47.32861" lon="-1.24204">
        <ele>75</ele>
        <time>2018-06-19T16:59:59Z</time>
      </trkpt>
      <trkpt lat="47.32864" lon="-1.24196">
        <ele>75</ele>
        <time>2018-06-19T17:00:00Z</time>
      </trkpt>
      <trkpt lat="47.32884" lon="-1.24144">
        <ele>74</ele>
        <time>2018-06-19T17:00:07Z</time>
      </trkpt>
      <trkpt lat="47.32891" lon="-1.2413">
        <ele>74</ele>
        <time>2018-06-19T17:00:09Z</time>
      </trkpt>
      <trkpt lat="47.32913" lon="-1.24099">
        <ele>73</ele>
        <time>2018-06-19T17:00:14Z</time>
      </trkpt>
      <trkpt lat="47.32926" lon="-1.24081">
        <ele>72</ele>
        <time>2018-06-19T17:00:17Z</time>
      </trkpt>
      <trkpt lat="47.32939" lon="-1.24062">
        <ele>72</ele>
        <time>2018-06-19T17:00:20Z</time>
      </trkpt>
      <trkpt lat="47.32957" lon="-1.24037">
        <ele>71</ele>
        <time>2018-06-19T17:00:24Z</time>
      </trkpt>
      <trkpt lat="47.32961" lon="-1.24031">
        <ele>71</ele>
        <time>2018-06-19T17:00:25Z</time>
      </trkpt>
      <trkpt lat="47.32968" lon="-1.24019">
        <ele>70</ele>
        <time>2018-06-19T17:00:27Z</time>
      </trkpt>
      <trkpt lat="47.32971" lon="-1.24008">
        <ele>70</ele>
        <time>2018-06-19T17:00:29Z</time>
      </trkpt>
      <trkpt lat="47.32977" lon="-1.23993">
        <ele>70</ele>
        <time>2018-06-19T17:00:32Z</time>
      </trkpt>
      <trkpt lat="47.32981" lon="-1.23982">
        <ele>69</ele>
        <time>2018-06-19T17:00:34Z</time>
      </trkpt>
      <trkpt lat="47.32989" lon="-1.23967">
        <ele>69</ele>
        <time>2018-06-19T17:00:39Z</time>
      </trkpt>
      <trkpt lat="47.32991" lon="-1.23963">
        <ele>68</ele>
        <time>2018-06-19T17:01:08Z</time>
      </trkpt>
      <trkpt lat="47.32992" lon="-1.2396">
        <ele>68</ele>
        <time>2018-06-19T17:01:09Z</time>
      </trkpt>
      <trkpt lat="47.33001" lon="-1.23945">
        <ele>68</ele>
        <time>2018-06-19T17:01:13Z</time>
      </trkpt>
      <trkpt lat="47.33023" lon="-1.23907">
        <ele>68</ele>
        <time>2018-06-19T17:01:21Z</time>
      </trkpt>
      <trkpt lat="47.33051" lon="-1.23877">
        <ele>67</ele>
        <time>2018-06-19T17:01:29Z</time>
      </trkpt>
      <trkpt lat="47.33059" lon="-1.2387">
        <ele>67</ele>
        <time>2018-06-19T17:01:31Z</time>
      </trkpt>
      <trkpt lat="47.33087" lon="-1.23851">
        <ele>66</ele>
        <time>2018-06-19T17:01:38Z</time>
      </trkpt>
      <trkpt lat="47.33103" lon="-1.23841">
        <ele>66</ele>
        <time>2018-06-19T17:01:42Z</time>
      </trkpt>
      <trkpt lat="47.33128" lon="-1.23825">
        <ele>65</ele>
        <time>2018-06-19T17:01:48Z</time>
      </trkpt>
      <trkpt lat="47.33147" lon="-1.23812">
        <ele>65</ele>
        <time>2018-06-19T17:01:52Z</time>
      </trkpt>
      <trkpt lat="47.33161" lon="-1.23801">
        <ele>64</ele>
        <time>2018-06-19T17:01:55Z</time>
      </trkpt>
      <trkpt lat="47.33171" lon="-1.23794">
        <ele>64</ele>
        <time>2018-06-19T17:01:57Z</time>
      </trkpt>
      <trkpt lat="47.33184" lon="-1.23783">
        <ele>62</ele>
        <time>2018-06-19T17:02:00Z</time>
      </trkpt>
      <trkpt lat="47.33196" lon="-1.23774">
        <ele>61</ele>
        <time>2018-06-19T17:02:03Z</time>
      </trkpt>
      <trkpt lat="47.33204" lon="-1.23768">
        <ele>60</ele>
        <time>2018-06-19T17:02:06Z</time>
      </trkpt>
      <trkpt lat="47.33205" lon="-1.23766">
        <ele>60</ele>
        <time>2018-06-19T17:02:07Z</time>
      </trkpt>
      <trkpt lat="47.33203" lon="-1.23752">
        <ele>59</ele>
        <time>2018-06-19T17:02:11Z</time>
      </trkpt>
      <trkpt lat="47.33202" lon="-1.23749">
        <ele>59</ele>
        <time>2018-06-19T17:02:12Z</time>
      </trkpt>
      <trkpt lat="47.33192" lon="-1.23722">
        <ele>58</ele>
        <time>2018-06-19T17:02:20Z</time>
      </trkpt>
      <trkpt lat="47.33191" lon="-1.23719">
        <ele>58</ele>
        <time>2018-06-19T17:02:47Z</time>
      </trkpt>
      <trkpt lat="47.3319" lon="-1.23716">
        <ele>58</ele>
        <time>2018-06-19T17:02:48Z</time>
      </trkpt>
      <trkpt lat="47.33182" lon="-1.23694">
        <ele>58</ele>
        <time>2018-06-19T17:02:53Z</time>
      </trkpt>
      <trkpt lat="47.33165" lon="-1.23654">
        <ele>57</ele>
        <time>2018-06-19T17:03:01Z</time>
      </trkpt>
      <trkpt lat="47.33147" lon="-1.23611">
        <ele>57</ele>
        <time>2018-06-19T17:03:09Z</time>
      </trkpt>
      <trkpt lat="47.33139" lon="-1.23594">
        <ele>56</ele>
        <time>2018-06-19T17:03:12Z</time>
      </trkpt>
      <trkpt lat="47.33127" lon="-1.23568">
        <ele>56</ele>
        <time>2018-06-19T17:03:16Z</time>
      </trkpt>
      <trkpt lat="47.33125" lon="-1.23561">
        <ele>55</ele>
        <time>2018-06-19T17:03:17Z</time>
      </trkpt>
      <trkpt lat="47.33123" lon="-1.23553">
        <ele>55</ele>
        <time>2018-06-19T17:03:18Z</time>
      </trkpt>
      <trkpt lat="47.33117" lon="-1.23526">
        <ele>54</ele>
        <time>2018-06-19T17:03:22Z</time>
      </trkpt>
      <trkpt lat="47.33115" lon="-1.2352">
        <ele>54</ele>
        <time>2018-06-19T17:03:23Z</time>
      </trkpt>
      <trkpt lat="47.3311" lon="-1.23496">
        <ele>53</ele>
        <time>2018-06-19T17:03:28Z</time>
      </trkpt>
      <trkpt lat="47.33108" lon="-1.23488">
        <ele>52</ele>
        <time>2018-06-19T17:03:33Z</time>
      </trkpt>
      <trkpt lat="47.3311" lon="-1.23492">
        <ele>51</ele>
        <time>2018-06-19T17:04:34Z</time>
      </trkpt>
      <trkpt lat="47.33111" lon="-1.23498">
        <ele>51</ele>
        <time>2018-06-19T17:04:36Z</time>
      </trkpt>
      <trkpt lat="47.33118" lon="-1.23525">
        <ele>52</ele>
        <time>2018-06-19T17:04:42Z</time>
      </trkpt>
      <trkpt lat="47.33126" lon="-1.23556">
        <ele>53</ele>
        <time>2018-06-19T17:04:48Z</time>
      </trkpt>
      <trkpt lat="47.3313" lon="-1.23567">
        <ele>54</ele>
        <time>2018-06-19T17:04:50Z</time>
      </trkpt>
      <trkpt lat="47.33141" lon="-1.23592">
        <ele>55</ele>
        <time>2018-06-19T17:04:55Z</time>
      </trkpt>
      <trkpt lat="47.33148" lon="-1.23607">
        <ele>55</ele>
        <time>2018-06-19T17:04:58Z</time>
      </trkpt>
      <trkpt lat="47.33157" lon="-1.23628">
        <ele>56</ele>
        <time>2018-06-19T17:05:02Z</time>
      </trkpt>
      <trkpt lat="47.33165" lon="-1.2365">
        <ele>56</ele>
        <time>2018-06-19T17:05:06Z</time>
      </trkpt>
      <trkpt lat="47.33183" lon="-1.23693">
        <ele>57</ele>
        <time>2018-06-19T17:05:14Z</time>
      </trkpt>
      <trkpt lat="47.33189" lon="-1.23709">
        <ele>57</ele>
        <time>2018-06-19T17:05:17Z</time>
      </trkpt>
      <trkpt lat="47.33201" lon="-1.23746">
        <ele>58</ele>
        <time>2018-06-19T17:05:24Z</time>
      </trkpt>
      <trkpt lat="47.33205" lon="-1.23759">
        <ele>58</ele>
        <time>2018-06-19T17:05:27Z</time>
      </trkpt>
      <trkpt lat="47.33209" lon="-1.23768">
        <ele>58</ele>
        <time>2018-06-19T17:06:35Z</time>
      </trkpt>
      <trkpt lat="47.33209" lon="-1.23773">
        <ele>58</ele>
        <time>2018-06-19T17:06:37Z</time>
      </trkpt>
      <trkpt lat="47.33209" lon="-1.23776">
        <ele>58</ele>
        <time>2018-06-19T17:06:38Z</time>
      </trkpt>
      <trkpt lat="47.33208" lon="-1.23793">
        <ele>58</ele>
        <time>2018-06-19T17:06:44Z</time>
      </trkpt>
      <trkpt lat="47.33215" lon="-1.238">
        <ele>58</ele>
        <time>2018-06-19T17:06:49Z</time>
      </trkpt>
      <trkpt lat="47.33231" lon="-1.23806">
        <ele>58</ele>
        <time>2018-06-19T17:06:54Z</time>
      </trkpt>
      <trkpt lat="47.33257" lon="-1.23813">
        <ele>57</ele>
        <time>2018-06-19T17:07:01Z</time>
      </trkpt>
      <trkpt lat="47.33261" lon="-1.23814">
        <ele>56</ele>
        <time>2018-06-19T17:07:02Z</time>
      </trkpt>
      <trkpt lat="47.33271" lon="-1.23821">
        <ele>56</ele>
        <time>2018-06-19T17:07:05Z</time>
      </trkpt>
      <trkpt lat="47.33273" lon="-1.23825">
        <ele>56</ele>
        <time>2018-06-19T17:07:06Z</time>
      </trkpt>
      <trkpt lat="47.33274" lon="-1.23829">
        <ele>55</ele>
        <time>2018-06-19T17:07:07Z</time>
      </trkpt>
      <trkpt lat="47.33275" lon="-1.23837">
        <ele>55</ele>
        <time>2018-06-19T17:07:09Z</time>
      </trkpt>
      <trkpt lat="47.33276" lon="-1.23841">
        <ele>56</ele>
        <time>2018-06-19T17:07:35Z</time>
      </trkpt>
      <trkpt lat="47.33279" lon="-1.23849">
        <ele>56</ele>
        <time>2018-06-19T17:07:37Z</time>
      </trkpt>
      <trkpt lat="47.3329" lon="-1.23881">
        <ele>56</ele>
        <time>2018-06-19T17:07:43Z</time>
      </trkpt>
      <trkpt lat="47.333" lon="-1.23907">
        <ele>56</ele>
        <time>2018-06-19T17:07:48Z</time>
      </trkpt>
      <trkpt lat="47.33307" lon="-1.23922">
        <ele>57</ele>
        <time>2018-06-19T17:07:51Z</time>
      </trkpt>
      <trkpt lat="47.33312" lon="-1.23932">
        <ele>58</ele>
        <time>2018-06-19T17:07:53Z</time>
      </trkpt>
      <trkpt lat="47.33328" lon="-1.23972">
        <ele>59</ele>
        <time>2018-06-19T17:08:01Z</time>
      </trkpt>
      <trkpt lat="47.3333" lon="-1.23978">
        <ele>59</ele>
        <time>2018-06-19T17:08:02Z</time>
      </trkpt>
      <trkpt lat="47.33343" lon="-1.24027">
        <ele>59</ele>
        <time>2018-06-19T17:08:10Z</time>
      </trkpt>
      <trkpt lat="47.33352" lon="-1.24069">
        <ele>58</ele>
        <time>2018-06-19T17:08:18Z</time>
      </trkpt>
      <trkpt lat="47.33357" lon="-1.24092">
        <ele>59</ele>
        <time>2018-06-19T17:08:24Z</time>
      </trkpt>
      <trkpt lat="47.33365" lon="-1.24095">
        <ele>59</ele>
        <time>2018-06-19T17:08:28Z</time>
      </trkpt>
      <trkpt lat="47.33383" lon="-1.24083">
        <ele>58</ele>
        <time>2018-06-19T17:08:33Z</time>
      </trkpt>
      <trkpt lat="47.33391" lon="-1.24076">
        <ele>57</ele>
        <time>2018-06-19T17:08:35Z</time>
      </trkpt>
      <trkpt lat="47.33404" lon="-1.24065">
        <ele>56</ele>
        <time>2018-06-19T17:08:38Z</time>
      </trkpt>
      <trkpt lat="47.33413" lon="-1.24055">
        <ele>55</ele>
        <time>2018-06-19T17:08:40Z</time>
      </trkpt>
      <trkpt lat="47.33423" lon="-1.24044">
        <ele>54</ele>
        <time>2018-06-19T17:08:42Z</time>
      </trkpt>
      <trkpt lat="47.33433" lon="-1.24032">
        <ele>53</ele>
        <time>2018-06-19T17:08:44Z</time>
      </trkpt>
      <trkpt lat="47.33447" lon="-1.24014">
        <ele>51</ele>
        <time>2018-06-19T17:08:47Z</time>
      </trkpt>
      <trkpt lat="47.33457" lon="-1.24001">
        <ele>50</ele>
        <time>2018-06-19T17:08:49Z</time>
      </trkpt>
      <trkpt lat="47.33469" lon="-1.23983">
        <ele>49</ele>
        <time>2018-06-19T17:08:52Z</time>
      </trkpt>
      <trkpt lat="47.33472" lon="-1.23978">
        <ele>48</ele>
        <time>2018-06-19T17:08:53Z</time>
      </trkpt>
      <trkpt lat="47.33479" lon="-1.2397">
        <ele>47</ele>
        <time>2018-06-19T17:08:55Z</time>
      </trkpt>
      <trkpt lat="47.33492" lon="-1.23961">
        <ele>47</ele>
        <time>2018-06-19T17:08:58Z</time>
      </trkpt>
      <trkpt lat="47.33497" lon="-1.23958">
        <ele>46</ele>
        <time>2018-06-19T17:08:59Z</time>
      </trkpt>
      <trkpt lat="47.33522" lon="-1.23942">
        <ele>45</ele>
        <time>2018-06-19T17:09:03Z</time>
      </trkpt>
      <trkpt lat="47.33531" lon="-1.23938">
        <ele>44</ele>
        <time>2018-06-19T17:09:05Z</time>
      </trkpt>
      <trkpt lat="47.33539" lon="-1.23937">
        <ele>43</ele>
        <time>2018-06-19T17:09:07Z</time>
      </trkpt>
      <trkpt lat="47.33546" lon="-1.23935">
        <ele>42</ele>
        <time>2018-06-19T17:09:09Z</time>
      </trkpt>
      <trkpt lat="47.33549" lon="-1.23934">
        <ele>42</ele>
        <time>2018-06-19T17:09:10Z</time>
      </trkpt>
      <trkpt lat="47.33561" lon="-1.23932">
        <ele>41</ele>
        <time>2018-06-19T17:09:13Z</time>
      </trkpt>
      <trkpt lat="47.33574" lon="-1.23928">
        <ele>40</ele>
        <time>2018-06-19T17:09:16Z</time>
      </trkpt>
      <trkpt lat="47.33587" lon="-1.23923">
        <ele>39</ele>
        <time>2018-06-19T17:09:19Z</time>
      </trkpt>
      <trkpt lat="47.33595" lon="-1.2392">
        <ele>38</ele>
        <time>2018-06-19T17:09:21Z</time>
      </trkpt>
      <trkpt lat="47.336" lon="-1.23919">
        <ele>37</ele>
        <time>2018-06-19T17:09:22Z</time>
      </trkpt>
      <trkpt lat="47.33612" lon="-1.23916">
        <ele>36</ele>
        <time>2018-06-19T17:09:25Z</time>
      </trkpt>
      <trkpt lat="47.33625" lon="-1.23912">
        <ele>35</ele>
        <time>2018-06-19T17:09:28Z</time>
      </trkpt>
      <trkpt lat="47.33629" lon="-1.2391">
        <ele>35</ele>
        <time>2018-06-19T17:09:29Z</time>
      </trkpt>
      <trkpt lat="47.33636" lon="-1.23906">
        <ele>34</ele>
        <time>2018-06-19T17:09:31Z</time>
      </trkpt>
      <trkpt lat="47.33644" lon="-1.23902">
        <ele>33</ele>
        <time>2018-06-19T17:09:34Z</time>
      </trkpt>
      <trkpt lat="47.33648" lon="-1.23901">
        <ele>32</ele>
        <time>2018-06-19T17:09:35Z</time>
      </trkpt>
      <trkpt lat="47.33655" lon="-1.23899">
        <ele>31</ele>
        <time>2018-06-19T17:09:37Z</time>
      </trkpt>
      <trkpt lat="47.33668" lon="-1.23891">
        <ele>30</ele>
        <time>2018-06-19T17:09:41Z</time>
      </trkpt>
      <trkpt lat="47.3368" lon="-1.23881">
        <ele>29</ele>
        <time>2018-06-19T17:09:45Z</time>
      </trkpt>
      <trkpt lat="47.33683" lon="-1.23879">
        <ele>29</ele>
        <time>2018-06-19T17:09:46Z</time>
      </trkpt>
      <trkpt lat="47.33692" lon="-1.23873">
        <ele>28</ele>
        <time>2018-06-19T17:09:49Z</time>
      </trkpt>
      <trkpt lat="47.337" lon="-1.23867">
        <ele>27</ele>
        <time>2018-06-19T17:09:52Z</time>
      </trkpt>
      <trkpt lat="47.33703" lon="-1.23864">
        <ele>26</ele>
        <time>2018-06-19T17:09:53Z</time>
      </trkpt>
      <trkpt lat="47.33709" lon="-1.23859">
        <ele>26</ele>
        <time>2018-06-19T17:09:55Z</time>
      </trkpt>
      <trkpt lat="47.33718" lon="-1.2385">
        <ele>24</ele>
        <time>2018-06-19T17:09:58Z</time>
      </trkpt>
      <trkpt lat="47.33726" lon="-1.23841">
        <ele>22</ele>
        <time>2018-06-19T17:10:01Z</time>
      </trkpt>
      <trkpt lat="47.33733" lon="-1.23831">
        <ele>21</ele>
        <time>2018-06-19T17:10:04Z</time>
      </trkpt>
      <trkpt lat="47.33741" lon="-1.23822">
        <ele>20</ele>
        <time>2018-06-19T17:10:07Z</time>
      </trkpt>
      <trkpt lat="47.33746" lon="-1.23818">
        <ele>19</ele>
        <time>2018-06-19T17:10:09Z</time>
      </trkpt>
      <trkpt lat="47.33749" lon="-1.23816">
        <ele>18</ele>
        <time>2018-06-19T17:10:10Z</time>
      </trkpt>
      <trkpt lat="47.33761" lon="-1.23812">
        <ele>17</ele>
        <time>2018-06-19T17:10:13Z</time>
      </trkpt>
      <trkpt lat="47.3377" lon="-1.2381">
        <ele>17</ele>
        <time>2018-06-19T17:10:15Z</time>
      </trkpt>
      <trkpt lat="47.33778" lon="-1.23809">
        <ele>16</ele>
        <time>2018-06-19T17:10:17Z</time>
      </trkpt>
      <trkpt lat="47.33797" lon="-1.23812">
        <ele>15</ele>
        <time>2018-06-19T17:10:21Z</time>
      </trkpt>
      <trkpt lat="47.33814" lon="-1.23817">
        <ele>13</ele>
        <time>2018-06-19T17:10:25Z</time>
      </trkpt>
      <trkpt lat="47.33827" lon="-1.23821">
        <ele>13</ele>
        <time>2018-06-19T17:10:28Z</time>
      </trkpt>
      <trkpt lat="47.3384" lon="-1.23825">
        <ele>12</ele>
        <time>2018-06-19T17:10:31Z</time>
      </trkpt>
      <trkpt lat="47.33859" lon="-1.2383">
        <ele>11</ele>
        <time>2018-06-19T17:10:36Z</time>
      </trkpt>
      <trkpt lat="47.33868" lon="-1.23833">
        <ele>11</ele>
        <time>2018-06-19T17:10:41Z</time>
      </trkpt>
      <trkpt lat="47.33871" lon="-1.23836">
        <ele>10</ele>
        <time>2018-06-19T17:11:29Z</time>
      </trkpt>
      <trkpt lat="47.33873" lon="-1.23839">
        <ele>10</ele>
        <time>2018-06-19T17:11:30Z</time>
      </trkpt>
      <trkpt lat="47.3387" lon="-1.23858">
        <ele>10</ele>
        <time>2018-06-19T17:11:34Z</time>
      </trkpt>
      <trkpt lat="47.33865" lon="-1.23877">
        <ele>10</ele>
        <time>2018-06-19T17:11:37Z</time>
      </trkpt>
      <trkpt lat="47.3386" lon="-1.23905">
        <ele>10</ele>
        <time>2018-06-19T17:11:41Z</time>
      </trkpt>
      <trkpt lat="47.33844" lon="-1.23979">
        <ele>10</ele>
        <time>2018-06-19T17:11:51Z</time>
      </trkpt>
      <trkpt lat="47.33828" lon="-1.24055">
        <ele>11</ele>
        <time>2018-06-19T17:12:01Z</time>
      </trkpt>
      <trkpt lat="47.33816" lon="-1.24113">
        <ele>11</ele>
        <time>2018-06-19T17:12:09Z</time>
      </trkpt>
      <trkpt lat="47.33809" lon="-1.24174">
        <ele>11</ele>
        <time>2018-06-19T17:12:17Z</time>
      </trkpt>
      <trkpt lat="47.33808" lon="-1.24221">
        <ele>11</ele>
        <time>2018-06-19T17:12:24Z</time>
      </trkpt>
      <trkpt lat="47.33809" lon="-1.24235">
        <ele>11</ele>
        <time>2018-06-19T17:12:28Z</time>
      </trkpt>
      <trkpt lat="47.33806" lon="-1.24233">
        <ele>11</ele>
        <time>2018-06-19T17:13:09Z</time>
      </trkpt>
      <trkpt lat="47.33805" lon="-1.24233">
        <ele>11</ele>
        <time>2018-06-19T17:13:10Z</time>
      </trkpt>
      <trkpt lat="47.33801" lon="-1.24232">
        <ele>11</ele>
        <time>2018-06-19T17:13:13Z</time>
      </trkpt>
      <trkpt lat="47.33798" lon="-1.24233">
        <ele>11</ele>
        <time>2018-06-19T17:13:17Z</time>
      </trkpt>
      <trkpt lat="47.33797" lon="-1.24234">
        <ele>11</ele>
        <time>2018-06-19T17:13:18Z</time>
      </trkpt>
      <trkpt lat="47.33794" lon="-1.24238">
        <ele>12</ele>
        <time>2018-06-19T17:14:09Z</time>
      </trkpt>
      <trkpt lat="47.33794" lon="-1.24239">
        <ele>12</ele>
        <time>2018-06-19T17:14:10Z</time>
      </trkpt>
      <trkpt lat="47.33787" lon="-1.24257">
        <ele>13</ele>
        <time>2018-06-19T17:14:18Z</time>
      </trkpt>
      <trkpt lat="47.33786" lon="-1.2426">
        <ele>14</ele>
        <time>2018-06-19T17:14:19Z</time>
      </trkpt>
      <trkpt lat="47.33783" lon="-1.24268">
        <ele>15</ele>
        <time>2018-06-19T17:14:23Z</time>
      </trkpt>
      <trkpt lat="47.3378" lon="-1.24277">
        <ele>16</ele>
        <time>2018-06-19T17:14:27Z</time>
      </trkpt>
      <trkpt lat="47.33776" lon="-1.24285">
        <ele>17</ele>
        <time>2018-06-19T17:14:31Z</time>
      </trkpt>
      <trkpt lat="47.33775" lon="-1.24287">
        <ele>17</ele>
        <time>2018-06-19T17:14:32Z</time>
      </trkpt>
      <trkpt lat="47.33773" lon="-1.24299">
        <ele>18</ele>
        <time>2018-06-19T17:14:37Z</time>
      </trkpt>
      <trkpt lat="47.33772" lon="-1.24305">
        <ele>18</ele>
        <time>2018-06-19T17:14:39Z</time>
      </trkpt>
      <trkpt lat="47.33771" lon="-1.24316">
        <ele>19</ele>
        <time>2018-06-19T17:14:43Z</time>
      </trkpt>
      <trkpt lat="47.3377" lon="-1.24329">
        <ele>20</ele>
        <time>2018-06-19T17:14:48Z</time>
      </trkpt>
      <trkpt lat="47.33769" lon="-1.24332">
        <ele>20</ele>
        <time>2018-06-19T17:14:49Z</time>
      </trkpt>
      <trkpt lat="47.33767" lon="-1.24348">
        <ele>21</ele>
        <time>2018-06-19T17:14:55Z</time>
      </trkpt>
      <trkpt lat="47.33766" lon="-1.24353">
        <ele>22</ele>
        <time>2018-06-19T17:14:57Z</time>
      </trkpt>
      <trkpt lat="47.33763" lon="-1.2436">
        <ele>22</ele>
        <time>2018-06-19T17:15:00Z</time>
      </trkpt>
      <trkpt lat="47.33758" lon="-1.24367">
        <ele>23</ele>
        <time>2018-06-19T17:15:04Z</time>
      </trkpt>
      <trkpt lat="47.33755" lon="-1.24369">
        <ele>23</ele>
        <time>2018-06-19T17:15:06Z</time>
      </trkpt>
      <trkpt lat="47.33747" lon="-1.24373">
        <ele>24</ele>
        <time>2018-06-19T17:15:11Z</time>
      </trkpt>
      <trkpt lat="47.33746" lon="-1.24374">
        <ele>24</ele>
        <time>2018-06-19T17:15:12Z</time>
      </trkpt>
      <trkpt lat="47.33737" lon="-1.24379">
        <ele>26</ele>
        <time>2018-06-19T17:15:17Z</time>
      </trkpt>
      <trkpt lat="47.33732" lon="-1.2438">
        <ele>26</ele>
        <time>2018-06-19T17:15:20Z</time>
      </trkpt>
      <trkpt lat="47.33727" lon="-1.24382">
        <ele>27</ele>
        <time>2018-06-19T17:15:23Z</time>
      </trkpt>
      <trkpt lat="47.33717" lon="-1.24383">
        <ele>28</ele>
        <time>2018-06-19T17:15:29Z</time>
      </trkpt>
      <trkpt lat="47.33714" lon="-1.24383">
        <ele>28</ele>
        <time>2018-06-19T17:15:31Z</time>
      </trkpt>
      <trkpt lat="47.33707" lon="-1.24383">
        <ele>29</ele>
        <time>2018-06-19T17:15:35Z</time>
      </trkpt>
      <trkpt lat="47.337" lon="-1.24382">
        <ele>30</ele>
        <time>2018-06-19T17:15:40Z</time>
      </trkpt>
      <trkpt lat="47.33696" lon="-1.24382">
        <ele>31</ele>
        <time>2018-06-19T17:15:42Z</time>
      </trkpt>
      <trkpt lat="47.3369" lon="-1.24382">
        <ele>31</ele>
        <time>2018-06-19T17:15:46Z</time>
      </trkpt>
      <trkpt lat="47.33683" lon="-1.24383">
        <ele>32</ele>
        <time>2018-06-19T17:15:51Z</time>
      </trkpt>
      <trkpt lat="47.33681" lon="-1.24383">
        <ele>33</ele>
        <time>2018-06-19T17:15:52Z</time>
      </trkpt>
      <trkpt lat="47.33673" lon="-1.24384">
        <ele>34</ele>
        <time>2018-06-19T17:15:57Z</time>
      </trkpt>
      <trkpt lat="47.33669" lon="-1.24385">
        <ele>34</ele>
        <time>2018-06-19T17:15:59Z</time>
      </trkpt>
      <trkpt lat="47.33666" lon="-1.24385">
        <ele>35</ele>
        <time>2018-06-19T17:16:01Z</time>
      </trkpt>
      <trkpt lat="47.33658" lon="-1.24387">
        <ele>36</ele>
        <time>2018-06-19T17:16:06Z</time>
      </trkpt>
      <trkpt lat="47.33657" lon="-1.24387">
        <ele>36</ele>
        <time>2018-06-19T17:16:07Z</time>
      </trkpt>
      <trkpt lat="47.3365" lon="-1.24389">
        <ele>37</ele>
        <time>2018-06-19T17:16:11Z</time>
      </trkpt>
      <trkpt lat="47.33642" lon="-1.24391">
        <ele>38</ele>
        <time>2018-06-19T17:16:16Z</time>
      </trkpt>
      <trkpt lat="47.33641" lon="-1.24392">
        <ele>38</ele>
        <time>2018-06-19T17:16:17Z</time>
      </trkpt>
      <trkpt lat="47.33634" lon="-1.24394">
        <ele>39</ele>
        <time>2018-06-19T17:16:21Z</time>
      </trkpt>
      <trkpt lat="47.33628" lon="-1.24396">
        <ele>40</ele>
        <time>2018-06-19T17:16:25Z</time>
      </trkpt>
      <trkpt lat="47.33626" lon="-1.24397">
        <ele>41</ele>
        <time>2018-06-19T17:16:26Z</time>
      </trkpt>
      <trkpt lat="47.3362" lon="-1.24399">
        <ele>42</ele>
        <time>2018-06-19T17:16:30Z</time>
      </trkpt>
      <trkpt lat="47.33614" lon="-1.24401">
        <ele>42</ele>
        <time>2018-06-19T17:16:34Z</time>
      </trkpt>
      <trkpt lat="47.33612" lon="-1.24402">
        <ele>43</ele>
        <time>2018-06-19T17:16:35Z</time>
      </trkpt>
      <trkpt lat="47.33604" lon="-1.24403">
        <ele>44</ele>
        <time>2018-06-19T17:16:40Z</time>
      </trkpt>
      <trkpt lat="47.33602" lon="-1.24404">
        <ele>44</ele>
        <time>2018-06-19T17:16:41Z</time>
      </trkpt>
      <trkpt lat="47.33595" lon="-1.24406">
        <ele>45</ele>
        <time>2018-06-19T17:16:45Z</time>
      </trkpt>
      <trkpt lat="47.33586" lon="-1.24408">
        <ele>46</ele>
        <time>2018-06-19T17:16:50Z</time>
      </trkpt>
      <trkpt lat="47.33576" lon="-1.2441">
        <ele>47</ele>
        <time>2018-06-19T17:16:56Z</time>
      </trkpt>
      <trkpt lat="47.33571" lon="-1.24411">
        <ele>48</ele>
        <time>2018-06-19T17:16:59Z</time>
      </trkpt>
      <trkpt lat="47.33566" lon="-1.24413">
        <ele>48</ele>
        <time>2018-06-19T17:17:02Z</time>
      </trkpt>
      <trkpt lat="47.33558" lon="-1.24415">
        <ele>49</ele>
        <time>2018-06-19T17:17:07Z</time>
      </trkpt>
      <trkpt lat="47.33556" lon="-1.24415">
        <ele>49</ele>
        <time>2018-06-19T17:17:08Z</time>
      </trkpt>
      <trkpt lat="47.33549" lon="-1.24416">
        <ele>50</ele>
        <time>2018-06-19T17:17:12Z</time>
      </trkpt>
      <trkpt lat="47.33538" lon="-1.24419">
        <ele>51</ele>
        <time>2018-06-19T17:17:18Z</time>
      </trkpt>
      <trkpt lat="47.33527" lon="-1.24422">
        <ele>52</ele>
        <time>2018-06-19T17:17:24Z</time>
      </trkpt>
      <trkpt lat="47.33522" lon="-1.24423">
        <ele>53</ele>
        <time>2018-06-19T17:17:27Z</time>
      </trkpt>
      <trkpt lat="47.33517" lon="-1.24424">
        <ele>54</ele>
        <time>2018-06-19T17:17:30Z</time>
      </trkpt>
      <trkpt lat="47.33506" lon="-1.24426">
        <ele>55</ele>
        <time>2018-06-19T17:17:36Z</time>
      </trkpt>
      <trkpt lat="47.33502" lon="-1.24426">
        <ele>55</ele>
        <time>2018-06-19T17:17:38Z</time>
      </trkpt>
      <trkpt lat="47.33496" lon="-1.24426">
        <ele>56</ele>
        <time>2018-06-19T17:17:41Z</time>
      </trkpt>
      <trkpt lat="47.33487" lon="-1.24425">
        <ele>57</ele>
        <time>2018-06-19T17:17:46Z</time>
      </trkpt>
      <trkpt lat="47.33483" lon="-1.24425">
        <ele>57</ele>
        <time>2018-06-19T17:17:48Z</time>
      </trkpt>
      <trkpt lat="47.33475" lon="-1.24424">
        <ele>58</ele>
        <time>2018-06-19T17:17:52Z</time>
      </trkpt>
      <trkpt lat="47.33468" lon="-1.24423">
        <ele>58</ele>
        <time>2018-06-19T17:17:56Z</time>
      </trkpt>
      <trkpt lat="47.33458" lon="-1.24424">
        <ele>59</ele>
        <time>2018-06-19T17:18:01Z</time>
      </trkpt>
      <trkpt lat="47.3345" lon="-1.24426">
        <ele>60</ele>
        <time>2018-06-19T17:18:05Z</time>
      </trkpt>
      <trkpt lat="47.33448" lon="-1.24426">
        <ele>60</ele>
        <time>2018-06-19T17:18:06Z</time>
      </trkpt>
      <trkpt lat="47.33438" lon="-1.24429">
        <ele>61</ele>
        <time>2018-06-19T17:18:12Z</time>
      </trkpt>
      <trkpt lat="47.33436" lon="-1.24429">
        <ele>61</ele>
        <time>2018-06-19T17:18:13Z</time>
      </trkpt>
      <trkpt lat="47.33424" lon="-1.24433">
        <ele>62</ele>
        <time>2018-06-19T17:18:20Z</time>
      </trkpt>
      <trkpt lat="47.33421" lon="-1.24434">
        <ele>62</ele>
        <time>2018-06-19T17:18:22Z</time>
      </trkpt>
      <trkpt lat="47.3341" lon="-1.24438">
        <ele>63</ele>
        <time>2018-06-19T17:18:27Z</time>
      </trkpt>
      <trkpt lat="47.33406" lon="-1.24439">
        <ele>64</ele>
        <time>2018-06-19T17:18:29Z</time>
      </trkpt>
      <trkpt lat="47.33392" lon="-1.24444">
        <ele>64</ele>
        <time>2018-06-19T17:18:36Z</time>
      </trkpt>
      <trkpt lat="47.33388" lon="-1.24446">
        <ele>65</ele>
        <time>2018-06-19T17:18:38Z</time>
      </trkpt>
      <trkpt lat="47.33373" lon="-1.24451">
        <ele>66</ele>
        <time>2018-06-19T17:18:45Z</time>
      </trkpt>
      <trkpt lat="47.33369" lon="-1.24452">
        <ele>66</ele>
        <time>2018-06-19T17:18:47Z</time>
      </trkpt>
      <trkpt lat="47.33355" lon="-1.24458">
        <ele>67</ele>
        <time>2018-06-19T17:18:53Z</time>
      </trkpt>
      <trkpt lat="47.33351" lon="-1.2446">
        <ele>67</ele>
        <time>2018-06-19T17:18:55Z</time>
      </trkpt>
      <trkpt lat="47.33333" lon="-1.24467">
        <ele>67</ele>
        <time>2018-06-19T17:19:02Z</time>
      </trkpt>
      <trkpt lat="47.33328" lon="-1.24469">
        <ele>68</ele>
        <time>2018-06-19T17:19:04Z</time>
      </trkpt>
      <trkpt lat="47.33307" lon="-1.24479">
        <ele>68</ele>
        <time>2018-06-19T17:19:12Z</time>
      </trkpt>
      <trkpt lat="47.33294" lon="-1.24486">
        <ele>69</ele>
        <time>2018-06-19T17:19:17Z</time>
      </trkpt>
      <trkpt lat="47.33281" lon="-1.24492">
        <ele>69</ele>
        <time>2018-06-19T17:19:22Z</time>
      </trkpt>
      <trkpt lat="47.3326" lon="-1.24504">
        <ele>69</ele>
        <time>2018-06-19T17:19:30Z</time>
      </trkpt>
      <trkpt lat="47.33257" lon="-1.24513">
        <ele>70</ele>
        <time>2018-06-19T17:19:34Z</time>
      </trkpt>
      <trkpt lat="47.33258" lon="-1.24516">
        <ele>70</ele>
        <time>2018-06-19T17:19:35Z</time>
      </trkpt>
      <trkpt lat="47.33262" lon="-1.24527">
        <ele>70</ele>
        <time>2018-06-19T17:19:39Z</time>
      </trkpt>
      <trkpt lat="47.33263" lon="-1.24531">
        <ele>70</ele>
        <time>2018-06-19T17:19:40Z</time>
      </trkpt>
      <trkpt lat="47.3327" lon="-1.24554">
        <ele>70</ele>
        <time>2018-06-19T17:19:46Z</time>
      </trkpt>
      <trkpt lat="47.3328" lon="-1.24587">
        <ele>70</ele>
        <time>2018-06-19T17:19:53Z</time>
      </trkpt>
      <trkpt lat="47.3329" lon="-1.24622">
        <ele>70</ele>
        <time>2018-06-19T17:20:01Z</time>
      </trkpt>
      <trkpt lat="47.33299" lon="-1.24666">
        <ele>70</ele>
        <time>2018-06-19T17:20:09Z</time>
      </trkpt>
      <trkpt lat="47.33305" lon="-1.24703">
        <ele>70</ele>
        <time>2018-06-19T17:20:17Z</time>
      </trkpt>
      <trkpt lat="47.33307" lon="-1.24723">
        <ele>70</ele>
        <time>2018-06-19T17:20:51Z</time>
      </trkpt>
      <trkpt lat="47.33306" lon="-1.24731">
        <ele>70</ele>
        <time>2018-06-19T17:20:53Z</time>
      </trkpt>
      <trkpt lat="47.33308" lon="-1.24773">
        <ele>70</ele>
        <time>2018-06-19T17:21:01Z</time>
      </trkpt>
      <trkpt lat="47.33313" lon="-1.24813">
        <ele>69</ele>
        <time>2018-06-19T17:21:08Z</time>
      </trkpt>
      <trkpt lat="47.33323" lon="-1.24855">
        <ele>69</ele>
        <time>2018-06-19T17:21:14Z</time>
      </trkpt>
      <trkpt lat="47.33335" lon="-1.249">
        <ele>68</ele>
        <time>2018-06-19T17:21:21Z</time>
      </trkpt>
      <trkpt lat="47.33343" lon="-1.24929">
        <ele>68</ele>
        <time>2018-06-19T17:21:26Z</time>
      </trkpt>
      <trkpt lat="47.33346" lon="-1.24939">
        <ele>67</ele>
        <time>2018-06-19T17:21:29Z</time>
      </trkpt>
      <trkpt lat="47.33351" lon="-1.24938">
        <ele>67</ele>
        <time>2018-06-19T17:21:44Z</time>
      </trkpt>
      <trkpt lat="47.3336" lon="-1.24923">
        <ele>67</ele>
        <time>2018-06-19T17:21:49Z</time>
      </trkpt>
      <trkpt lat="47.3338" lon="-1.24913">
        <ele>67</ele>
        <time>2018-06-19T17:21:55Z</time>
      </trkpt>
      <trkpt lat="47.3339" lon="-1.24908">
        <ele>66</ele>
        <time>2018-06-19T17:21:58Z</time>
      </trkpt>
      <trkpt lat="47.33402" lon="-1.24902">
        <ele>66</ele>
        <time>2018-06-19T17:22:01Z</time>
      </trkpt>
      <trkpt lat="47.33411" lon="-1.24898">
        <ele>65</ele>
        <time>2018-06-19T17:22:03Z</time>
      </trkpt>
      <trkpt lat="47.33433" lon="-1.24893">
        <ele>65</ele>
        <time>2018-06-19T17:22:07Z</time>
      </trkpt>
      <trkpt lat="47.33445" lon="-1.24892">
        <ele>64</ele>
        <time>2018-06-19T17:22:09Z</time>
      </trkpt>
      <trkpt lat="47.3346" lon="-1.2489">
        <ele>63</ele>
        <time>2018-06-19T17:22:12Z</time>
      </trkpt>
      <trkpt lat="47.33464" lon="-1.2489">
        <ele>63</ele>
        <time>2018-06-19T17:22:13Z</time>
      </trkpt>
      <trkpt lat="47.33474" lon="-1.24892">
        <ele>62</ele>
        <time>2018-06-19T17:22:16Z</time>
      </trkpt>
      <trkpt lat="47.33481" lon="-1.24895">
        <ele>61</ele>
        <time>2018-06-19T17:22:18Z</time>
      </trkpt>
      <trkpt lat="47.33495" lon="-1.24904">
        <ele>61</ele>
        <time>2018-06-19T17:22:22Z</time>
      </trkpt>
      <trkpt lat="47.33498" lon="-1.24906">
        <ele>61</ele>
        <time>2018-06-19T17:22:23Z</time>
      </trkpt>
      <trkpt lat="47.33505" lon="-1.24914">
        <ele>60</ele>
        <time>2018-06-19T17:22:28Z</time>
      </trkpt>
      <trkpt lat="47.3351" lon="-1.24919">
        <ele>59</ele>
        <time>2018-06-19T17:22:31Z</time>
      </trkpt>
      <trkpt lat="47.33515" lon="-1.24921">
        <ele>57</ele>
        <time>2018-06-19T17:22:34Z</time>
      </trkpt>
      <trkpt lat="47.33563" lon="-1.24931">
        <ele>47</ele>
        <time>2018-06-19T17:23:22Z</time>
      </trkpt>
      <trkpt lat="47.33568" lon="-1.24931">
        <ele>46</ele>
        <time>2018-06-19T17:23:25Z</time>
      </trkpt>
      <trkpt lat="47.33576" lon="-1.2493">
        <ele>45</ele>
        <time>2018-06-19T17:23:29Z</time>
      </trkpt>
      <trkpt lat="47.33583" lon="-1.24929">
        <ele>44</ele>
        <time>2018-06-19T17:23:32Z</time>
      </trkpt>
      <trkpt lat="47.33587" lon="-1.24928">
        <ele>44</ele>
        <time>2018-06-19T17:23:33Z</time>
      </trkpt>
      <trkpt lat="47.33596" lon="-1.24926">
        <ele>43</ele>
        <time>2018-06-19T17:23:36Z</time>
      </trkpt>
      <trkpt lat="47.33598" lon="-1.24926">
        <ele>42</ele>
        <time>2018-06-19T17:23:37Z</time>
      </trkpt>
      <trkpt lat="47.33602" lon="-1.24924">
        <ele>41</ele>
        <time>2018-06-19T17:23:39Z</time>
      </trkpt>
      <trkpt lat="47.3361" lon="-1.24924">
        <ele>40</ele>
        <time>2018-06-19T17:23:43Z</time>
      </trkpt>
      <trkpt lat="47.3362" lon="-1.24924">
        <ele>39</ele>
        <time>2018-06-19T17:23:47Z</time>
      </trkpt>
      <trkpt lat="47.33626" lon="-1.24924">
        <ele>38</ele>
        <time>2018-06-19T17:23:49Z</time>
      </trkpt>
      <trkpt lat="47.33633" lon="-1.24925">
        <ele>38</ele>
        <time>2018-06-19T17:23:51Z</time>
      </trkpt>
      <trkpt lat="47.33642" lon="-1.24926">
        <ele>37</ele>
        <time>2018-06-19T17:23:54Z</time>
      </trkpt>
      <trkpt lat="47.33647" lon="-1.24926">
        <ele>36</ele>
        <time>2018-06-19T17:23:56Z</time>
      </trkpt>
      <trkpt lat="47.33649" lon="-1.24926">
        <ele>36</ele>
        <time>2018-06-19T17:23:57Z</time>
      </trkpt>
      <trkpt lat="47.33657" lon="-1.24926">
        <ele>35</ele>
        <time>2018-06-19T17:24:00Z</time>
      </trkpt>
      <trkpt lat="47.33666" lon="-1.24925">
        <ele>33</ele>
        <time>2018-06-19T17:24:03Z</time>
      </trkpt>
      <trkpt lat="47.33675" lon="-1.24924">
        <ele>32</ele>
        <time>2018-06-19T17:24:07Z</time>
      </trkpt>
      <trkpt lat="47.33682" lon="-1.24924">
        <ele>31</ele>
        <time>2018-06-19T17:24:10Z</time>
      </trkpt>
      <trkpt lat="47.33684" lon="-1.24923">
        <ele>31</ele>
        <time>2018-06-19T17:24:11Z</time>
      </trkpt>
      <trkpt lat="47.33689" lon="-1.24922">
        <ele>30</ele>
        <time>2018-06-19T17:24:13Z</time>
      </trkpt>
      <trkpt lat="47.33697" lon="-1.24921">
        <ele>28</ele>
        <time>2018-06-19T17:24:16Z</time>
      </trkpt>
      <trkpt lat="47.33703" lon="-1.2492">
        <ele>27</ele>
        <time>2018-06-19T17:24:19Z</time>
      </trkpt>
      <trkpt lat="47.33711" lon="-1.24919">
        <ele>26</ele>
        <time>2018-06-19T17:24:22Z</time>
      </trkpt>
      <trkpt lat="47.33718" lon="-1.24919">
        <ele>24</ele>
        <time>2018-06-19T17:24:25Z</time>
      </trkpt>
      <trkpt lat="47.3372" lon="-1.24918">
        <ele>24</ele>
        <time>2018-06-19T17:24:26Z</time>
      </trkpt>
      <trkpt lat="47.33723" lon="-1.24917">
        <ele>23</ele>
        <time>2018-06-19T17:24:27Z</time>
      </trkpt>
      <trkpt lat="47.3373" lon="-1.24915">
        <ele>22</ele>
        <time>2018-06-19T17:24:29Z</time>
      </trkpt>
      <trkpt lat="47.33739" lon="-1.24913">
        <ele>21</ele>
        <time>2018-06-19T17:24:31Z</time>
      </trkpt>
      <trkpt lat="47.33752" lon="-1.2491">
        <ele>19</ele>
        <time>2018-06-19T17:24:34Z</time>
      </trkpt>
      <trkpt lat="47.33771" lon="-1.24903">
        <ele>18</ele>
        <time>2018-06-19T17:24:38Z</time>
      </trkpt>
      <trkpt lat="47.33781" lon="-1.24902">
        <ele>18</ele>
        <time>2018-06-19T17:24:41Z</time>
      </trkpt>
      <trkpt lat="47.33783" lon="-1.24902">
        <ele>17</ele>
        <time>2018-06-19T17:24:42Z</time>
      </trkpt>
      <trkpt lat="47.33788" lon="-1.24905">
        <ele>16</ele>
        <time>2018-06-19T17:24:49Z</time>
      </trkpt>
      <trkpt lat="47.3379" lon="-1.24922">
        <ele>16</ele>
        <time>2018-06-19T17:24:53Z</time>
      </trkpt>
      <trkpt lat="47.3379" lon="-1.24927">
        <ele>16</ele>
        <time>2018-06-19T17:24:54Z</time>
      </trkpt>
      <trkpt lat="47.33798" lon="-1.24949">
        <ele>16</ele>
        <time>2018-06-19T17:24:59Z</time>
      </trkpt>
      <trkpt lat="47.33812" lon="-1.24959">
        <ele>17</ele>
        <time>2018-06-19T17:25:04Z</time>
      </trkpt>
      <trkpt lat="47.33815" lon="-1.2496">
        <ele>17</ele>
        <time>2018-06-19T17:25:05Z</time>
      </trkpt>
      <trkpt lat="47.33826" lon="-1.24964">
        <ele>18</ele>
        <time>2018-06-19T17:25:09Z</time>
      </trkpt>
      <trkpt lat="47.33836" lon="-1.24967">
        <ele>19</ele>
        <time>2018-06-19T17:25:12Z</time>
      </trkpt>
      <trkpt lat="47.33845" lon="-1.24974">
        <ele>20</ele>
        <time>2018-06-19T17:25:15Z</time>
      </trkpt>
      <trkpt lat="47.33854" lon="-1.24983">
        <ele>20</ele>
        <time>2018-06-19T17:25:18Z</time>
      </trkpt>
      <trkpt lat="47.33874" lon="-1.25012">
        <ele>21</ele>
        <time>2018-06-19T17:25:26Z</time>
      </trkpt>
      <trkpt lat="47.33876" lon="-1.25016">
        <ele>21</ele>
        <time>2018-06-19T17:25:27Z</time>
      </trkpt>
      <trkpt lat="47.33891" lon="-1.25051">
        <ele>21</ele>
        <time>2018-06-19T17:25:35Z</time>
      </trkpt>
      <trkpt lat="47.33898" lon="-1.25065">
        <ele>22</ele>
        <time>2018-06-19T17:25:39Z</time>
      </trkpt>
      <trkpt lat="47.33904" lon="-1.2508">
        <ele>22</ele>
        <time>2018-06-19T17:25:44Z</time>
      </trkpt>
      <trkpt lat="47.33903" lon="-1.25084">
        <ele>22</ele>
        <time>2018-06-19T17:25:49Z</time>
      </trkpt>
      <trkpt lat="47.33902" lon="-1.25086">
        <ele>22</ele>
        <time>2018-06-19T17:25:50Z</time>
      </trkpt>
      <trkpt lat="47.33894" lon="-1.25082">
        <ele>22</ele>
        <time>2018-06-19T17:25:53Z</time>
      </trkpt>
      <trkpt lat="47.3389" lon="-1.25073">
        <ele>22</ele>
        <time>2018-06-19T17:25:56Z</time>
      </trkpt>
      <trkpt lat="47.33889" lon="-1.25071">
        <ele>23</ele>
        <time>2018-06-19T17:25:57Z</time>
      </trkpt>
      <trkpt lat="47.33888" lon="-1.2507">
        <ele>23</ele>
        <time>2018-06-19T17:25:58Z</time>
      </trkpt>
      <trkpt lat="47.33883" lon="-1.25071">
        <ele>24</ele>
        <time>2018-06-19T17:26:01Z</time>
      </trkpt>
      <trkpt lat="47.3388" lon="-1.25074">
        <ele>25</ele>
        <time>2018-06-19T17:26:03Z</time>
      </trkpt>
      <trkpt lat="47.33879" lon="-1.25075">
        <ele>25</ele>
        <time>2018-06-19T17:26:04Z</time>
      </trkpt>
      <trkpt lat="47.3387" lon="-1.25079">
        <ele>26</ele>
        <time>2018-06-19T17:26:09Z</time>
      </trkpt>
      <trkpt lat="47.33864" lon="-1.25082">
        <ele>27</ele>
        <time>2018-06-19T17:26:12Z</time>
      </trkpt>
      <trkpt lat="47.3386" lon="-1.25083">
        <ele>27</ele>
        <time>2018-06-19T17:26:14Z</time>
      </trkpt>
      <trkpt lat="47.33858" lon="-1.25082">
        <ele>27</ele>
        <time>2018-06-19T17:26:15Z</time>
      </trkpt>
      <trkpt lat="47.33854" lon="-1.25077">
        <ele>28</ele>
        <time>2018-06-19T17:26:17Z</time>
      </trkpt>
      <trkpt lat="47.33851" lon="-1.25071">
        <ele>28</ele>
        <time>2018-06-19T17:26:19Z</time>
      </trkpt>
      <trkpt lat="47.33849" lon="-1.25068">
        <ele>28</ele>
        <time>2018-06-19T17:26:20Z</time>
      </trkpt>
      <trkpt lat="47.33841" lon="-1.25061">
        <ele>29</ele>
        <time>2018-06-19T17:26:24Z</time>
      </trkpt>
      <trkpt lat="47.33831" lon="-1.25059">
        <ele>29</ele>
        <time>2018-06-19T17:26:29Z</time>
      </trkpt>
      <trkpt lat="47.33826" lon="-1.25059">
        <ele>30</ele>
        <time>2018-06-19T17:26:32Z</time>
      </trkpt>
      <trkpt lat="47.33822" lon="-1.25059">
        <ele>31</ele>
        <time>2018-06-19T17:26:34Z</time>
      </trkpt>
      <trkpt lat="47.33816" lon="-1.2506">
        <ele>32</ele>
        <time>2018-06-19T17:26:38Z</time>
      </trkpt>
      <trkpt lat="47.33814" lon="-1.2506">
        <ele>32</ele>
        <time>2018-06-19T17:26:39Z</time>
      </trkpt>
      <trkpt lat="47.33809" lon="-1.25061">
        <ele>33</ele>
        <time>2018-06-19T17:26:42Z</time>
      </trkpt>
      <trkpt lat="47.33802" lon="-1.25063">
        <ele>34</ele>
        <time>2018-06-19T17:26:46Z</time>
      </trkpt>
      <trkpt lat="47.3379" lon="-1.25104">
        <ele>40</ele>
        <time>2018-06-19T17:27:17Z</time>
      </trkpt>
      <trkpt lat="47.3379" lon="-1.25107">
        <ele>40</ele>
        <time>2018-06-19T17:27:18Z</time>
      </trkpt>
      <trkpt lat="47.33786" lon="-1.25124">
        <ele>41</ele>
        <time>2018-06-19T17:27:24Z</time>
      </trkpt>
      <trkpt lat="47.33785" lon="-1.25133">
        <ele>42</ele>
        <time>2018-06-19T17:27:27Z</time>
      </trkpt>
      <trkpt lat="47.33786" lon="-1.25141">
        <ele>42</ele>
        <time>2018-06-19T17:27:30Z</time>
      </trkpt>
      <trkpt lat="47.33786" lon="-1.25151">
        <ele>42</ele>
        <time>2018-06-19T17:27:33Z</time>
      </trkpt>
      <trkpt lat="47.33788" lon="-1.25166">
        <ele>43</ele>
        <time>2018-06-19T17:28:13Z</time>
      </trkpt>
      <trkpt lat="47.338" lon="-1.25167">
        <ele>42</ele>
        <time>2018-06-19T17:28:19Z</time>
      </trkpt>
      <trkpt lat="47.33803" lon="-1.25168">
        <ele>42</ele>
        <time>2018-06-19T17:28:20Z</time>
      </trkpt>
      <trkpt lat="47.33804" lon="-1.25168">
        <ele>41</ele>
        <time>2018-06-19T17:28:21Z</time>
      </trkpt>
      <trkpt lat="47.33808" lon="-1.25169">
        <ele>40</ele>
        <time>2018-06-19T17:28:23Z</time>
      </trkpt>
      <trkpt lat="47.33813" lon="-1.25169">
        <ele>39</ele>
        <time>2018-06-19T17:28:25Z</time>
      </trkpt>
      <trkpt lat="47.33816" lon="-1.25168">
        <ele>38</ele>
        <time>2018-06-19T17:28:26Z</time>
      </trkpt>
      <trkpt lat="47.33819" lon="-1.25168">
        <ele>38</ele>
        <time>2018-06-19T17:28:27Z</time>
      </trkpt>
      <trkpt lat="47.33822" lon="-1.25167">
        <ele>36</ele>
        <time>2018-06-19T17:28:28Z</time>
      </trkpt>
      <trkpt lat="47.33827" lon="-1.25167">
        <ele>35</ele>
        <time>2018-06-19T17:28:30Z</time>
      </trkpt>
      <trkpt lat="47.33855" lon="-1.25157">
        <ele>32</ele>
        <time>2018-06-19T17:28:58Z</time>
      </trkpt>
      <trkpt lat="47.33872" lon="-1.25156">
        <ele>31</ele>
        <time>2018-06-19T17:29:03Z</time>
      </trkpt>
      <trkpt lat="47.33876" lon="-1.25156">
        <ele>30</ele>
        <time>2018-06-19T17:29:04Z</time>
      </trkpt>
      <trkpt lat="47.33885" lon="-1.25156">
        <ele>29</ele>
        <time>2018-06-19T17:29:07Z</time>
      </trkpt>
      <trkpt lat="47.3389" lon="-1.25156">
        <ele>29</ele>
        <time>2018-06-19T17:29:09Z</time>
      </trkpt>
      <trkpt lat="47.33892" lon="-1.25157">
        <ele>29</ele>
        <time>2018-06-19T17:29:10Z</time>
      </trkpt>
      <trkpt lat="47.33896" lon="-1.2516">
        <ele>28</ele>
        <time>2018-06-19T17:29:12Z</time>
      </trkpt>
      <trkpt lat="47.33897" lon="-1.25161">
        <ele>28</ele>
        <time>2018-06-19T17:29:13Z</time>
      </trkpt>
      <trkpt lat="47.339" lon="-1.25166">
        <ele>27</ele>
        <time>2018-06-19T17:29:21Z</time>
      </trkpt>
      <trkpt lat="47.33896" lon="-1.25179">
        <ele>27</ele>
        <time>2018-06-19T17:29:26Z</time>
      </trkpt>
      <trkpt lat="47.33896" lon="-1.25182">
        <ele>27</ele>
        <time>2018-06-19T17:29:27Z</time>
      </trkpt>
      <trkpt lat="47.33897" lon="-1.25196">
        <ele>28</ele>
        <time>2018-06-19T17:29:30Z</time>
      </trkpt>
      <trkpt lat="47.33898" lon="-1.25209">
        <ele>29</ele>
        <time>2018-06-19T17:29:33Z</time>
      </trkpt>
      <trkpt lat="47.33899" lon="-1.25231">
        <ele>29</ele>
        <time>2018-06-19T17:29:38Z</time>
      </trkpt>
      <trkpt lat="47.33899" lon="-1.25246">
        <ele>30</ele>
        <time>2018-06-19T17:29:41Z</time>
      </trkpt>
      <trkpt lat="47.33898" lon="-1.25277">
        <ele>30</ele>
        <time>2018-06-19T17:29:47Z</time>
      </trkpt>
      <trkpt lat="47.339" lon="-1.25294">
        <ele>31</ele>
        <time>2018-06-19T17:29:50Z</time>
      </trkpt>
      <trkpt lat="47.33904" lon="-1.2534">
        <ele>31</ele>
        <time>2018-06-19T17:29:58Z</time>
      </trkpt>
      <trkpt lat="47.33907" lon="-1.25368">
        <ele>30</ele>
        <time>2018-06-19T17:30:04Z</time>
      </trkpt>
      <trkpt lat="47.33909" lon="-1.25371">
        <ele>30</ele>
        <time>2018-06-19T17:30:06Z</time>
      </trkpt>
      <trkpt lat="47.33912" lon="-1.25371">
        <ele>30</ele>
        <time>2018-06-19T17:30:08Z</time>
      </trkpt>
      <trkpt lat="47.33912" lon="-1.2537">
        <ele>30</ele>
        <time>2018-06-19T17:30:09Z</time>
      </trkpt>
      <trkpt lat="47.33913" lon="-1.25369">
        <ele>29</ele>
        <time>2018-06-19T17:30:20Z</time>
      </trkpt>
      <trkpt lat="47.33917" lon="-1.25365">
        <ele>29</ele>
        <time>2018-06-19T17:30:22Z</time>
      </trkpt>
      <trkpt lat="47.3392" lon="-1.25363">
        <ele>29</ele>
        <time>2018-06-19T17:30:24Z</time>
      </trkpt>
      <trkpt lat="47.33925" lon="-1.25363">
        <ele>29</ele>
        <time>2018-06-19T17:30:27Z</time>
      </trkpt>
      <trkpt lat="47.3393" lon="-1.25363">
        <ele>28</ele>
        <time>2018-06-19T17:30:29Z</time>
      </trkpt>
      <trkpt lat="47.33941" lon="-1.25362">
        <ele>28</ele>
        <time>2018-06-19T17:30:33Z</time>
      </trkpt>
      <trkpt lat="47.33956" lon="-1.25361">
        <ele>26</ele>
        <time>2018-06-19T17:30:38Z</time>
      </trkpt>
      <trkpt lat="47.3396" lon="-1.25362">
        <ele>26</ele>
        <time>2018-06-19T17:30:40Z</time>
      </trkpt>
      <trkpt lat="47.33962" lon="-1.25365">
        <ele>26</ele>
        <time>2018-06-19T17:30:41Z</time>
      </trkpt>
      <trkpt lat="47.33964" lon="-1.25368">
        <ele>25</ele>
        <time>2018-06-19T17:30:42Z</time>
      </trkpt>
      <trkpt lat="47.33967" lon="-1.25372">
        <ele>25</ele>
        <time>2018-06-19T17:30:44Z</time>
      </trkpt>
      <trkpt lat="47.33972" lon="-1.25381">
        <ele>24</ele>
        <time>2018-06-19T17:30:47Z</time>
      </trkpt>
      <trkpt lat="47.33975" lon="-1.25387">
        <ele>24</ele>
        <time>2018-06-19T17:30:50Z</time>
      </trkpt>
      <trkpt lat="47.33979" lon="-1.25394">
        <ele>23</ele>
        <time>2018-06-19T17:30:55Z</time>
      </trkpt>
      <trkpt lat="47.33981" lon="-1.25402">
        <ele>22</ele>
        <time>2018-06-19T17:30:57Z</time>
      </trkpt>
      <trkpt lat="47.33982" lon="-1.25407">
        <ele>22</ele>
        <time>2018-06-19T17:30:59Z</time>
      </trkpt>
      <trkpt lat="47.33979" lon="-1.25416">
        <ele>21</ele>
        <time>2018-06-19T17:31:02Z</time>
      </trkpt>
      <trkpt lat="47.33978" lon="-1.25419">
        <ele>20</ele>
        <time>2018-06-19T17:31:03Z</time>
      </trkpt>
      <trkpt lat="47.33974" lon="-1.25424">
        <ele>20</ele>
        <time>2018-06-19T17:31:05Z</time>
      </trkpt>
      <trkpt lat="47.3397" lon="-1.25433">
        <ele>19</ele>
        <time>2018-06-19T17:31:08Z</time>
      </trkpt>
      <trkpt lat="47.3397" lon="-1.25436">
        <ele>18</ele>
        <time>2018-06-19T17:31:09Z</time>
      </trkpt>
      <trkpt lat="47.33967" lon="-1.25452">
        <ele>17</ele>
        <time>2018-06-19T17:31:13Z</time>
      </trkpt>
      <trkpt lat="47.33965" lon="-1.2546">
        <ele>16</ele>
        <time>2018-06-19T17:31:16Z</time>
      </trkpt>
      <trkpt lat="47.33965" lon="-1.25463">
        <ele>15</ele>
        <time>2018-06-19T17:31:17Z</time>
      </trkpt>
      <trkpt lat="47.33966" lon="-1.25466">
        <ele>15</ele>
        <time>2018-06-19T17:31:18Z</time>
      </trkpt>
      <trkpt lat="47.33971" lon="-1.25473">
        <ele>14</ele>
        <time>2018-06-19T17:31:21Z</time>
      </trkpt>
      <trkpt lat="47.33973" lon="-1.25474">
        <ele>14</ele>
        <time>2018-06-19T17:31:22Z</time>
      </trkpt>
      <trkpt lat="47.33976" lon="-1.25474">
        <ele>14</ele>
        <time>2018-06-19T17:31:23Z</time>
      </trkpt>
      <trkpt lat="47.33982" lon="-1.25475">
        <ele>13</ele>
        <time>2018-06-19T17:31:25Z</time>
      </trkpt>
      <trkpt lat="47.33991" lon="-1.25478">
        <ele>12</ele>
        <time>2018-06-19T17:31:28Z</time>
      </trkpt>
      <trkpt lat="47.33994" lon="-1.2548">
        <ele>11</ele>
        <time>2018-06-19T17:31:29Z</time>
      </trkpt>
      <trkpt lat="47.33999" lon="-1.25487">
        <ele>10</ele>
        <time>2018-06-19T17:31:31Z</time>
      </trkpt>
      <trkpt lat="47.34" lon="-1.25492">
        <ele>10</ele>
        <time>2018-06-19T17:31:32Z</time>
      </trkpt>
      <trkpt lat="47.34003" lon="-1.25501">
        <ele>9</ele>
        <time>2018-06-19T17:31:34Z</time>
      </trkpt>
      <trkpt lat="47.34003" lon="-1.25515">
        <ele>8</ele>
        <time>2018-06-19T17:31:37Z</time>
      </trkpt>
      <trkpt lat="47.34002" lon="-1.25549">
        <ele>9</ele>
        <time>2018-06-19T17:31:43Z</time>
      </trkpt>
      <trkpt lat="47.34004" lon="-1.25613">
        <ele>8</ele>
        <time>2018-06-19T17:31:53Z</time>
      </trkpt>
      <trkpt lat="47.34008" lon="-1.25669">
        <ele>9</ele>
        <time>2018-06-19T17:32:03Z</time>
      </trkpt>
      <trkpt lat="47.34009" lon="-1.25701">
        <ele>10</ele>
        <time>2018-06-19T17:32:10Z</time>
      </trkpt>
      <trkpt lat="47.3401" lon="-1.25738">
        <ele>10</ele>
        <time>2018-06-19T17:32:17Z</time>
      </trkpt>
      <trkpt lat="47.3401" lon="-1.25748">
        <ele>9</ele>
        <time>2018-06-19T17:32:19Z</time>
      </trkpt>
      <trkpt lat="47.34008" lon="-1.25762">
        <ele>8</ele>
        <time>2018-06-19T17:32:22Z</time>
      </trkpt>
      <trkpt lat="47.34007" lon="-1.25766">
        <ele>7</ele>
        <time>2018-06-19T17:32:23Z</time>
      </trkpt>
      <trkpt lat="47.34006" lon="-1.25789">
        <ele>7</ele>
        <time>2018-06-19T17:32:28Z</time>
      </trkpt>
      <trkpt lat="47.34005" lon="-1.2583">
        <ele>8</ele>
        <time>2018-06-19T17:32:34Z</time>
      </trkpt>
      <trkpt lat="47.34007" lon="-1.25867">
        <ele>7</ele>
        <time>2018-06-19T17:32:40Z</time>
      </trkpt>
      <trkpt lat="47.34002" lon="-1.25899">
        <ele>7</ele>
        <time>2018-06-19T17:32:46Z</time>
      </trkpt>
      <trkpt lat="47.33994" lon="-1.25941">
        <ele>8</ele>
        <time>2018-06-19T17:32:53Z</time>
      </trkpt>
      <trkpt lat="47.33987" lon="-1.2598">
        <ele>8</ele>
        <time>2018-06-19T17:33:00Z</time>
      </trkpt>
      <trkpt lat="47.33984" lon="-1.26002">
        <ele>9</ele>
        <time>2018-06-19T17:33:04Z</time>
      </trkpt>
      <trkpt lat="47.33983" lon="-1.26015">
        <ele>9</ele>
        <time>2018-06-19T17:33:06Z</time>
      </trkpt>
      <trkpt lat="47.33978" lon="-1.2605">
        <ele>8</ele>
        <time>2018-06-19T17:33:12Z</time>
      </trkpt>
      <trkpt lat="47.33975" lon="-1.26085">
        <ele>9</ele>
        <time>2018-06-19T17:33:19Z</time>
      </trkpt>
      <trkpt lat="47.33973" lon="-1.26135">
        <ele>9</ele>
        <time>2018-06-19T17:33:25Z</time>
      </trkpt>
      <trkpt lat="47.33973" lon="-1.26174">
        <ele>8</ele>
        <time>2018-06-19T17:33:31Z</time>
      </trkpt>
      <trkpt lat="47.3397" lon="-1.26212">
        <ele>9</ele>
        <time>2018-06-19T17:33:37Z</time>
      </trkpt>
      <trkpt lat="47.3397" lon="-1.2625">
        <ele>9</ele>
        <time>2018-06-19T17:33:43Z</time>
      </trkpt>
      <trkpt lat="47.33968" lon="-1.26282">
        <ele>8</ele>
        <time>2018-06-19T17:33:49Z</time>
      </trkpt>
      <trkpt lat="47.33971" lon="-1.26318">
        <ele>8</ele>
        <time>2018-06-19T17:33:56Z</time>
      </trkpt>
      <trkpt lat="47.33972" lon="-1.26336">
        <ele>8</ele>
        <time>2018-06-19T17:33:59Z</time>
      </trkpt>
      <trkpt lat="47.33973" lon="-1.26356">
        <ele>8</ele>
        <time>2018-06-19T17:34:02Z</time>
      </trkpt>
      <trkpt lat="47.33973" lon="-1.26368">
        <ele>8</ele>
        <time>2018-06-19T17:34:04Z</time>
      </trkpt>
      <trkpt lat="47.33974" lon="-1.26382">
        <ele>8</ele>
        <time>2018-06-19T17:34:07Z</time>
      </trkpt>
      <trkpt lat="47.33976" lon="-1.26416">
        <ele>8</ele>
        <time>2018-06-19T17:34:13Z</time>
      </trkpt>
      <trkpt lat="47.33976" lon="-1.26455">
        <ele>8</ele>
        <time>2018-06-19T17:34:20Z</time>
      </trkpt>
      <trkpt lat="47.33975" lon="-1.26479">
        <ele>9</ele>
        <time>2018-06-19T17:34:25Z</time>
      </trkpt>
      <trkpt lat="47.33976" lon="-1.26495">
        <ele>10</ele>
        <time>2018-06-19T17:34:28Z</time>
      </trkpt>
      <trkpt lat="47.33978" lon="-1.26507">
        <ele>10</ele>
        <time>2018-06-19T17:34:30Z</time>
      </trkpt>
      <trkpt lat="47.33984" lon="-1.26553">
        <ele>10</ele>
        <time>2018-06-19T17:34:38Z</time>
      </trkpt>
      <trkpt lat="47.33984" lon="-1.26586">
        <ele>10</ele>
        <time>2018-06-19T17:34:43Z</time>
      </trkpt>
      <trkpt lat="47.33983" lon="-1.26593">
        <ele>10</ele>
        <time>2018-06-19T17:34:44Z</time>
      </trkpt>
      <trkpt lat="47.33981" lon="-1.26614">
        <ele>10</ele>
        <time>2018-06-19T17:34:48Z</time>
      </trkpt>
      <trkpt lat="47.3398" lon="-1.2664">
        <ele>10</ele>
        <time>2018-06-19T17:34:54Z</time>
      </trkpt>
      <trkpt lat="47.33977" lon="-1.26672">
        <ele>10</ele>
        <time>2018-06-19T17:35:01Z</time>
      </trkpt>
      <trkpt lat="47.33974" lon="-1.26704">
        <ele>11</ele>
        <time>2018-06-19T17:35:07Z</time>
      </trkpt>
      <trkpt lat="47.3397" lon="-1.26727">
        <ele>11</ele>
        <time>2018-06-19T17:35:11Z</time>
      </trkpt>
      <trkpt lat="47.33968" lon="-1.26733">
        <ele>11</ele>
        <time>2018-06-19T17:35:12Z</time>
      </trkpt>
      <trkpt lat="47.33961" lon="-1.26759">
        <ele>11</ele>
        <time>2018-06-19T17:35:18Z</time>
      </trkpt>
      <trkpt lat="47.33959" lon="-1.26768">
        <ele>12</ele>
        <time>2018-06-19T17:35:21Z</time>
      </trkpt>
      <trkpt lat="47.33959" lon="-1.26782">
        <ele>13</ele>
        <time>2018-06-19T17:35:26Z</time>
      </trkpt>
      <trkpt lat="47.33958" lon="-1.26786">
        <ele>13</ele>
        <time>2018-06-19T17:35:28Z</time>
      </trkpt>
      <trkpt lat="47.33909" lon="-1.26927">
        <ele>31</ele>
        <time>2018-06-19T17:37:14Z</time>
      </trkpt>
      <trkpt lat="47.33911" lon="-1.26931">
        <ele>31</ele>
        <time>2018-06-19T17:37:15Z</time>
      </trkpt>
      <trkpt lat="47.33919" lon="-1.26961">
        <ele>32</ele>
        <time>2018-06-19T17:37:23Z</time>
      </trkpt>
      <trkpt lat="47.33923" lon="-1.26985">
        <ele>32</ele>
        <time>2018-06-19T17:37:45Z</time>
      </trkpt>
      <trkpt lat="47.33924" lon="-1.26994">
        <ele>32</ele>
        <time>2018-06-19T17:37:47Z</time>
      </trkpt>
      <trkpt lat="47.33925" lon="-1.27005">
        <ele>30</ele>
        <time>2018-06-19T17:37:52Z</time>
      </trkpt>
      <trkpt lat="47.33926" lon="-1.27028">
        <ele>29</ele>
        <time>2018-06-19T17:37:58Z</time>
      </trkpt>
      <trkpt lat="47.33927" lon="-1.27044">
        <ele>29</ele>
        <time>2018-06-19T17:38:03Z</time>
      </trkpt>
      <trkpt lat="47.33927" lon="-1.27052">
        <ele>28</ele>
        <time>2018-06-19T17:38:05Z</time>
      </trkpt>
      <trkpt lat="47.33927" lon="-1.27062">
        <ele>28</ele>
        <time>2018-06-19T17:38:08Z</time>
      </trkpt>
      <trkpt lat="47.33929" lon="-1.27076">
        <ele>27</ele>
        <time>2018-06-19T17:38:13Z</time>
      </trkpt>
      <trkpt lat="47.3393" lon="-1.2709">
        <ele>26</ele>
        <time>2018-06-19T17:38:20Z</time>
      </trkpt>
      <trkpt lat="47.33926" lon="-1.27109">
        <ele>25</ele>
        <time>2018-06-19T17:38:31Z</time>
      </trkpt>
      <trkpt lat="47.33928" lon="-1.27121">
        <ele>24</ele>
        <time>2018-06-19T17:38:35Z</time>
      </trkpt>
      <trkpt lat="47.33929" lon="-1.27125">
        <ele>23</ele>
        <time>2018-06-19T17:38:36Z</time>
      </trkpt>
      <trkpt lat="47.3393" lon="-1.27141">
        <ele>23</ele>
        <time>2018-06-19T17:38:41Z</time>
      </trkpt>
      <trkpt lat="47.3393" lon="-1.27171">
        <ele>24</ele>
        <time>2018-06-19T17:39:00Z</time>
      </trkpt>
      <trkpt lat="47.3393" lon="-1.27173">
        <ele>25</ele>
        <time>2018-06-19T17:39:01Z</time>
      </trkpt>
      <trkpt lat="47.33934" lon="-1.27189">
        <ele>23</ele>
        <time>2018-06-19T17:39:08Z</time>
      </trkpt>
      <trkpt lat="47.33936" lon="-1.27211">
        <ele>23</ele>
        <time>2018-06-19T17:39:13Z</time>
      </trkpt>
      <trkpt lat="47.33944" lon="-1.27294">
        <ele>9</ele>
        <time>2018-06-19T17:40:12Z</time>
      </trkpt>
      <trkpt lat="47.33944" lon="-1.27313">
        <ele>8</ele>
        <time>2018-06-19T17:40:17Z</time>
      </trkpt>
      <trkpt lat="47.33941" lon="-1.27319">
        <ele>8</ele>
        <time>2018-06-19T17:40:19Z</time>
      </trkpt>
      <trkpt lat="47.33944" lon="-1.27333">
        <ele>7</ele>
        <time>2018-06-19T17:40:33Z</time>
      </trkpt>
      <trkpt lat="47.3395" lon="-1.27351">
        <ele>7</ele>
        <time>2018-06-19T17:40:40Z</time>
      </trkpt>
      <trkpt lat="47.33949" lon="-1.27356">
        <ele>6</ele>
        <time>2018-06-19T17:40:43Z</time>
      </trkpt>
      <trkpt lat="47.33948" lon="-1.27357">
        <ele>6</ele>
        <time>2018-06-19T17:40:44Z</time>
      </trkpt>
      <trkpt lat="47.33946" lon="-1.27363">
        <ele>6</ele>
        <time>2018-06-19T17:40:47Z</time>
      </trkpt>
      <trkpt lat="47.33937" lon="-1.2738">
        <ele>6</ele>
        <time>2018-06-19T17:40:56Z</time>
      </trkpt>
      <trkpt lat="47.33931" lon="-1.27393">
        <ele>6</ele>
        <time>2018-06-19T17:41:02Z</time>
      </trkpt>
      <trkpt lat="47.33924" lon="-1.27405">
        <ele>7</ele>
        <time>2018-06-19T17:41:08Z</time>
      </trkpt>
      <trkpt lat="47.33922" lon="-1.27408">
        <ele>7</ele>
        <time>2018-06-19T17:41:09Z</time>
      </trkpt>
      <trkpt lat="47.33921" lon="-1.27411">
        <ele>8</ele>
        <time>2018-06-19T17:41:10Z</time>
      </trkpt>
      <trkpt lat="47.33919" lon="-1.27423">
        <ele>8</ele>
        <time>2018-06-19T17:41:13Z</time>
      </trkpt>
      <trkpt lat="47.33919" lon="-1.27428">
        <ele>9</ele>
        <time>2018-06-19T17:41:14Z</time>
      </trkpt>
      <trkpt lat="47.33919" lon="-1.2745">
        <ele>9</ele>
        <time>2018-06-19T17:41:19Z</time>
      </trkpt>
      <trkpt lat="47.3392" lon="-1.27478">
        <ele>9</ele>
        <time>2018-06-19T17:41:26Z</time>
      </trkpt>
    </trkseg>
  </trk>
</gpx>